[[{"header":{"parameterUnit":"m.s-1","parameterCategory":1,"la1":30.6,"la2":28.766,"lo1":-90.7593,"lo2":-88.6598,"dx":0.0162,"dy":0.0183,"nx":116,"ny":114,"refTime":"2022-12-02T06:00:00:Z","depth":0,"parameterNumber":2,"parameterNumberName":"U-component_of_WINDS"},"data":[0.0,0.0,0.0,0.0,0.0,0.0,0.0,0.0,0.0,0.0,0.0,0.0,0.0,0.0,0.0,0.0,0.0,0.0,0.0,0.0,0.0,0.0,0.0,0.0,0.0,0.0,0.0,0.0,0.0,0.0,0.0,0.0,0.0,0.0,0.0,0.0,0.0,0.0,0.0,0.0,0.0,0.0,0.0,0.0,0.0,0.0,0.0,0.0,0.0,0.0,0.0,0.0,0.0,0.0,0.0,0.0,0.0,0.0,0.0,0.0,0.0,0.0,0.0,0.0,0.0,0.0,0.0,0.0,0.0,0.0,0.0,0.0,0.0,0.0,0.0,0.0,0.0,0.0,0.0,0.0,0.0,0.0,0.0,0.0,0.0,0.0,0.0,0.0,0.0,0.0,0.0,0.0,0.0,0.0,0.0,0.0,0.0,0.0,0.0,0.0,0.0,0.0,0.0,0.0,0.0,0.0,0.0,0.0,0.0,0.0,0.0,0.0,0.0,0.0,0.0,0.0,0.0,0.0,0.0,0.0,0.0,0.0,0.0,0.0,0.0,0.0,0.0,0.0,0.0,0.0,0.0,0.0,0.0,0.0,0.0,0.0,0.0,0.0,0.0,0.0,0.0,0.0,0.0,0.0,0.0,0.0,0.0,0.0,0.0,0.0,0.0,0.0,0.0,0.0,0.0,0.0,0.0,0.0,0.0,0.0,0.0,0.0,0.0,0.0,0.0,0.0,0.0,0.0,0.0,0.0,0.0,0.0,0.0,0.0,0.0,0.0,0.0,0.0,0.0,0.0,0.0,0.0,0.0,0.0,0.0,0.0,0.0,0.0,0.0,0.0,0.0,0.0,0.0,0.0,0.0,0.0,0.0,0.0,0.0,0.0,0.0,0.0,0.0,0.0,0.0,0.0,0.0,0.0,0.0,0.0,0.0,0.0,0.0,0.0,0.0,0.0,0.0,0.0,0.0,0.0,0.0,0.0,0.0,0.0,0.0,0.0,0.0,0.0,0.0,0.0,0.0,0.0,0.0,0.0,0.0,0.0,0.0,0.0,0.0,0.0,0.0,0.0,0.0,0.0,0.0,0.0,0.0,0.0,0.0,0.0,0.0,0.0,0.0,0.0,0.0,0.0,0.0,0.0,0.0,0.0,0.0,0.0,0.0,0.0,0.0,0.0,0.0,0.0,0.0,0.0,0.0,0.0,0.0,0.0,0.0,0.0,0.0,0.0,0.0,0.0,0.0,0.0,0.0,0.0,0.0,0.0,0.0,0.0,0.0,0.0,0.0,0.0,0.0,0.0,0.0,0.0,0.0,0.0,0.0,0.0,0.0,0.0,0.0,0.0,0.0,0.0,0.0,0.0,0.0,0.0,0.0,0.0,0.0,0.0,0.0,0.0,0.0,0.0,0.0,0.0,0.0,0.0,0.0,0.0,0.0,0.0,0.0,0.0,0.0,0.0,0.0,0.0,0.0,0.0,0.0,0.0,0.0,0.0,0.0,0.0,0.0,0.0,0.0,0.0,0.0,0.0,0.0,0.0,0.0,0.0,0.0,0.0,0.0,0.0,0.0,0.0,0.0,0.0,0.0,0.0,0.0,0.0,0.0,0.0,0.0,0.0,0.0,0.0,0.0,0.0,0.0,0.0,0.0,0.0,0.0,0.0,0.0,0.0,0.0,0.0,0.0,0.0,0.0,0.0,0.0,0.0,0.0,0.0,0.0,0.0,0.0,0.0,0.0,0.0,0.0,0.0,0.0,0.0,0.0,0.0,0.0,0.0,0.0,0.0,0.0,0.0,0.0,0.0,0.0,0.0,0.0,0.0,0.0,0.0,0.0,0.0,0.0,0.0,0.0,0.0,0.0,0.0,0.0,0.0,0.0,0.0,0.0,0.0,0.0,0.0,0.0,0.0,0.0,0.0,0.0,0.0,0.0,0.0,0.0,0.0,0.0,0.0,0.0,0.0,0.0,0.0,0.0,0.0,0.0,0.0,0.0,0.0,0.0,0.0,0.0,0.0,0.0,0.0,0.0,0.0,0.0,0.0,0.0,0.0,0.0,0.0,0.0,0.0,0.0,0.0,0.0,0.0,0.0,0.0,0.0,0.0,0.0,0.0,0.0,0.0,0.0,0.0,0.0,0.0,0.0,0.0,0.0,0.0,0.0,0.0,0.0,0.0,0.0,0.0,0.0,0.0,0.0,0.0,0.0,0.0,0.0,0.0,0.0,0.0,0.0,0.0,0.0,0.0,0.0,0.0,0.0,0.0,0.0,0.0,0.0,0.0,0.0,0.0,0.0,0.0,0.0,0.0,0.0,0.0,0.0,0.0,0.0,0.0,0.0,0.0,0.0,0.0,0.0,0.0,0.0,0.0,0.0,0.0,0.0,0.0,0.0,0.0,0.0,0.0,0.0,0.0,0.0,0.0,0.0,0.0,0.0,0.0,0.0,0.0,0.0,0.0,0.0,0.0,0.0,0.0,0.0,0.0,0.0,0.0,0.0,0.0,0.0,0.0,0.0,0.0,0.0,0.0,0.0,0.0,0.0,0.0,0.0,0.0,0.0,0.0,0.0,0.0,0.0,0.0,0.0,0.0,0.0,0.0,0.0,0.0,0.0,0.0,0.0,0.0,0.0,0.0,0.0,0.0,0.0,0.0,0.0,0.0,0.0,0.0,0.0,0.0,0.0,0.0,0.0,0.0,0.0,0.0,0.0,0.0,0.0,0.0,0.0,0.0,0.0,0.0,0.0,0.0,0.0,0.0,0.0,0.0,0.0,0.0,0.0,0.0,0.0,0.0,0.0,0.0,0.0,0.0,0.0,0.0,0.0,0.0,0.0,0.0,0.0,0.0,0.0,0.0,0.0,0.0,0.0,0.0,0.0,0.0,0.0,0.0,0.0,0.0,0.0,0.0,0.0,0.0,0.0,0.0,0.0,0.0,0.0,0.0,0.0,0.0,0.0,0.0,0.0,0.0,0.0,0.0,0.0,0.0,0.0,0.0,0.0,0.0,0.0,0.0,0.0,0.0,0.0,0.0,0.0,0.0,0.0,0.0,0.0,0.0,0.0,0.0,0.0,0.0,0.0,0.0,0.0,0.0,0.0,0.0,0.0,0.0,0.0,0.0,0.0,0.0,0.0,0.0,0.0,0.0,0.0,0.0,0.0,0.0,0.0,0.0,0.0,0.0,0.0,0.0,0.0,0.0,0.0,0.0,0.0,0.0,0.0,0.0,0.0,0.0,0.0,0.0,0.0,0.0,0.0,0.0,0.0,0.0,0.0,0.0,0.0,0.0,0.0,0.0,0.0,0.0,0.0,0.0,0.0,0.0,0.0,0.0,0.0,0.0,0.0,0.0,0.0,0.0,0.0,0.0,0.0,0.0,0.0,0.0,0.0,0.0,0.0,0.0,0.0,0.0,0.0,0.0,0.0,0.0,0.0,0.0,0.0,0.0,0.0,0.0,0.0,0.0,0.0,0.0,0.0,0.0,0.0,0.0,0.0,0.0,0.0,0.0,0.0,0.0,0.0,0.0,0.0,0.0,0.0,0.0,0.0,0.0,0.0,0.0,0.0,0.0,0.0,0.0,0.0,0.0,0.0,0.0,0.0,0.0,0.0,0.0,0.0,0.0,0.0,0.0,0.0,0.0,0.0,0.0,0.0,0.0,0.0,0.0,0.0,0.0,0.0,0.0,0.0,0.0,0.0,0.0,0.0,0.0,0.0,0.0,0.0,0.0,0.0,0.0,0.0,0.0,0.0,0.0,0.0,0.0,0.0,0.0,0.0,0.0,0.0,0.0,0.0,0.0,0.0,0.0,0.0,0.0,0.0,0.0,0.0,0.0,0.0,0.0,0.0,0.0,0.0,0.0,0.0,0.0,0.0,0.0,0.0,0.0,0.0,0.0,0.0,0.0,0.0,0.0,0.0,0.0,0.0,0.0,0.0,0.0,0.0,0.0,0.0,0.0,0.0,0.0,0.0,0.0,0.0,0.0,0.0,0.0,0.0,0.0,0.0,0.0,0.0,0.0,0.0,0.0,0.0,0.0,0.0,0.0,0.0,0.0,0.0,0.0,0.0,0.0,0.0,0.0,0.0,0.0,0.0,0.0,0.0,0.0,0.0,0.0,0.0,0.0,0.0,0.0,0.0,0.0,0.0,0.0,0.0,0.0,0.0,0.0,0.0,0.0,0.0,0.0,0.0,0.0,0.0,0.0,0.0,0.0,0.0,0.0,0.0,0.0,0.0,0.0,0.0,0.0,0.0,0.0,0.0,0.0,0.0,0.0,0.0,0.0,0.0,0.0,0.0,0.0,0.0,0.0,0.0,0.0,0.0,0.0,0.0,0.0,0.0,0.0,0.0,0.0,0.0,0.0,0.0,0.0,0.0,0.0,0.0,0.0,0.0,0.0,0.0,0.0,0.0,0.0,0.0,0.0,0.0,0.0,0.0,0.0,0.0,0.0,0.0,0.0,0.0,0.0,0.0,0.0,0.0,0.0,0.0,0.0,0.0,0.0,0.0,0.0,0.0,0.0,0.0,0.0,0.0,0.0,0.0,0.0,0.0,0.0,0.0,0.0,0.0,0.0,0.0,0.0,0.0,0.0,0.0,0.0,0.0,0.0,0.0,0.0,0.0,0.0,0.0,0.0,0.0,0.0,0.0,0.0,0.0,0.0,0.0,0.0,0.0,0.0,0.0,0.0,0.0,0.0,0.0,0.0,0.0,0.0,0.0,0.0,0.0,0.0,0.0,0.0,0.0,0.0,0.0,0.0,0.0,0.0,0.0,0.0,0.0,0.0,0.0,0.0,0.0,0.0,0.0,0.0,0.0,0.0,0.0,0.0,0.0,0.0,0.0,0.0,0.0,0.0,0.0,0.0,0.0,0.0,0.0,0.0,0.0,0.0,0.0,0.0,0.0,0.0,0.0,0.0,0.0,0.0,0.0,0.0,0.0,0.0,0.0,0.0,0.0,0.0,0.0,0.0,0.0,0.0,0.0,0.0,0.0,0.0,0.0,0.0,0.0,0.0,0.0,0.0,0.0,0.0,0.0,0.0,0.0,0.0,0.0,0.0,0.0,0.0,0.0,0.0,0.0,0.0,0.0,0.0,0.0,0.0,0.0,0.0,0.0,0.0,0.0,0.0,0.0,0.0,0.0,0.0,0.0,0.0,0.0,0.0,0.0,0.0,0.0,0.0,0.0,0.0,0.0,0.0,0.0,0.0,0.0,0.0,0.0,0.0,0.0,0.0,0.0,0.0,0.0,0.0,0.0,0.0,0.0,0.0,0.0,0.0,0.0,0.0,0.0,0.0,0.0,0.0,0.0,0.0,0.0,0.0,0.0,0.0,0.0,0.0,0.0,0.0,0.0,0.0,0.0,0.0,0.0,0.0,0.0,0.0,0.0,0.0,0.0,0.0,0.0,0.0,0.0,0.0,0.0,0.0,0.0,0.0,0.0,0.0,0.0,0.0,0.0,0.0,0.0,0.0,0.0,0.0,0.0,0.0,0.0,0.0,0.0,0.0,0.0,0.0,0.0,0.0,0.0,0.0,0.0,0.0,0.0,0.0,0.0,0.0,0.0,0.0,0.0,0.0,0.0,0.0,0.0,0.0,0.0,0.0,0.0,0.0,0.0,0.0,0.0,0.0,0.0,0.0,0.0,0.0,0.0,0.0,0.0,0.0,0.0,0.0,0.0,0.0,0.0,0.0,0.0,0.0,0.0,0.0,0.0,0.0,0.0,0.0,0.0,0.0,0.0,0.0,0.0,0.0,0.0,0.0,0.0,0.0,0.0,0.0,0.0,0.0,0.0,0.0,0.0,0.0,0.0,0.0,0.0,0.0,0.0,0.0,0.0,0.0,0.0,0.0,0.0,0.0,0.0,0.0,0.0,0.0,0.0,0.0,0.0,0.0,0.0,0.0,0.0,0.0,0.0,0.0,0.0,0.0,0.0,0.0,0.0,0.0,0.0,0.0,0.0,0.0,0.0,0.0,0.0,0.0,0.0,0.0,0.0,0.0,0.0,0.0,0.0,0.0,0.0,0.0,0.0,0.0,0.0,0.0,0.0,0.0,0.0,0.0,0.0,0.0,0.0,0.0,0.0,0.0,-4.1753,-3.8906,0.0,0.0,0.0,0.0,0.0,0.0,0.0,0.0,0.0,0.0,0.0,0.0,0.0,0.0,0.0,0.0,0.0,0.0,0.0,0.0,0.0,0.0,0.0,-2.3516,-2.3945,-2.4375,-2.4023,0.0,0.0,0.0,0.0,0.0,0.0,0.0,0.0,0.0,-2.5859,-2.7539,-3.0117,-3.3125,-3.6484,-3.4726,-3.2969,-3.1289,0.0,0.0,0.0,0.0,0.0,0.0,0.0,0.0,0.0,0.0,0.0,0.0,0.0,0.0,0.0,0.0,0.0,0.0,0.0,0.0,0.0,0.0,0.0,0.0,0.0,0.0,0.0,0.0,0.0,0.0,0.0,0.0,0.0,0.0,0.0,0.0,0.0,0.0,0.0,0.0,0.0,0.0,0.0,0.0,0.0,0.0,0.0,0.0,0.0,0.0,0.0,0.0,0.0,0.0,0.0,0.0,0.0,0.0,0.0,0.0,0.0,0.0,0.0,0.0,0.0,0.0,0.0,0.0,0.0,0.0,-4.5166,-4.2393,0.0,0.0,0.0,0.0,0.0,0.0,0.0,0.0,0.0,0.0,0.0,0.0,0.0,0.0,0.0,0.0,0.0,0.0,0.0,0.0,0.0,-2.3906,-2.4766,-2.5,-2.543,-2.6289,-2.5586,-2.5156,-2.5312,-2.4414,0.0,0.0,0.0,0.0,-2.5273,-2.6172,-2.832,-3.1797,-3.4961,-3.8359,-4.1836,-4.1289,-3.9258,-3.5976,-3.4141,0.0,0.0,0.0,0.0,0.0,0.0,0.0,0.0,0.0,0.0,0.0,0.0,0.0,0.0,0.0,0.0,0.0,0.0,0.0,0.0,0.0,0.0,0.0,0.0,0.0,0.0,0.0,0.0,0.0,0.0,0.0,0.0,0.0,0.0,0.0,0.0,0.0,0.0,0.0,0.0,0.0,0.0,0.0,0.0,0.0,0.0,0.0,0.0,0.0,0.0,0.0,0.0,0.0,0.0,0.0,0.0,0.0,0.0,0.0,0.0,0.0,0.0,0.0,-5.0276,-5.0532,-5.0462,-4.9669,-4.9701,-5.0203,-4.8122,-4.5893,-4.3673,-4.3825,0.0,0.0,0.0,0.0,0.0,0.0,0.0,0.0,0.0,0.0,0.0,0.0,0.0,0.0,0.0,0.0,0.0,0.0,0.0,-2.5703,-2.6562,-2.7344,-2.8125,-2.9023,-2.8281,-2.8125,-2.8867,-2.7383,0.0,0.0,0.0,-2.8008,-2.8906,-2.9766,-3.1875,-3.5312,-4.0898,-4.3945,-4.4492,-4.5156,-4.3984,-4.1289,-3.8828,-3.7617,-3.7266,0.0,0.0,0.0,0.0,0.0,0.0,0.0,0.0,0.0,0.0,0.0,0.0,0.0,0.0,0.0,0.0,0.0,0.0,0.0,0.0,0.0,0.0,0.0,0.0,0.0,0.0,0.0,0.0,0.0,0.0,0.0,0.0,0.0,0.0,0.0,0.0,0.0,0.0,0.0,0.0,0.0,-3.7893,-3.8705,0.0,0.0,0.0,0.0,0.0,0.0,0.0,0.0,0.0,0.0,0.0,0.0,0.0,-4.7855,-4.8702,-4.969,-5.0274,-5.044,-5.044,-5.0457,-5.05,-5.032,-5.032,-5.044,-4.9996,0.0,-4.7177,-4.7952,0.0,0.0,0.0,0.0,0.0,0.0,0.0,0.0,0.0,0.0,0.0,0.0,0.0,0.0,0.0,0.0,0.0,0.0,0.0,0.0,0.0,-3.0664,-3.1719,-3.3086,-3.2851,-3.2187,-3.1133,-3.0351,0.0,0.0,-2.9492,-3.0156,-3.1055,-3.2344,-3.543,-4.0312,-4.3945,-4.6211,-4.7187,-4.7578,-4.7148,-4.6016,-4.4883,-4.25,-3.9258,-3.8125,0.0,0.0,0.0,0.0,0.0,0.0,0.0,0.0,0.0,0.0,0.0,0.0,0.0,0.0,0.0,0.0,0.0,0.0,0.0,0.0,0.0,0.0,0.0,0.0,0.0,0.0,0.0,0.0,0.0,0.0,0.0,0.0,0.0,0.0,0.0,0.0,0.0,0.0,0.0,-3.7713,-3.8695,-4.1912,-4.1506,-4.148,0.0,0.0,0.0,0.0,0.0,0.0,0.0,0.0,0.0,-4.9654,-4.9625,-4.9971,-5.0818,-5.1114,-5.1565,-5.2085,-5.2461,-5.267,-5.2702,-5.2564,-5.2261,-5.1836,-5.1744,-5.1047,-4.9927,-4.9824,-4.9137,-4.8028,0.0,0.0,0.0,0.0,-4.4895,-4.501,0.0,0.0,0.0,0.0,0.0,0.0,0.0,0.0,0.0,0.0,0.0,0.0,-3.2578,-3.3555,-3.4844,-3.6836,-3.6601,-3.5703,-3.4258,-3.375,-3.3125,-3.2266,-3.2422,-3.2969,-3.3828,-3.5703,-3.9101,-4.4023,-4.6445,-4.8281,-4.9531,-5.0,-4.9961,-4.957,-5.0,-4.7344,-4.25,-4.1836,-4.0391,-3.8516,0.0,0.0,0.0,0.0,0.0,0.0,0.0,0.0,0.0,0.0,0.0,0.0,0.0,0.0,0.0,0.0,0.0,0.0,0.0,0.0,0.0,0.0,0.0,0.0,0.0,0.0,0.0,0.0,0.0,0.0,0.0,0.0,0.0,0.0,0.0,0.0,0.0,-3.9699,-4.0931,-4.5596,-4.5383,-4.5454,0.0,0.0,0.0,0.0,0.0,0.0,-4.9048,-4.9471,-5.0587,-5.25,-5.1779,-5.1818,-5.2846,-5.2874,-5.3067,-5.3528,-5.4068,-5.4227,-5.4007,-5.3893,-5.3501,-5.29,-5.2841,-5.2473,-5.1861,-5.0971,-5.0512,-5.0245,-4.9633,-4.9633,-4.9824,-4.8334,-4.7646,-4.7723,0.0,0.0,0.0,0.0,0.0,0.0,0.0,0.0,0.0,0.0,0.0,-3.2656,-3.4375,-3.5351,-3.6914,-3.9492,-3.8203,-3.7891,-3.9414,-3.7969,-3.7734,-3.9297,-3.7851,-3.7383,-3.8242,-4.0742,-4.2969,-4.4922,-4.9101,-5.1172,-5.1328,-5.2969,-5.2851,-5.1367,-5.3008,-5.2226,-4.9531,-4.7031,-4.5898,-4.5508,-4.2187,0.0,0.0,0.0,0.0,0.0,0.0,0.0,0.0,0.0,0.0,0.0,0.0,0.0,0.0,0.0,0.0,0.0,0.0,0.0,0.0,0.0,0.0,0.0,0.0,0.0,0.0,0.0,0.0,0.0,0.0,0.0,0.0,0.0,0.0,0.0,0.0,0.0,0.0,-4.998,-4.9615,0.0,0.0,0.0,0.0,-5.152,-5.0943,-5.0856,-5.1654,-5.101,-5.1779,-5.428,-5.3549,-5.3857,-5.5472,-5.5457,-5.505,-5.4331,-5.4235,-5.3805,-5.2962,-5.2891,-5.2879,-5.2889,-5.2829,-5.2803,-5.2774,-5.1911,-5.1047,-5.0283,-5.0245,-4.9786,-4.9328,-5.0818,-5.0818,-5.0359,0.0,0.0,0.0,-2.5703,-2.6172,-2.6641,-2.6953,-2.7969,-2.8906,-2.9531,-3.1562,-3.3828,-3.6133,-3.8164,-4.0156,-4.2187,-4.2305,-4.2031,-4.1523,-4.1445,-4.1445,-4.1523,-4.0898,-4.125,-4.2695,-4.4141,-4.6289,-4.9101,-5.0664,-5.1953,-5.3086,-5.3711,-5.3672,-5.3086,-5.3711,-5.3828,-5.332,-5.0703,-4.8633,-4.6992,-4.5195,-4.207,0.0,0.0,0.0,0.0,0.0,0.0,0.0,0.0,0.0,0.0,0.0,0.0,0.0,0.0,0.0,0.0,0.0,0.0,0.0,0.0,0.0,0.0,0.0,0.0,0.0,0.0,0.0,0.0,0.0,0.0,0.0,0.0,0.0,0.0,0.0,0.0,0.0,-5.1271,-5.1241,0.0,-5.2702,-5.1548,-5.101,-5.1846,-5.2664,-5.328,-5.3549,-5.4857,-5.5742,-5.6099,-5.5241,-5.5088,-5.5703,-5.5143,-5.4748,-5.4489,-5.4946,-5.5001,-5.4693,-5.4626,-5.4614,-5.4588,-5.4031,-5.3766,-5.3666,-5.28,-5.2573,-5.2805,-5.3378,-5.3416,-5.3225,-5.3836,-5.3836,-5.3683,0.0,0.0,0.0,-2.5703,-2.6406,-2.7109,-2.7383,-2.8672,-3.0,-3.1172,-3.3281,-3.582,-3.8711,-4.1094,-4.3164,-4.4883,-4.5273,-4.5078,-4.4219,-4.3594,-4.3398,-4.3711,-4.3437,-4.4101,-4.5859,-4.6719,-4.8555,-5.1406,-5.2266,-5.332,-5.4453,-5.4726,-5.4883,-5.4883,-5.4883,-5.5039,-5.5195,-5.3437,-5.1406,-4.9219,-4.8086,-4.5391,-4.1875,0.0,0.0,0.0,0.0,0.0,0.0,0.0,0.0,0.0,0.0,0.0,0.0,0.0,0.0,0.0,0.0,0.0,0.0,0.0,0.0,0.0,0.0,0.0,0.0,0.0,0.0,0.0,0.0,0.0,0.0,0.0,0.0,0.0,0.0,-4.7688,-4.9327,-5.215,-5.2117,-5.2231,-5.3087,-5.2433,-5.2318,-5.3126,-5.4511,-5.5318,-5.5318,-5.7203,-5.8165,-5.7857,-5.728,-5.7126,-5.7434,-5.6896,-5.6626,-5.6626,-5.7143,-5.722,-5.6939,-5.686,-5.6671,-5.6391,-5.5794,-5.5477,-5.539,-5.4828,-5.4918,-5.5326,-5.4753,-5.4524,-5.4562,-5.4868,-5.4982,-5.5021,0.0,0.0,-2.5703,-2.5703,-2.6445,-2.7344,-2.8164,-2.9062,-3.0859,-3.4258,-3.6211,-3.8594,-4.2031,-4.3984,-4.5742,-4.7461,-4.6836,-4.6758,-4.7578,-4.4492,-4.3789,-4.6328,-4.5625,-4.5976,-4.7695,-4.8555,-4.9844,-5.1523,-5.4062,-5.5312,-5.5351,-5.6211,-5.6601,-5.6601,-5.6601,-5.6133,-5.5351,-5.5312,-5.4336,-5.2617,-5.0937,-4.8711,-4.6211,0.0,0.0,0.0,0.0,0.0,0.0,0.0,0.0,0.0,0.0,0.0,0.0,0.0,0.0,0.0,0.0,0.0,0.0,0.0,0.0,0.0,0.0,0.0,0.0,0.0,0.0,0.0,0.0,0.0,0.0,0.0,0.0,0.0,-4.8647,-4.8423,-4.9633,-5.2877,-5.2462,-5.2923,-5.5434,-5.4934,-5.478,-5.5626,-5.6522,-5.706,-5.7099,-5.7934,-5.8819,-5.955,-5.9588,-5.9973,-6.0819,-6.0819,-6.0819,-6.0781,-6.076,-6.0313,-5.9456,-5.9294,-5.8808,-5.803,-5.7965,-5.7938,-5.7886,-5.7886,-5.7886,-5.7581,-5.4218,-5.2919,-5.3034,-5.3836,-5.4142,-5.4256,-2.5703,-2.5703,-2.5703,-2.5703,-2.6953,-2.8008,-2.8242,-2.957,-3.1523,-3.4336,-3.6211,-3.8594,-4.2031,-4.4531,-4.6406,-4.75,-4.7969,-4.8281,-4.8516,-4.8242,-4.8398,-4.9101,-4.9453,-4.9844,-5.0351,-5.1211,-5.25,-5.4219,-5.4961,-5.5625,-5.625,-5.6484,-5.6601,-5.6601,-5.6601,-5.6484,-5.6211,-5.5586,-5.5039,-5.4414,-5.2695,-5.0859,-4.8945,0.0,0.0,0.0,0.0,0.0,0.0,0.0,0.0,0.0,0.0,0.0,0.0,0.0,0.0,0.0,0.0,0.0,0.0,0.0,0.0,0.0,0.0,0.0,0.0,0.0,0.0,0.0,0.0,0.0,0.0,0.0,-4.906,-5.1024,-5.1045,-5.1536,-5.2406,-5.3982,-5.3356,-5.3356,-5.4703,-5.4049,-5.4164,-5.5588,-5.7088,-5.8204,-5.8781,-6.0781,-6.1743,-6.1408,-6.1408,-6.1512,-6.1755,-6.1755,-6.1435,-6.0819,-6.1423,-6.1233,-6.0327,-6.0303,-5.9792,-5.8936,-5.8924,-5.8579,-5.7966,-5.7966,-5.7939,-5.7734,-5.6167,-5.5556,-5.5517,-5.5174,-5.5059,-5.5097,-2.5703,-2.5703,-2.5703,-2.5703,-2.7148,-2.8281,-2.8281,-2.9766,-3.2226,-3.5859,-3.6914,-3.9023,-4.3555,-4.5391,-4.6641,-4.7539,-4.8398,-4.8906,-4.8906,-4.9375,-4.9648,-4.9648,-5.0781,-5.1758,-5.2461,-5.3359,-5.4297,-5.5312,-5.5664,-5.6094,-5.6601,-5.6601,-5.6601,-5.6601,-5.6601,-5.6601,-5.6562,-5.6055,-5.5859,-5.5703,-5.4336,-5.3008,-5.1601,-4.9844,-4.8125,-4.6406,-4.4804,-4.3436,-4.2536,-4.3428,0.0,0.0,0.0,0.0,0.0,0.0,0.0,0.0,0.0,0.0,0.0,0.0,0.0,0.0,0.0,0.0,0.0,0.0,0.0,0.0,0.0,0.0,0.0,0.0,-5.1223,-5.2989,-5.2622,-5.2608,-5.3126,-5.4357,-5.3741,-5.3664,-5.4895,-5.4549,-5.5088,-5.7126,-5.8588,-5.9704,-6.055,-6.2666,-6.3628,-6.3166,-6.3524,-6.3678,-6.3678,-6.3678,-6.3447,-6.2935,-6.3435,-6.3231,-6.2336,-6.2311,-6.1812,-6.093,-6.0865,-6.0366,-5.9599,-5.9534,-5.9303,0.0,0.0,0.0,0.0,0.0,-5.6434,-5.6434,-2.5703,-2.5703,-2.5742,-2.582,-2.7226,-2.832,-2.8437,-2.9844,-3.2734,-3.793,-3.793,-3.9726,-4.5664,-4.6406,-4.6758,-4.7539,-4.8398,-4.8945,-4.9023,-4.9062,-4.9141,-4.9336,-5.0742,-5.2344,-5.4101,-5.4883,-5.5351,-5.5469,-5.6211,-5.6601,-5.6601,-5.6601,-5.6601,-5.6601,-5.6601,-5.6601,-5.6601,-5.6601,-5.6601,-5.6523,-5.5742,-5.4922,-5.3984,-5.2305,-5.0781,-4.918,-4.6834,-4.4881,-4.3551,-4.4401,0.0,0.0,0.0,0.0,0.0,0.0,0.0,0.0,0.0,0.0,0.0,0.0,0.0,0.0,0.0,0.0,0.0,0.0,0.0,0.0,0.0,0.0,0.0,0.0,-5.3838,-5.5264,-5.3716,-5.2771,-5.2761,-5.4318,-5.3895,-5.4087,-5.5703,-5.5934,-5.7011,-5.9473,-6.0435,-6.1358,-6.2332,-6.3897,0.0,0.0,0.0,-6.5897,-6.5897,-6.5897,-6.5897,-6.5897,-6.5897,-6.5474,-6.4731,-6.468,-6.4103,-6.3169,-6.3075,-6.2484,-6.1642,-6.152,-6.1072,-6.0231,-5.8651,-5.7963,-5.7886,-5.7886,-5.7886,-5.7886,-2.5859,-2.5703,-2.5937,-2.6641,-2.7617,-2.8555,-2.9258,-3.0234,-3.2734,-3.793,-3.8437,-4.0391,-4.5703,-4.6914,-4.7422,-4.7578,-4.8398,-4.9219,-4.9883,-4.9961,-5.0547,-5.1914,-5.2266,-5.3242,-5.5,-5.5195,-5.5625,-5.6367,-5.6523,-5.6601,-5.6601,-5.6601,-5.6601,-5.6601,-5.6601,-5.6601,-5.6601,-5.6601,-5.6601,-5.6601,-5.6406,-5.582,-5.4922,-5.3906,-5.3281,-5.2969,-5.2457,-5.1127,-4.9797,-5.0681,-4.8995,-4.6456,-4.5753,-4.4816,0.0,0.0,0.0,0.0,0.0,0.0,0.0,0.0,0.0,0.0,0.0,0.0,0.0,0.0,0.0,0.0,0.0,0.0,0.0,-5.3001,-5.365,-5.4375,-5.5251,-5.4684,-5.4244,-5.4454,-5.4934,-5.5626,-5.6637,-5.7396,-5.855,-6.0396,-6.1358,-6.2512,-6.4051,-6.5089,-6.5628,-6.5628,-6.582,-6.5897,-6.5897,-6.5897,-6.5897,-6.5897,-6.5897,0.0,-6.5576,-6.5538,-6.4653,-6.3129,-6.3102,-6.2245,-6.0827,-6.0761,-6.0578,-6.0307,-5.9262,-5.8459,-5.7886,-5.7886,-5.7886,-5.7886,-2.6445,-2.6016,-2.5977,-2.6836,-2.7734,-2.8594,-2.9453,-3.0351,-3.2422,-3.6758,-3.7305,-3.8945,-4.3281,-4.4883,-4.5664,-4.5664,-4.7656,-4.9258,-5.0156,-5.0586,-5.1562,-5.3281,-5.3359,-5.418,-5.5898,-5.5937,-5.6172,-5.6601,-5.6601,-5.6601,-5.6601,-5.6601,-5.6601,-5.6601,-5.6601,-5.6601,-5.6601,-5.6601,-5.6601,-5.6601,-5.6601,-5.6328,-5.5859,-5.4961,-5.4648,-5.4608,-5.4174,-5.3155,-5.2135,-5.2552,-5.1297,-4.9345,-4.8486,-4.7315,-4.5712,0.0,0.0,0.0,0.0,0.0,0.0,0.0,0.0,0.0,0.0,0.0,0.0,0.0,0.0,-5.0633,-5.239,0.0,-5.3251,-5.3628,-5.4352,-5.5119,-5.5797,-5.5935,-5.5938,-5.5876,-5.6162,-5.6868,-5.8127,-5.905,-6.0242,-6.1935,-6.2858,-6.3897,-6.5166,-6.6051,-6.6513,-6.6513,-6.6936,-6.7167,-6.7167,-6.7167,-6.7167,-6.7167,-6.7167,-6.7141,-6.7076,-6.6653,-6.5948,-6.5064,-6.464,-6.3744,-6.2478,-6.1529,-6.1089,-6.0905,-6.0064,-5.9491,-5.9147,-5.9147,-5.9147,-5.9147,-2.7305,-2.668,-2.6445,-2.7148,-2.7969,-2.8867,-2.9726,-3.0469,-3.207,-3.5312,-3.5742,-3.7148,-4.0781,-4.2422,-4.3359,-4.3672,-4.6562,-4.875,-4.9648,-5.0625,-5.1992,-5.3906,-5.3984,-5.4805,-5.6562,-5.6601,-5.6601,-5.6601,-5.6601,-5.6601,-5.6601,-5.6601,-5.6601,-5.6601,-5.6601,-5.6601,-5.6601,-5.6601,-5.6601,-5.6601,-5.6601,-5.6601,-5.6523,-5.582,-5.5546,-5.5466,-5.4759,-5.3855,-5.2949,-5.294,-5.2273,-5.1297,-5.0789,-4.9694,-4.8252,-4.6493,-4.5363,0.0,0.0,0.0,0.0,0.0,0.0,0.0,0.0,-4.9306,-4.9501,-5.278,-5.2741,-5.2624,-5.4225,-5.4255,-5.4087,-5.4247,-5.5346,-5.6175,-5.6211,-5.6969,-5.7564,-5.7719,-5.7756,-5.8292,-5.9627,-6.0666,-6.1935,-6.3435,-6.4359,-6.5243,-6.609,-6.6898,-6.7359,-6.7359,-6.8052,-6.8385,-6.8385,-6.8385,-6.8385,-6.8385,-6.8385,-6.8385,-6.8398,-6.7667,-6.7167,-6.6821,-6.5756,-6.491,-6.4116,-6.2653,-6.1969,-6.1784,-6.1134,-6.0867,-6.0828,-6.0523,-6.0422,-6.0422,-2.832,-2.8086,-2.8047,-2.8125,-2.8867,-2.9766,-3.0625,-3.0859,-3.1836,-3.4492,-3.4844,-3.6484,-4.0742,-4.1367,-4.207,-4.3555,-4.5469,-4.6953,-4.7812,-4.9414,-5.1445,-5.3906,-5.3984,-5.4805,-5.6562,-5.6601,-5.6601,-5.6601,-5.6601,-5.6601,-5.6601,-5.6601,-5.6601,-5.6601,-5.6601,-5.6601,-5.6601,-5.6601,-5.6601,-5.6601,-5.6601,-5.6601,-5.6601,-5.6484,-5.6445,-5.6442,-5.6321,-5.5261,-5.3847,-5.3838,-5.2741,-5.1531,-5.2195,-5.2275,-5.1804,-5.0046,-4.8915,-4.7705,-4.5246,-4.4699,-4.5595,-4.8757,-4.8876,-4.9345,0.0,-5.3329,-5.2897,-5.5591,-5.5474,-5.5162,-5.6138,-5.5588,-5.5186,-5.5883,-5.6225,-5.6606,-5.7293,-5.8052,-5.8828,-5.9597,-6.0075,-6.0435,-6.0627,-6.2089,-6.3435,-6.4397,-6.5243,-6.609,-6.6898,-6.7782,-6.8244,-6.8244,-6.8359,-6.8385,-6.8385,-6.8385,-6.8385,-6.8385,-6.8385,-6.8385,-6.8385,-6.8321,-6.7436,-6.5936,-6.4219,-6.3412,-6.323,-6.2971,-6.2811,-6.2739,-6.2662,-6.2624,-6.2433,-6.0943,-6.0422,-6.0422,-2.9141,-2.9062,-2.9062,-2.9062,-2.9375,-2.9883,-3.0781,-3.0898,-3.1445,-3.3047,-3.3633,-3.4648,-3.6445,-3.8476,-4.0391,-4.2109,-4.4726,-4.625,-4.6094,-4.8672,-5.0898,-5.2422,-5.2969,-5.4062,-5.582,-5.5859,-5.6094,-5.6601,-5.6601,-5.6601,-5.6601,-5.6601,-5.6601,-5.6601,-5.6601,-5.6601,-5.6601,-5.6601,-5.6601,-5.6601,-5.6601,-5.6289,-5.5859,-5.5859,-5.5859,-5.5857,-5.5855,-5.4717,0.0,-5.3844,-5.318,-5.2319,-5.3173,-5.3093,-5.2351,-5.0592,-4.985,-4.9423,-4.8876,-4.9072,-4.993,-5.1882,-5.1726,-5.1804,-5.4656,-5.4342,-5.4068,-5.6177,-5.6294,-5.6177,-5.6528,-5.617,-5.5939,-5.641,-5.6812,-5.7403,-5.8256,-5.8976,-5.9745,-6.0506,-6.1559,-6.2089,-6.1589,-6.3512,-6.4974,-6.532,-6.659,-6.7513,-6.7859,-6.8667,-6.9167,-6.9167,-6.9629,-6.986,-6.986,-6.986,-6.986,-6.986,-6.986,-6.986,-6.986,-6.936,-6.8205,-6.6551,-6.5756,-6.5101,-6.452,-6.3991,-6.3729,-6.3618,-6.3121,-6.2892,-6.2739,-6.1554,-6.1096,-6.1019,-2.9961,-2.9961,-2.9961,-2.9961,-2.9961,-3.0156,-3.0781,-3.0898,-3.1133,-3.1758,-3.2344,-3.2891,-3.3359,-3.6094,-3.8476,-4.0,-4.2812,-4.457,-4.4648,-4.7461,-4.9805,-5.1328,-5.1992,-5.3164,-5.4883,-5.4922,-5.5234,-5.5898,-5.6133,-5.625,-5.625,-5.6484,-5.6601,-5.6601,-5.6601,-5.6601,-5.6601,-5.6601,-5.6601,-5.6562,-5.6328,-5.5859,-5.5273,-5.5039,-5.4648,-5.4295,-5.4763,-5.3978,-5.2797,-5.3421,-5.2755,-5.1817,-5.2938,-5.2858,-5.2156,-5.1102,-5.0828,-5.0945,-5.1609,-5.2234,-5.2977,-5.4068,-5.3873,-5.3797,-5.5318,-5.5162,-5.5123,-5.6606,-5.6918,-5.6996,-5.727,-5.7157,-5.7102,-5.7263,-5.7899,-5.8605,-5.9225,-5.9888,-6.0592,-6.1324,-6.2734,-6.3512,-6.3178,-6.5013,-6.632,-6.6551,-6.7936,-6.8783,-6.8783,-6.959,-7.0014,-7.0014,-7.0591,-7.0898,-7.0898,-7.0898,-7.0898,-7.0898,-7.0898,-7.0898,-7.086,-7.0025,-6.8948,-6.7718,-6.7201,-6.6542,-6.5872,-6.4958,-6.4594,-6.4458,-6.3847,-6.3579,-6.3503,-6.2624,-6.2166,-6.1898,-3.0859,-3.0859,-3.0859,-3.0859,-3.0859,-3.0859,-3.0898,-3.0898,-3.0898,-3.0937,-3.0976,-3.1601,-3.3203,-3.5,-3.6445,-3.7344,-3.9062,-4.1133,-4.3594,-4.543,-4.7891,-5.125,-5.1445,-5.2266,-5.3984,-5.4023,-5.4062,-5.4062,-5.4922,-5.5351,-5.5351,-5.6211,-5.6601,-5.6601,-5.6601,-5.6601,-5.6601,-5.6601,-5.6601,-5.6523,-5.5664,-5.5312,-5.5195,-5.4375,-5.3007,-5.1756,-5.3435,-5.3472,-5.2686,-5.2719,-5.1037,-4.9239,-5.0947,-5.1453,-5.1609,-5.2392,-5.2626,-5.2626,-5.2665,-5.2665,-5.3095,-5.4812,-5.5242,-5.5474,-5.6372,-5.6528,-5.6762,-5.7582,-5.7777,-5.8011,-5.887,-5.9024,-5.9024,-5.9024,-5.9766,-6.0312,-6.0351,-6.0804,-6.1497,-6.233,-6.3706,-6.4897,-6.5705,-6.6551,-6.7398,-6.8282,-6.9167,-6.9667,-6.9667,-7.0437,-7.086,-7.086,-7.0898,-7.0898,-7.0898,-7.0898,-7.0898,-7.0898,-7.0898,-7.0898,-7.086,-6.9931,-6.9481,-6.9313,-6.7558,-6.6795,-6.6681,-6.5749,-6.5375,-6.5375,-6.5337,-6.5337,-6.5222,-6.442,-6.3579,-6.2853,-3.0898,-3.0898,-3.0898,-3.0898,-3.0898,-3.0898,-3.0898,-3.0898,-3.0898,-3.0898,-3.0898,0.0,0.0,0.0,0.0,0.0,-3.7344,-3.9414,-4.0273,-4.3516,-4.6211,-4.793,-4.9101,-5.0273,-5.1445,-5.1992,-5.2578,-5.3125,-5.4023,-5.4453,-5.4453,-5.4726,-5.4883,-5.4883,-5.4883,-5.4883,-5.4883,-5.4883,-5.4883,-5.4882,-5.5194,-5.4608,-5.3747,-5.5194,-5.3905,-5.1639,0.0,-5.1988,-4.9562,-5.1279,-5.0885,-5.0059,-5.2392,-5.3132,-5.3053,-5.2782,-5.3524,-5.4305,-5.3717,-5.442,-5.5435,-5.602,-5.6177,-5.6255,-5.6528,-5.6606,-5.6684,-5.6957,-5.6996,-5.727,-5.8089,-5.8246,-5.8441,-5.9024,-5.9846,-6.0588,-6.1174,-6.1734,-6.2616,-6.4054,-6.4451,-6.5397,-6.7359,-6.8321,-6.8936,-6.9244,-7.0014,-7.0514,-7.0514,-7.0744,-7.0898,-7.0898,-7.0898,-7.0898,-7.0898,-7.0898,-7.0898,-7.0898,-7.0898,-7.0898,-7.086,-7.0025,-6.9292,-6.8636,-6.7424,-6.6495,-6.5915,-6.5558,-6.5413,-6.5413,-6.5413,-6.5413,-6.5375,-6.5108,-6.4802,-6.442,-3.0898,-3.0898,-3.0898,-3.0898,-3.0898,0.0,0.0,0.0,0.0,0.0,0.0,0.0,0.0,0.0,0.0,0.0,0.0,-3.7148,-3.8086,-4.1016,-4.3516,-4.5273,-4.6758,-4.8047,-4.9258,-5.0078,-5.0937,-5.1797,-5.2383,-5.2773,-5.3086,-5.3398,-5.3359,-5.3086,-5.3398,-5.3359,-5.3086,-5.3086,-5.3437,-5.3944,-5.3279,-5.2887,-5.2729,-5.2849,-5.1522,0.0,-5.0858,-4.9293,-4.7101,-4.9951,-5.0377,-4.9942,-5.1613,-5.2585,-5.3132,-5.3522,-5.4422,-5.524,-5.5005,-5.5747,-5.6606,-5.6606,-5.6606,-5.6606,-5.6606,-5.6606,-5.6684,-5.6957,-5.6801,-5.6957,-5.805,-5.8246,-5.8558,-5.9417,-6.0315,-6.1174,-6.2032,-6.2357,-6.3153,-6.4908,-6.508,-6.5936,-6.8205,-6.9206,-6.9821,-7.0129,-7.0591,-7.0898,-7.0898,-7.0898,-7.0898,-7.0898,-7.0898,-7.0898,-7.0898,-7.0898,-7.0898,-7.0898,-7.0898,-7.0731,-7.0434,-6.983,-6.9097,-6.8182,-6.7252,-6.6489,-6.5909,-6.5558,-6.5413,-6.5413,-6.5413,-6.5413,-6.5413,-6.5413,-6.5413,-6.5261,-3.0898,-3.0898,-3.0898,0.0,0.0,0.0,0.0,0.0,0.0,0.0,0.0,0.0,0.0,0.0,0.0,0.0,0.0,0.0,-3.6992,-3.8008,-4.0039,-4.3359,-4.4336,-4.5586,-4.7226,-4.8125,-4.8984,-4.9805,-4.9883,-5.0312,-5.1094,-5.1953,-5.1914,-5.1172,-5.1992,-5.1914,-5.1133,-5.1133,-5.2109,-5.3396,-5.0154,-5.0271,-5.199,-4.7967,-4.6327,-4.6172,-4.6327,-4.5777,-4.55,-4.8736,-4.9397,-4.8886,-4.9036,-5.0243,-5.2156,-5.4654,-5.5357,-5.5552,-5.6372,-5.6606,-5.6606,-5.6606,-5.6606,-5.6606,-5.6645,-5.6645,-5.6879,-5.7621,-5.7192,-5.7153,-5.8753,-5.9063,-5.9378,-6.0276,-6.1174,-6.2071,-6.293,-6.2824,-6.3269,-6.5025,-6.5659,-6.6628,-6.8321,-6.9206,-7.0014,-7.0821,-7.0898,-7.0898,-7.0898,-7.0898,-7.0898,-7.0898,-7.0898,-7.0898,-7.0898,-7.0898,-7.0898,-7.0898,-7.0898,-7.0473,-6.9673,-6.9486,-6.8953,-6.8112,-6.7179,-6.6751,-6.6636,-6.5796,-6.5452,-6.5413,-6.5413,-6.5413,-6.5413,-6.5413,-6.5413,-6.5413,0.0,0.0,0.0,0.0,0.0,0.0,0.0,0.0,0.0,0.0,0.0,0.0,0.0,0.0,0.0,0.0,0.0,0.0,-3.5234,-3.6797,-3.8594,-4.0781,-4.1719,-4.2383,-4.2812,-4.3633,-4.418,-4.4375,-4.5703,-4.6445,-4.6641,-4.7539,-4.7812,-4.7617,-4.7812,-4.7812,-4.7617,-4.7617,-4.8242,-4.9178,-4.8279,-4.8317,-4.8861,-4.8395,-4.6638,-4.4605,-4.6558,-4.6281,-4.5143,-4.6001,-4.7832,-5.0127,-5.2078,-5.3873,-5.5396,-5.6059,-5.6255,-5.6333,-5.6528,-5.6606,-5.6606,-5.6606,-5.6606,-5.6762,-5.7348,-5.7504,-5.7543,-5.7777,-5.7621,-5.7621,-5.805,-5.8675,-5.9378,-6.0276,-6.1681,-6.2969,-6.3867,-6.4226,-6.5064,-6.6773,-6.6857,-6.7475,-6.9206,-6.959,-7.0014,-7.0821,-7.0898,-7.0898,-7.0898,-7.0898,-7.0898,-7.0898,-7.0898,-7.0898,-7.0898,-7.0898,-7.0898,-7.0898,-7.0898,-7.0769,-7.0525,-6.9788,-6.9333,-6.9029,-6.8097,-6.7294,-6.6674,-6.6445,-6.5987,-6.5413,-6.5413,-6.5413,-6.5413,-6.5413,-6.5413,-6.5413,0.0,0.0,0.0,0.0,0.0,0.0,0.0,0.0,0.0,0.0,0.0,0.0,0.0,0.0,0.0,0.0,0.0,0.0,0.0,-3.4531,-3.582,-3.7539,-3.918,-4.0234,-4.0625,-4.2187,-4.2969,-4.2969,-4.3945,-4.4414,-4.4453,-4.5312,-4.5312,-4.4609,-4.5391,-4.5312,-4.4609,-4.4609,-4.5546,0.0,0.0,-4.5425,-4.6359,-4.5347,-4.3746,-4.2183,-4.3274,-4.3736,-4.4159,-4.6035,-4.8216,-5.0631,-5.3639,-5.4966,-5.563,-5.6372,-5.6606,-5.6684,-5.7035,-5.6879,-5.6684,-5.7035,-5.7113,-5.7153,-5.7231,-5.7543,-5.7699,-5.7348,-5.6957,-5.6918,-5.766,-5.8207,-5.8948,-6.0198,-6.1876,-6.3282,-6.4182,-6.4777,-6.5569,-6.6889,-6.7089,-6.7628,-6.9013,-6.9475,-7.0014,-7.0821,-7.0898,-7.0898,-7.0898,-7.0898,-7.0898,-7.0898,-7.0898,-7.0898,-7.0898,-7.0898,-7.0898,-7.0898,-7.0898,-7.0692,-7.0305,-6.9735,-6.8997,-6.8233,-6.7646,-6.6934,-6.6139,-6.6139,-6.5834,-6.5413,-6.5413,-6.5413,-6.5413,-6.5413,-6.5413,-6.5413,0.0,0.0,0.0,0.0,0.0,0.0,0.0,0.0,0.0,-3.1523,-3.1172,-3.0898,-3.0898,-3.0898,0.0,0.0,0.0,0.0,0.0,0.0,-3.2891,-3.4453,-3.6719,-3.8242,-3.9023,-4.1328,-4.2461,-4.2344,-4.2695,-4.2773,-4.2695,-4.3828,-4.3437,-4.1953,-4.3594,-4.3437,-4.1914,-4.1914,-4.328,-4.5189,-4.1911,-4.2028,-4.3781,0.0,-3.9293,-3.9334,-3.8896,-4.0411,-4.3216,-4.7549,-4.954,-5.0865,-5.4225,-5.4849,-5.4654,-5.6177,-5.6606,-5.6762,-5.7582,-5.7192,-5.6801,-5.7582,-5.7816,-5.7621,-5.6918,-5.7387,-5.7699,-5.6801,-5.5981,-5.5864,-5.7231,-5.7465,-5.805,-5.9924,-6.1603,-6.3045,-6.4091,-6.4727,-6.5444,-6.6361,-6.6952,-6.7628,-6.8513,-6.936,-7.0167,-7.086,-7.0898,-7.0898,-7.0898,-7.0898,-7.0898,-7.0898,-7.0898,-7.0898,-7.0898,-7.0898,-7.0898,-7.0898,-7.0898,-7.0486,-6.9764,-6.9524,-6.8555,-6.7117,-6.6934,-6.6369,-6.5566,-6.5566,-6.549,-6.5413,-6.5413,-6.5413,-6.5413,-6.5413,-6.5413,-6.5413,0.0,0.0,0.0,0.0,0.0,0.0,0.0,0.0,0.0,0.0,-3.2656,-3.0898,0.0,0.0,0.0,0.0,0.0,0.0,0.0,0.0,0.0,-3.3594,-3.4062,-3.4375,-3.4531,-3.5664,-3.5898,-3.5195,-3.7344,-3.8047,-3.7383,-3.9687,-4.0234,-3.9297,-4.0312,-4.0234,-3.9258,-3.9258,-3.9922,-4.082,-3.8789,-3.8671,-3.9412,-3.6639,-3.605,0.0,-3.8888,-4.1265,-4.4114,-4.8445,-5.0436,-5.1648,-5.442,-5.5708,-5.6216,-5.6528,-5.6606,-5.6762,-5.7582,-5.7192,-5.6801,-5.7582,-5.7816,-5.7777,-5.7621,-5.8246,-5.8441,-5.6918,-5.6489,-5.6255,-5.5825,-5.5747,-5.6528,-5.8948,-6.0198,-6.1585,-6.3744,-6.4668,-6.5638,-6.7029,-6.7776,-6.8513,-6.9398,-7.0206,-7.0744,-7.0898,-7.0898,-7.0898,-7.0898,-7.0898,-7.0898,-7.0898,-7.0898,-7.0898,-7.0898,-7.0898,-7.0898,-7.0898,-7.0898,-7.0821,-7.064,-6.9769,-6.9236,-6.8914,-6.8036,-6.7209,-6.6483,-6.6483,-6.6063,-6.5413,-6.5413,-6.5413,-6.5413,-6.5413,-6.5413,-6.5413,0.0,0.0,0.0,0.0,0.0,0.0,0.0,-3.4766,-3.5273,-3.832,-3.6875,-3.5078,-3.3711,-3.2383,-3.1562,0.0,0.0,0.0,0.0,0.0,0.0,-3.207,-3.293,-3.3398,-3.3398,-3.4687,-3.4961,-3.4062,0.0,-3.6172,-3.5351,-3.707,-3.7422,-3.6601,-3.746,-3.7382,-3.6561,-3.6561,-3.7069,-3.7772,-3.6484,-3.621,-3.6482,-3.5661,-3.5656,0.0,-3.8415,-4.0524,-4.3021,-4.7352,-4.9969,-5.1921,-5.5005,-5.5942,-5.602,-5.6489,-5.6606,-5.6879,-5.8128,-5.7543,-5.6996,-5.8714,-5.8792,-5.8363,-5.7894,-5.8128,-5.7933,-5.6255,-5.5201,-5.4576,-5.4615,-5.4615,-5.5162,-5.684,-5.8987,-6.0968,-6.2574,-6.4148,-6.5693,-6.7316,-6.8015,-6.8744,-6.9629,-7.0437,-7.0898,-7.0898,-7.0898,-7.0898,-7.0898,-7.0898,-7.0898,-7.0898,-7.0898,-7.0898,-7.0898,-7.0898,-7.0898,-7.0898,-7.0898,-7.0667,-7.0244,-6.9711,-6.8935,-6.8047,-6.7561,-6.6835,-6.6025,-6.6025,-6.5796,-6.5413,-6.5413,-6.5413,-6.5413,-6.5413,-6.5413,-6.5413,0.0,0.0,0.0,0.0,0.0,0.0,0.0,-3.7461,-3.8164,-4.1797,-4.1367,-3.9922,-3.7851,-3.5039,-3.3086,0.0,0.0,0.0,0.0,0.0,0.0,0.0,0.0,0.0,-3.2851,0.0,0.0,-3.3906,-3.4922,0.0,0.0,0.0,0.0,0.0,-3.5349,-3.5232,-3.4411,-3.4411,-3.4801,0.0,0.0,-3.4256,-3.4526,0.0,0.0,0.0,0.0,-3.9548,-4.1498,-4.5831,-4.8798,-5.118,-5.4654,-5.5669,-5.5708,-5.6411,-5.6606,-5.6918,-5.8402,-5.7855,-5.7387,-5.9573,-5.9768,-5.9065,-5.7816,-5.766,-5.7113,-5.4693,-5.3093,-5.2234,-5.2585,-5.2936,-5.3522,-5.4576,-5.7465,-5.9998,-6.1194,-6.3192,-6.5281,-6.7338,-6.805,-6.8821,-6.986,-7.0514,-7.0898,-7.0898,-7.0898,-7.0898,-7.0898,-7.0898,-7.0898,-7.0898,-7.0898,-7.0898,-7.0898,-7.0898,-7.0898,-7.0898,-7.0898,-7.0552,-6.9937,-6.9662,-6.8761,-6.7424,-6.6993,-6.6383,-6.5673,-6.5505,-6.5413,-6.5413,-6.5413,-6.5413,-6.5413,-6.5413,-6.5413,-6.5413,0.0,0.0,0.0,0.0,0.0,0.0,0.0,-3.8633,-4.1055,-4.5273,-4.4375,-4.3242,-4.3008,-3.9297,-3.5898,0.0,0.0,0.0,0.0,0.0,0.0,0.0,0.0,0.0,0.0,0.0,0.0,-3.125,-3.2851,0.0,0.0,0.0,0.0,0.0,0.0,-3.4332,-3.3512,-3.3514,0.0,0.0,0.0,0.0,0.0,0.0,0.0,0.0,0.0,-3.9157,-4.06,-4.4933,-4.712,-4.8562,-5.196,-5.4615,-5.6489,-5.6567,-5.6606,-5.6801,-5.7699,-5.7816,-5.7933,-5.8948,-5.9768,-5.9651,-5.727,-5.727,-5.6411,-5.1568,-5.0436,-4.9889,-4.8445,-4.9421,-5.0982,-5.2665,-5.5201,-5.7757,-6.0023,-6.1732,-6.3898,-6.7057,-6.8022,-6.9052,-7.0629,-7.086,-7.0898,-7.0898,-7.0898,-7.0898,-7.0898,-7.0898,-7.0898,-7.0898,-7.0898,-7.0898,-7.0898,-7.0898,-7.0898,-7.0898,-7.0898,-7.086,-7.0744,-6.997,-6.9481,-6.9159,-6.7505,-6.6757,0.0,-6.5749,-6.5413,-6.5413,-6.5413,-6.5413,-6.5413,-6.5413,-6.5413,-6.5413,0.0,0.0,0.0,0.0,0.0,0.0,-3.8945,-3.9336,-4.1211,-4.7109,-4.5898,-4.4883,-4.5937,-4.3125,-3.9258,-3.4609,0.0,0.0,0.0,0.0,0.0,0.0,0.0,0.0,0.0,0.0,-3.1952,-3.1601,-3.2811,0.0,0.0,0.0,0.0,0.0,0.0,-3.3432,-3.2609,-3.2613,0.0,0.0,0.0,0.0,0.0,0.0,0.0,0.0,0.0,0.0,-3.9665,-4.345,-4.6027,-4.7938,-4.9774,-5.2507,-5.5123,-5.5669,-5.6177,-5.6762,-5.7582,-5.8168,-5.8792,-5.9651,-5.8987,-5.7855,-5.684,-5.481,-5.2429,-4.9852,-4.8094,-4.7001,-4.6846,-4.7781,-4.8992,-5.0165,-5.3444,-5.6677,-5.9186,-6.1325,-6.404,-6.7838,-6.8418,-6.9153,-7.0758,-7.0898,-7.0898,-7.0898,-7.0898,-7.0898,-7.0898,-7.0898,-7.0898,-7.0898,-7.0898,-7.0898,-7.0898,-7.0898,-7.0898,-7.0898,-7.0898,-7.0667,-7.0167,-6.9833,-6.933,-6.8712,-6.7467,-6.6883,0.0,-6.5847,-6.542,-6.5413,-6.5413,-6.5413,-6.5413,-6.5413,-6.5413,-6.5413,0.0,0.0,0.0,0.0,0.0,-3.5,-3.9726,-4.0039,-4.1758,-4.7383,-4.6523,-4.5859,-4.707,-4.4687,-4.1055,-3.6289,-3.4062,0.0,0.0,0.0,0.0,0.0,0.0,0.0,0.0,0.0,-3.2225,-3.2499,-3.3357,-3.3784,0.0,0.0,-3.4016,-3.3771,0.0,0.0,0.0,0.0,0.0,0.0,0.0,0.0,0.0,0.0,0.0,0.0,0.0,0.0,0.0,0.0,0.0,-4.6298,-4.7627,-4.9735,-5.2156,-5.4303,-5.5708,-5.6762,-5.7582,-5.8636,-5.9612,-6.0237,-5.8675,-5.684,-5.6333,-5.3051,-4.9655,-4.8017,-4.6027,-4.4816,-4.5402,-4.6456,-4.7549,-4.8642,-5.2234,-5.563,-5.7699,-6.0293,-6.3381,-6.7278,-6.8036,-6.8938,-7.0733,-7.0898,-7.0898,-7.0898,-7.0898,-7.0898,-7.0898,-7.0898,-7.0898,-7.0898,-7.0898,-7.0898,-7.0898,-7.0898,-7.0898,-7.0898,-7.0898,-7.0591,-7.0052,-7.0052,-6.9679,-6.9023,-6.7881,-6.7337,0.0,-6.5968,-6.545,-6.5413,-6.5413,-6.5413,-6.5413,-6.5413,-6.5413,-6.5413,0.0,0.0,0.0,0.0,0.0,0.0,-3.8086,-4.0742,-4.332,-4.5976,-4.6289,-4.6289,-4.6328,-4.3281,-4.0508,-3.8711,-3.6172,0.0,0.0,0.0,0.0,0.0,0.0,0.0,0.0,0.0,-3.2538,-3.3397,-3.4254,-3.468,-3.4715,-3.5573,-3.5495,-3.4676,0.0,0.0,0.0,0.0,0.0,0.0,0.0,0.0,0.0,0.0,0.0,0.0,0.0,0.0,0.0,0.0,0.0,0.0,0.0,-4.6339,-4.7393,-5.2507,-5.524,-5.6762,-5.7582,-5.9065,-6.0393,-6.0393,-5.9065,-5.7348,-5.5708,-5.2624,-4.9148,-4.5751,-4.4348,-4.3725,-4.3725,-4.5129,-4.6846,-4.8525,-5.1726,-5.4303,-5.5201,-5.8145,-6.1429,-6.4652,-6.6419,-6.8347,-7.0656,-7.0898,-7.0898,-7.0898,-7.0898,-7.0898,-7.0898,-7.0898,-7.0898,-7.0898,-7.0898,-7.0898,-7.0898,-7.0898,-7.0898,-7.0898,-7.0898,-7.0898,-7.0898,-7.0898,-7.0898,-7.0783,-6.9023,-6.8262,0.0,-6.6227,-6.545,-6.5413,-6.5413,-6.5413,-6.5413,-6.5413,-6.5413,-6.5413,0.0,0.0,0.0,0.0,0.0,0.0,0.0,-3.7109,-3.918,-4.2383,-4.2812,-4.3476,-4.5234,-4.2891,-4.0508,-3.875,-3.6211,0.0,0.0,0.0,0.0,0.0,0.0,0.0,0.0,-3.3906,-3.5193,-3.6089,-3.7533,-3.8235,-3.8269,-3.8545,-3.8196,-3.7337,-3.6753,-3.5974,0.0,0.0,0.0,0.0,0.0,0.0,-3.5606,0.0,0.0,0.0,0.0,0.0,0.0,0.0,0.0,0.0,0.0,0.0,0.0,-4.9813,-5.2507,-5.4888,-5.5123,-5.6879,-5.8363,-5.7192,-5.5162,-5.2975,-5.1258,-4.8213,-4.5246,-4.3567,-4.2513,-4.228,-4.3491,-4.5129,-4.7237,-5.0126,-5.2507,-5.4927,-5.7543,-5.9828,-6.2438,-6.5717,-6.8381,-7.0224,-7.0848,-7.0898,-7.0898,-7.0898,-7.0898,-7.0898,-7.0898,-7.0898,-7.0898,-7.0898,-7.0898,-7.0898,-7.0898,-7.0898,-7.0898,-7.0898,-7.0898,-7.0898,-7.0898,-7.0898,-7.0898,-7.0821,-6.9102,-6.8304,-6.8076,-6.6308,-6.5494,-6.5413,-6.5413,-6.5413,-6.5413,-6.5413,-6.5413,-6.5413,0.0,0.0,0.0,0.0,0.0,0.0,0.0,-3.5234,-3.6914,-3.9414,-4.0,-4.0937,-4.2851,-4.1055,-3.9141,-3.7734,-3.5547,0.0,0.0,0.0,0.0,0.0,0.0,0.0,-3.3125,-3.5039,-3.7069,-3.9215,-4.0621,-4.1674,-4.2335,-4.265,-4.1987,-4.0504,-3.9607,-3.8553,0.0,0.0,0.0,0.0,0.0,0.0,-3.6031,0.0,0.0,0.0,0.0,0.0,0.0,0.0,0.0,0.0,0.0,0.0,0.0,0.0,-4.9384,-5.1882,-5.3171,-5.4927,-5.6138,-5.5083,-5.2858,-5.0555,-4.9111,-4.6144,-4.345,-4.2591,-4.1693,-4.1734,-4.3801,-4.5636,-4.7783,-5.0906,-5.3405,-5.5708,-5.7855,-6.0195,-6.2906,-6.621,-6.9317,-7.1042,-7.0555,-7.076,-7.0898,-7.0898,-7.0898,-7.0898,-7.0898,-7.0898,-7.0898,-7.0898,-7.0898,-7.0898,-7.0898,-7.0898,-7.0898,-7.0898,-7.0898,-7.0898,-7.0898,-7.0898,-7.0744,-7.036,-6.9013,-6.8125,0.0,-6.6183,-6.5509,-6.5413,-6.5413,-6.5413,-6.5413,-6.5413,-6.5413,-6.5413,0.0,0.0,0.0,0.0,0.0,0.0,0.0,-3.4726,-3.6094,-3.6914,-3.7851,-3.8711,-3.9453,-3.8086,-3.6758,-3.5898,0.0,0.0,0.0,0.0,0.0,0.0,0.0,0.0,-3.4766,-3.5781,-3.832,-4.2499,-4.3475,-4.4841,-4.6519,-4.73,-4.6364,-4.3944,-4.2889,-4.1406,0.0,0.0,0.0,0.0,-3.6005,-3.6039,0.0,0.0,0.0,0.0,0.0,0.0,0.0,0.0,0.0,0.0,0.0,0.0,0.0,0.0,0.0,0.0,0.0,-5.2975,-5.3795,-5.3756,-5.1841,-4.9772,-4.8837,-4.6183,0.0,-4.2825,-4.2045,-4.224,-4.4738,-4.661,-4.864,-5.1258,-5.4459,-5.6684,-5.6918,-5.9922,-6.3218,-6.6327,-6.9373,-7.0877,-6.9993,-7.0516,-7.0898,-7.0898,-7.0898,-7.0898,-7.0898,-7.0898,-7.0898,-7.0898,-7.0898,-7.0898,-7.0898,-7.0898,-7.0898,-7.0898,-7.0898,-7.0898,-7.0898,-7.0821,-7.0398,-6.9667,-6.8706,-6.7779,-6.6849,-6.5953,-6.5509,-6.5429,-6.5413,-6.5413,-6.5413,-6.5413,-6.5413,-6.5413,0.0,0.0,0.0,0.0,0.0,0.0,0.0,0.0,0.0,0.0,-3.5664,-3.6445,-3.5976,-3.5547,-3.4961,0.0,0.0,0.0,0.0,0.0,0.0,0.0,0.0,0.0,-3.5664,-3.7851,-4.0429,-4.3397,-4.5584,-4.7225,-4.8279,-4.8513,-4.7929,-4.6562,-4.3672,-4.0742,0.0,0.0,0.0,0.0,-3.5999,-3.6385,0.0,0.0,0.0,0.0,-3.9663,-4.0249,0.0,0.0,0.0,0.0,0.0,0.0,0.0,0.0,-4.4777,-4.5791,-4.6573,0.0,-5.1843,-5.1178,-5.0048,-4.872,0.0,-4.6261,-4.5636,-4.5441,-4.5207,-4.548,-4.6766,-4.8367,-5.0592,-5.3834,-5.563,-5.7504,-6.0117,-6.3438,-6.6106,-6.7457,-6.9865,-7.1048,-7.0015,-7.0516,-7.0898,-7.0898,-7.0898,-7.0898,-7.0898,-7.0898,-7.0898,-7.0898,-7.0898,-7.0898,-7.0898,-7.0898,-7.0898,-7.0898,-7.0898,-7.0898,-7.0898,-7.0244,-6.9898,-6.9629,-6.8052,-6.723,-6.6918,-6.5967,-6.5552,-6.5465,-6.5444,-6.5413,-6.5413,-6.5413,-6.5413,-6.5413,0.0,0.0,0.0,0.0,0.0,0.0,0.0,0.0,0.0,0.0,0.0,-3.4492,-3.3633,-3.3555,0.0,0.0,0.0,0.0,0.0,0.0,0.0,0.0,0.0,-3.6172,-3.8359,-4.0937,-4.3711,-4.6679,-4.8476,-4.9999,-5.121,-5.082,-4.9961,-4.8633,-4.4726,-4.1523,0.0,0.0,0.0,0.0,-3.6583,0.0,0.0,0.0,0.0,0.0,-4.0249,-4.0717,0.0,-4.2007,-4.2045,-4.1849,0.0,0.0,0.0,0.0,-4.3723,-4.4582,-4.5363,-4.7588,-4.954,-4.907,-4.8876,-4.8486,-4.7198,-4.6885,-4.6768,-4.6378,-4.6612,-4.7276,-4.8523,-5.0789,-5.3249,-5.5513,-5.7933,-6.0588,-6.3633,-6.5312,-6.6823,-6.8418,-6.9996,-7.0744,-7.0089,-7.0645,-7.1005,-7.0912,-7.0898,-7.0898,-7.0898,-7.0898,-7.0898,-7.0898,-7.0898,-7.0898,-7.0898,-7.0898,-7.0898,-7.0898,-7.0898,-7.0706,-7.0321,-6.9898,-6.9244,-6.8436,-6.7513,-6.6859,-6.6408,-6.5827,-6.5566,-6.5494,-6.5444,-6.5413,-6.5413,-6.5413,-6.5413,-6.5413,0.0,0.0,0.0,0.0,0.0,0.0,0.0,0.0,0.0,0.0,0.0,0.0,0.0,0.0,0.0,0.0,0.0,0.0,0.0,0.0,0.0,0.0,0.0,-3.8789,-4.1523,-4.4101,-4.6953,-5.0195,-5.1406,-5.2812,-5.4375,-5.3633,-5.2187,-5.0039,-4.6055,-4.3203,0.0,0.0,0.0,-3.7493,-3.7482,0.0,0.0,0.0,0.0,0.0,0.0,0.0,0.0,-4.2942,-4.3021,-4.2513,-4.3255,0.0,0.0,0.0,0.0,0.0,-4.5987,-4.7315,-4.8094,-4.7703,-4.8408,-4.8993,-4.8172,-4.8172,-4.8213,-4.7588,-4.8057,-4.9031,-5.0592,-5.3405,-5.5825,-5.6801,-6.0471,-6.4023,-6.6444,-6.6444,-6.699,-6.9137,-7.0126,-7.0485,-7.0238,-7.0816,-7.1136,-7.094,-7.0925,-7.0898,-7.0898,-7.0898,-7.0898,-7.0898,-7.0898,-7.0898,-7.0898,-7.0898,-7.0898,-7.0898,-7.0783,-7.036,-6.9706,-6.9436,-6.8513,-6.709,-6.6974,0.0,-6.5807,-6.5688,-6.558,-6.5509,-6.542,-6.5429,-6.5413,-6.5413,-6.5413,-6.5413,0.0,0.0,0.0,0.0,0.0,0.0,0.0,0.0,0.0,0.0,0.0,0.0,0.0,0.0,0.0,0.0,0.0,0.0,0.0,0.0,0.0,-3.7656,-3.8203,-3.9922,-4.3242,-4.5859,-4.8203,-5.0195,-5.3203,-5.5234,-5.6211,-5.6055,-5.3945,-5.0117,-4.7969,-4.5234,-4.2105,-4.0424,-3.9208,-3.8418,-3.8417,0.0,0.0,0.0,0.0,0.0,0.0,0.0,0.0,-4.2279,-4.2513,-4.2435,-4.2552,0.0,0.0,0.0,0.0,0.0,-4.6729,-4.9072,-5.0282,-4.8133,-4.9306,-5.0789,-4.9928,-5.0867,-5.2078,-5.2702,-5.2936,-5.3327,-5.4303,-5.5552,-5.6918,-5.8478,-6.1759,-6.4728,-6.6561,-6.7966,-6.8942,-6.9333,-7.0633,-7.1182,-7.0419,-7.0861,-7.1203,-7.1158,-7.0992,-7.0898,-7.0898,-7.0898,-7.0898,-7.0898,-7.0898,-7.0898,-7.0898,-7.0898,-7.0898,-7.0898,-7.0206,-6.9821,-6.9667,-6.8167,-6.7359,-6.7051,0.0,-6.6013,-6.5885,-6.5807,-6.5688,-6.558,-6.5509,-6.5435,-6.5413,-6.5413,-6.5413,-6.5413,0.0,0.0,0.0,0.0,0.0,0.0,0.0,0.0,0.0,0.0,0.0,0.0,0.0,0.0,0.0,0.0,0.0,0.0,0.0,0.0,0.0,-4.043,-4.1094,-4.2734,-4.5742,-4.8789,-5.0976,-5.2266,-5.5234,-5.6914,-5.7265,-5.6328,-5.4101,-5.0742,-4.8555,-4.6171,-4.3669,-4.1479,-4.0068,-3.9319,0.0,0.0,0.0,0.0,0.0,0.0,0.0,0.0,0.0,0.0,-4.2708,-4.3021,-4.2552,0.0,0.0,0.0,0.0,0.0,-4.7001,-4.9462,-5.1102,-4.9969,-5.196,-5.4225,-5.4264,-5.4537,-5.4771,-5.4732,-5.5083,-5.5513,-5.5942,-5.7074,-5.8831,-6.1486,-6.3633,-6.5741,-6.7888,-6.8474,-6.9215,-7.0621,-7.1022,-7.1135,-7.1121,-7.128,-7.131,-7.1225,-7.1017,-7.0898,-7.0898,-7.0898,-7.0898,-7.0898,-7.0898,-7.0898,-7.0898,-7.0898,-7.0898,-7.0898,-7.009,-6.9436,-6.8936,-6.7667,-6.6859,-6.6436,0.0,-6.5897,-6.5897,-6.582,-6.5715,-6.5594,-6.5523,-6.545,-6.5413,-6.5413,-6.5413,-6.5413,0.0,0.0,0.0,0.0,0.0,0.0,0.0,0.0,0.0,0.0,0.0,0.0,0.0,0.0,0.0,0.0,0.0,0.0,0.0,0.0,-3.6016,-4.1875,-4.3125,-4.5312,-4.8711,-5.1758,-5.3945,-5.5234,-5.7422,-5.8398,-5.8164,-5.6836,-5.4726,-5.1914,-4.9766,-4.7617,-4.5466,-4.3042,-4.1436,-4.0491,0.0,0.0,0.0,0.0,0.0,0.0,0.0,0.0,0.0,0.0,0.0,0.0,0.0,0.0,0.0,-4.3957,-4.4621,-4.5753,-4.7899,-5.0048,-5.196,-5.2936,-5.4771,-5.6528,-5.7348,-5.7192,-5.6762,-5.6294,-5.6723,-5.7309,-5.7738,-5.9183,-6.133,-6.4377,-6.5468,-6.6795,-6.9333,-6.9137,-6.9528,-7.1753,-7.1402,-7.1224,-7.1707,-7.1628,-7.1473,-7.127,-7.1077,-7.0965,-7.0898,-7.0898,-7.0898,-7.0898,-7.0898,-7.0898,-7.0898,-7.0898,-7.0821,-7.0591,-6.9783,-6.8936,-6.809,-6.7205,-6.6474,-6.5897,-6.5897,-6.5897,-6.5897,-6.5846,-6.5728,-6.5622,-6.5552,-6.5465,-6.5413,-6.5413,-6.5413,-6.5413,0.0,0.0,0.0,0.0,0.0,0.0,0.0,0.0,0.0,0.0,0.0,0.0,0.0,0.0,0.0,0.0,0.0,0.0,0.0,0.0,-3.5742,-4.1055,-4.2851,-4.6406,-5.2226,-5.4141,-5.6328,-5.8828,-5.9765,-5.9844,-5.9101,-5.8984,-5.7109,-5.3789,-5.2773,-5.0507,-4.7298,-4.5501,-4.3737,-4.2201,-4.2201,0.0,0.0,0.0,0.0,0.0,0.0,0.0,0.0,0.0,0.0,0.0,0.0,0.0,-4.384,-4.466,-4.5519,-4.6924,-5.0243,-5.1843,-5.3561,-5.7543,-5.6957,-5.563,-5.6489,-5.7231,-5.7933,-5.8675,-5.8868,-5.9414,-6.1015,-6.2735,-6.4533,-6.6327,-6.6678,-6.7615,-7.023,-7.0543,-7.0894,-7.187,-7.1948,-7.1948,-7.1982,-7.1789,-7.1634,-7.1473,-7.128,-7.1089,-7.0912,-7.0898,-7.0898,-7.0898,-7.0898,-7.0898,-7.0898,-7.0898,-7.0514,-6.9783,-6.8898,-6.8052,-6.7167,-6.6359,-6.5936,-6.5897,-6.5897,-6.5897,-6.5897,-6.5897,-6.5846,-6.578,-6.5622,-6.5509,-6.5413,-6.5413,-6.5413,-6.5413,0.0,0.0,0.0,0.0,0.0,0.0,0.0,0.0,0.0,0.0,0.0,0.0,0.0,0.0,0.0,0.0,0.0,0.0,0.0,-3.4726,-3.6875,-4.1016,-4.332,-4.707,-5.2578,-5.4922,-5.7617,-6.0742,-6.1055,-6.0508,-5.9219,-5.9219,-5.7031,-5.3203,-5.3398,-5.1327,-4.7572,-4.6907,-4.5299,-4.3255,-4.3801,-4.3489,0.0,0.0,0.0,0.0,0.0,0.0,0.0,0.0,-4.3528,-4.3645,-4.345,-4.3918,-4.4582,-4.4893,-4.6378,-4.8486,-5.1414,-5.3639,-5.5786,-5.8441,-5.7972,-5.7387,-5.9339,-5.9183,-5.9026,-6.0429,-6.0703,-6.1093,-6.2306,-6.4336,-6.6056,-6.6717,-6.8161,-6.9567,-7.0543,-7.1167,-7.1636,-7.1948,-7.1987,-7.1987,-7.1987,-7.1803,-7.1647,-7.1497,-7.13,-7.1112,-7.0912,-7.0898,-7.0898,-7.0898,-7.0898,-7.0898,-7.0898,-7.0898,-7.0206,-6.8898,-6.8552,-6.7936,-6.7051,-6.6282,-6.5897,-6.5897,-6.5897,-6.5897,-6.5897,-6.5897,-6.5795,-6.5674,-6.5547,-6.542,-6.5413,-6.5413,-6.5413,-6.5413,0.0,0.0,0.0,0.0,0.0,0.0,0.0,0.0,0.0,0.0,0.0,0.0,0.0,0.0,0.0,0.0,0.0,0.0,-3.5039,-3.5937,-3.7969,-4.1445,-4.4023,-4.7812,-5.3008,-5.5664,-5.8555,-6.1719,-6.1406,-6.043,-5.8789,-5.8515,-5.664,-5.3516,-5.3867,-5.1913,-4.8392,-4.8391,-4.6589,-4.3801,-4.4933,-4.4543,0.0,0.0,0.0,0.0,0.0,0.0,0.0,0.0,-4.3411,-4.3645,-4.3333,-4.384,-4.4738,-4.5595,-4.7627,-5.0126,-5.2468,-5.4615,-5.6645,-5.8597,-5.805,-5.7816,-6.0976,-6.0547,-6.008,-6.211,-6.293,-6.3477,-6.4101,-6.6053,-6.7693,-6.8005,-6.9528,-7.0816,-7.1089,-7.1636,-7.1987,-7.1987,-7.1987,-7.1987,-7.1987,-7.1866,-7.1744,-7.1573,-7.1395,-7.1225,-7.1005,-7.0952,-7.0898,-7.0898,-7.0667,-7.0514,-7.0514,-7.0244,-6.9398,-6.7975,-6.7975,-6.7552,-6.6705,-6.6128,-6.5897,-6.5897,-6.5897,-6.5897,-6.5897,-6.5897,-6.5781,-6.5594,-6.5494,-6.5459,-6.5413,-6.5413,-6.5413,-6.5413,0.0,0.0,0.0,0.0,0.0,0.0,0.0,0.0,0.0,0.0,0.0,0.0,0.0,0.0,0.0,0.0,0.0,0.0,-3.5976,-3.6836,-3.8828,-4.2226,-4.4883,-4.8672,-5.3828,-5.6523,-5.9101,-6.1719,-6.082,-5.9531,-5.7851,-5.6992,-5.6133,-5.5234,-5.4375,-5.2538,-5.0071,-5.0109,-4.7642,-4.3881,-4.5636,-4.4777,-4.2552,0.0,0.0,0.0,0.0,0.0,0.0,0.0,-4.4426,-4.384,-4.4738,-4.4426,-4.4231,-4.6846,-4.9423,-5.1804,-5.3522,-5.4654,-5.5942,-5.848,-5.7231,-5.645,-6.0744,-6.1056,-6.1134,-6.3791,-6.5665,-6.6795,-6.6834,-6.8239,-6.9684,-7.0543,-7.0699,-7.1011,-7.187,-7.1987,-7.1987,-7.1987,-7.1987,-7.1987,-7.1987,-7.1987,-7.192,-7.1711,-7.1573,-7.1404,-7.1225,-7.1017,-7.0898,-7.0898,-7.0129,-6.9706,-6.9706,-6.8859,-6.7975,-6.709,-6.709,-6.6667,-6.5897,-6.5897,-6.5897,-6.5897,-6.5897,-6.5897,-6.5897,-6.5897,-6.5781,-6.5594,-6.5594,-6.5509,-6.5413,-6.5413,-6.5413,-6.5413,0.0,0.0,0.0,0.0,0.0,0.0,0.0,0.0,0.0,0.0,0.0,0.0,0.0,0.0,0.0,0.0,0.0,0.0,-3.6875,-3.7734,-3.9219,-4.1445,-4.4023,-4.668,-4.9453,-5.3203,-5.7305,-6.1719,-6.082,-5.9219,-5.6992,-5.7344,-5.6055,-5.3476,-5.3828,-5.2224,-4.929,-4.9871,-4.8691,-4.6534,-4.7627,-4.7237,-4.6025,0.0,0.0,0.0,0.0,0.0,0.0,0.0,0.0,0.0,-4.4932,-4.5675,-4.6495,-4.6651,-4.9774,-5.3327,-5.3873,-5.5942,-5.8285,-5.9651,-5.9456,-5.969,-6.2813,-6.1915,-6.1486,-6.5273,-6.6951,-6.7888,-6.8513,-6.9567,-7.0387,-7.066,-7.1206,-7.1714,-7.1948,-7.1987,-7.1987,-7.1987,-7.1987,-7.1987,-7.1987,-7.1987,-7.192,-7.1711,-7.1665,-7.1497,-7.1236,-7.1147,-7.1067,-7.0912,-7.0129,-6.9706,-6.9706,-6.8859,-6.7975,-6.709,-6.709,-6.6667,-6.5897,-6.5897,-6.5897,-6.5897,-6.5897,-6.5897,-6.5897,-6.5846,-6.5728,-6.5594,-6.5552,-6.5465,-6.5413,-6.5413,-6.5413,-6.5413,0.0,0.0,0.0,0.0,0.0,0.0,0.0,0.0,0.0,0.0,-3.6016,-3.6016,0.0,0.0,0.0,-3.6016,-3.6016,-3.6367,-3.7226,-3.8125,-3.9375,-4.1133,-4.332,-4.5625,-4.8047,-5.1992,-5.5508,-5.8633,-5.8828,-5.793,-5.6094,-5.6992,-5.6094,-5.375,-5.4296,-5.3005,-5.0422,-5.0923,-4.9783,-4.7703,-4.8837,-4.8408,-4.7042,0.0,0.0,0.0,0.0,0.0,0.0,0.0,0.0,0.0,-4.4776,-4.5712,-4.6805,-4.7978,-5.1258,-5.4732,-5.5747,-5.7777,-5.9846,-6.0705,-6.0939,-6.1603,-6.4219,-6.3828,-6.375,-6.6717,-6.8005,-6.8786,-6.9294,-7.0387,-7.1089,-7.0777,-7.1128,-7.1597,-7.1948,-7.1714,-7.1597,-7.1948,-7.1987,-7.1987,-7.1987,-7.1987,-7.1933,-7.1846,-7.1765,-7.1608,-7.1329,-7.0919,-7.0599,-7.045,-6.9283,-6.8667,-6.8667,-6.7821,-6.7128,-6.6628,-6.6628,-6.6359,-6.5897,-6.5897,-6.5897,-6.5897,-6.5897,-6.5897,-6.5897,-6.5859,-6.5742,-6.5594,-6.5552,-6.5479,-6.5413,-6.5413,-6.5413,-6.5413,0.0,0.0,0.0,0.0,0.0,0.0,0.0,0.0,0.0,-3.5898,-3.6016,-3.6016,0.0,0.0,0.0,-3.6016,-3.6016,-3.6367,-3.7226,-3.8047,-3.9297,-4.1133,-4.2891,-4.5391,-4.8711,-5.1836,-5.3516,-5.375,-5.5586,-5.6094,-5.5312,-5.6172,-5.6133,-5.5312,-5.5311,-5.4332,-5.2687,-5.2602,-5.0718,-4.782,-4.9382,-4.8564,-4.6495,-4.7198,0.0,0.0,0.0,0.0,0.0,0.0,0.0,0.0,-4.4502,-4.5127,-4.6025,-5.0008,-5.3132,-5.5825,-5.8128,-5.9573,-6.0588,-6.1369,-6.1757,-6.2618,-6.5234,-6.6405,-6.7185,-6.8044,-6.8903,-6.9528,-6.9606,-7.0933,-7.1753,-7.0933,-7.0816,-7.1089,-7.187,-7.1324,-7.1128,-7.1909,-7.1987,-7.1987,-7.1987,-7.1987,-7.1987,-7.1987,-7.1846,-7.162,-7.1381,-7.0467,-6.981,-6.9604,-6.7975,-6.709,-6.709,-6.6282,-6.5897,-6.5897,-6.5897,-6.5897,-6.5897,-6.5897,-6.5897,-6.5897,-6.5897,-6.5897,-6.5897,-6.5897,-6.5781,-6.5594,-6.5594,-6.5509,-6.5413,-6.5413,-6.5413,-6.5413,0.0,0.0,0.0,0.0,0.0,0.0,0.0,0.0,-3.5781,-3.5976,-3.6016,-3.6016,-3.6016,-3.6016,0.0,-3.6016,-3.6016,-3.6367,-3.7226,-3.7461,-3.8672,-4.1094,-4.3476,-4.5703,-4.7812,-4.8594,-4.9961,-5.1953,-5.4375,-5.5469,-5.5312,-5.6172,-5.6133,-5.5312,-5.531,-5.4329,-5.2648,-5.1971,-5.0479,-4.8564,-4.8915,-4.8369,-4.7276,-4.6768,-4.6456,0.0,0.0,0.0,0.0,0.0,0.0,0.0,-4.4893,-4.5947,-4.7352,-4.8915,-5.2195,-5.5435,-5.5981,-5.8207,-6.0432,-6.0627,-6.2228,-6.4414,-6.699,-6.7693,-6.8083,-6.8942,-6.9801,-7.0621,-7.1324,-7.1753,-7.1948,-7.1753,-7.1714,-7.1792,-7.1987,-7.1831,-7.1792,-7.1987,-7.1987,-7.1987,-7.1987,-7.1987,-7.1987,-7.1987,-7.1976,-7.1512,-7.0534,-7.0244,-6.9672,-6.8719,-6.7667,-6.709,-6.709,-6.6282,-6.5897,-6.5897,-6.5897,-6.5897,-6.5897,-6.5897,-6.5897,-6.5897,-6.5897,-6.5897,-6.5897,-6.5897,-6.5781,-6.5594,-6.5594,-6.5509,-6.5413,-6.5413,-6.5413,-6.5413,0.0,0.0,0.0,0.0,0.0,0.0,0.0,0.0,-3.6016,-3.6016,-3.6016,-3.6016,-3.6016,-3.6016,0.0,0.0,-3.6016,-3.6172,-3.6641,-3.668,-3.7656,-3.9844,-4.2031,-4.3398,-4.3906,-4.5937,-4.7422,-4.8359,-5.1367,-5.3047,-5.3476,-5.5195,-5.5273,-5.4101,-5.5347,-5.4952,-5.3273,-5.2829,-5.1648,-5.0048,-5.0048,-4.9306,-4.8135,-4.7666,-4.7002,-4.63,-4.63,0.0,0.0,0.0,0.0,0.0,0.0,0.0,-4.6845,-4.9306,-5.1648,-5.3951,-5.645,-5.8128,-5.9651,-6.1759,-6.3284,-6.4846,-6.699,-6.8122,-6.8864,-6.9294,-7.0074,-7.0855,-7.1285,-7.1714,-7.187,-7.1441,-7.1363,-7.1519,-7.1948,-7.1636,-7.1519,-7.1948,-7.1987,-7.1987,-7.1987,-7.1987,-7.1987,-7.1987,-7.1987,-7.1456,-7.0262,-6.978,-6.9033,-6.7834,-6.6974,-6.6513,-6.6513,-6.609,-6.5897,-6.5897,-6.5897,-6.5897,-6.5897,-6.5897,-6.5897,-6.5897,-6.5897,-6.5897,-6.5897,-6.5897,-6.5781,-6.5594,-6.5594,-6.5509,-6.5413,-6.5413,-6.5413,-6.5413,0.0,0.0,0.0,0.0,0.0,0.0,0.0,0.0,0.0,-3.6016,-3.6016,-3.6016,-3.6016,-3.6016,-3.6016,0.0,0.0,0.0,-3.6016,-3.6133,-3.6953,-3.8516,-4.0117,-4.0781,-4.0351,-4.3945,-4.5586,-4.5,-4.8359,-5.0312,-5.1016,-5.3789,-5.4297,-5.3047,-5.5503,-5.5812,-5.4445,-5.4117,-5.3093,-5.1609,-5.1297,-5.0321,-4.9032,-4.9032,-4.8252,-4.7159,-4.6846,-4.5714,-4.4426,-4.4855,0.0,0.0,0.0,0.0,-4.5712,-4.9267,-5.0828,-5.2468,-5.7348,-5.8675,-5.9573,-6.3164,-6.4182,-6.4728,-6.6405,-6.8161,-6.945,-6.9606,-7.0309,-7.0933,-7.0933,-7.1519,-7.1753,-7.105,-7.0933,-7.1167,-7.1909,-7.1363,-7.1206,-7.1909,-7.1987,-7.1987,-7.1987,-7.1987,-7.1987,-7.1987,-7.1987,-7.1417,-7.0029,-6.9282,-6.8296,-6.6962,-6.6244,-6.5897,-6.5897,-6.5897,-6.5897,-6.5897,-6.5897,-6.5897,-6.5897,-6.5897,-6.5897,-6.5897,-6.5897,-6.5897,-6.5897,-6.5897,-6.5781,-6.5594,-6.5594,-6.5509,-6.5413,-6.5413,-6.5413,-6.5413,0.0,0.0,0.0,0.0,0.0,0.0,0.0,0.0,0.0,0.0,-3.6016,-3.6016,-3.6016,-3.6016,-3.6016,-3.6016,-3.6016,-3.6016,-3.6016,0.0,0.0,-3.8555,-3.9531,-4.0703,-4.2031,-4.3359,-4.4375,-4.5,-4.7734,-4.9141,-4.9297,-5.2617,-5.4062,-5.3906,-5.5776,-5.6476,-5.6162,-5.4623,-5.3444,-5.2392,-5.0867,-5.0124,-4.9928,-4.9928,-5.0243,-5.0516,-4.8993,-4.7861,-4.6884,-4.5478,-4.427,0.0,0.0,0.0,-4.5127,-4.5673,-4.8486,-5.2195,-5.5942,-5.9573,-6.2462,-6.3047,-6.375,-6.4728,-6.6405,-6.8161,-6.9606,-7.0387,-7.1206,-7.1831,-7.1831,-7.1909,-7.1948,-7.1831,-7.1831,-7.187,-7.1987,-7.1909,-7.187,-7.1987,-7.1987,-7.1987,-7.1987,-7.1987,-7.1987,-7.1987,-7.1987,-7.1144,-6.9181,-6.8972,-6.8025,-6.6115,-6.5974,-6.5897,-6.5897,-6.5897,-6.5897,-6.5897,-6.5897,-6.5897,-6.5897,-6.5897,-6.5897,-6.5897,-6.5897,-6.5897,-6.5897,-6.5897,-6.5781,-6.5594,-6.5594,-6.5509,-6.5413,-6.5413,-6.5413,-6.5413,0.0,0.0,0.0,0.0,0.0,0.0,0.0,0.0,0.0,0.0,0.0,-3.6016,-3.6016,-3.6016,-3.6016,-3.6016,-3.6016,-3.6016,-3.6016,-3.6836,-3.7461,-3.7851,-3.8242,-3.9023,-4.0234,-4.1601,-4.25,-4.2851,-4.5937,-4.793,-4.8945,-5.1914,-5.3281,-5.332,-5.4058,-5.4406,-5.4405,-5.4115,-5.3487,-5.2672,-5.2392,-5.2275,-5.2241,-5.1728,-5.1804,-5.196,-5.0711,-4.9111,-4.7469,-4.6727,-4.5246,-4.3723,-4.3801,0.0,0.0,0.0,-4.7432,-4.9618,-5.4537,-5.8285,-6.1291,-6.3243,-6.3633,-6.4023,-6.5741,-6.7068,-6.8318,-6.9684,-7.066,-7.1402,-7.1909,-7.1987,-7.1987,-7.1987,-7.1987,-7.1987,-7.1987,-7.1987,-7.1987,-7.1987,-7.1987,-7.1987,-7.1987,-7.1987,-7.1987,-7.1987,-7.1558,-7.0618,-6.9143,-6.8511,-6.7489,-6.6047,-6.5933,-6.5897,-6.5897,-6.5897,-6.5897,-6.5897,-6.5897,-6.5897,-6.5897,-6.5897,-6.5897,-6.5897,-6.5897,-6.5897,-6.5897,-6.5897,-6.5846,-6.5701,-6.5622,-6.5537,-6.5435,-6.539,-6.5413,-6.5413,0.0,0.0,0.0,0.0,0.0,0.0,0.0,0.0,0.0,0.0,0.0,-3.6016,-3.6016,0.0,0.0,0.0,-3.6328,-3.6328,-3.6328,-3.6719,-3.6875,-3.6641,-3.6641,-3.7148,-3.8242,-3.9766,-4.0859,-4.1523,-4.4492,-4.7109,-4.9258,-5.1172,-5.2539,-5.3359,-5.3355,-5.3351,-5.3389,-5.3806,-5.3881,-5.3767,-5.4387,-5.4779,-5.4939,-5.4736,-5.4656,-5.4498,-5.3405,-5.1531,-4.9462,-4.8796,-4.6846,-4.4738,-4.4933,-4.4855,0.0,0.0,0.0,-4.833,-5.3288,-5.6528,-5.9183,-6.2228,-6.2657,-6.2813,-6.4531,-6.5897,-6.7185,-6.8474,-6.9606,-7.0621,-7.1519,-7.1831,-7.1987,-7.1987,-7.1987,-7.1987,-7.1987,-7.1987,-7.1987,-7.1987,-7.1987,-7.1987,-7.1987,-7.1987,-7.1987,-7.1987,-7.1206,-7.0242,-6.926,-6.8196,-6.7135,-6.6118,-6.5955,-6.5897,-6.5897,-6.5897,-6.5897,-6.5897,-6.5897,-6.5897,-6.5897,-6.5897,-6.5897,-6.5897,-6.5897,-6.5897,-6.5897,-6.5897,-6.5859,-6.578,-6.5674,-6.5566,-6.5494,-6.5405,-6.5413,-6.5413,0.0,0.0,0.0,0.0,0.0,0.0,0.0,0.0,0.0,0.0,0.0,-3.6016,-3.6016,-3.6016,-3.6328,-3.7148,-3.7226,-3.7226,-3.7226,-3.6484,-3.5703,-3.4883,-3.4844,0.0,-3.7344,-3.8281,-3.9922,-4.2344,-4.418,-4.6797,-5.0156,-5.0273,-5.207,-5.5156,-5.5153,-5.5148,-5.5108,-5.432,-5.4937,-5.6413,-5.646,-5.6928,-5.7779,-5.9378,-6.0002,-5.9768,-5.8089,-5.6372,-5.4537,-5.2038,-4.9501,-4.7118,-4.5517,-4.4426,-4.3606,0.0,0.0,0.0,-5.2312,-5.4732,-5.7153,-5.8948,-5.9963,-6.0978,-6.2735,-6.5038,-6.6834,-6.6912,-6.8279,-6.9723,-7.0621,-7.1441,-7.1987,-7.1987,-7.1987,-7.1987,-7.1987,-7.1987,-7.1987,-7.1987,-7.1987,-7.1987,-7.1987,-7.1987,-7.1987,-7.1987,-7.1206,-7.0242,-6.926,-6.8196,-6.7135,-6.6118,-6.5955,-6.5897,-6.5897,-6.5897,-6.5897,-6.5897,-6.5897,-6.5897,-6.5897,-6.5897,-6.5897,-6.5897,-6.5897,-6.5897,-6.5897,-6.5897,-6.5859,-6.578,-6.5674,-6.5566,-6.5494,-6.5405,-6.5413,-6.5413,0.0,0.0,0.0,0.0,0.0,0.0,0.0,0.0,0.0,0.0,0.0,0.0,0.0,-3.7187,-3.7187,-3.8047,-3.8633,-3.8476,-3.7383,-3.7539,-3.6797,-3.4805,-3.5234,-3.582,-3.6445,-3.7851,-3.9336,-4.0781,-4.25,-4.4844,-4.7734,-4.8828,-5.0586,-5.2812,-5.3397,-5.3629,-5.3668,-5.3898,-5.4362,-5.5062,-5.6701,-5.7869,-5.8683,-5.9341,-5.9924,-6.0237,-5.9065,-5.7192,-5.5083,-5.3561,-5.1336,-4.8913,-4.7196,-4.6454,-4.5909,-4.4504,-4.5753,-4.8135,-5.0438,-5.2546,-5.4771,-5.7582,-5.8909,-6.0002,-6.1759,-6.3282,-6.4804,-6.6444,-6.7303,-6.8357,-7.0348,-7.0972,-7.1363,-7.1909,-7.1987,-7.1987,-7.1987,-7.1987,-7.1987,-7.1987,-7.1987,-7.1987,-7.1987,-7.1987,-7.1987,-7.1987,-7.066,-6.9715,-6.9341,-6.7696,-6.6602,-6.6217,-6.5997,-6.5897,-6.5897,-6.5897,-6.5897,-6.5897,-6.5897,-6.5897,-6.5897,-6.5897,-6.5897,-6.5897,-6.5897,-6.5897,-6.5897,-6.5897,-6.5885,-6.5846,-6.5688,-6.558,-6.5552,-6.542,-6.5413,-6.5413,0.0,0.0,0.0,0.0,0.0,0.0,0.0,0.0,0.0,-3.9297,0.0,0.0,0.0,0.0,-3.8355,-3.8934,-3.9529,-3.9414,-3.82,-3.8164,-3.7266,-3.5234,-3.5391,-3.5703,-3.5976,-3.7148,-3.8594,-4.0351,-4.1172,-4.3203,-4.6328,-4.75,-4.9101,-5.1016,-5.1875,-5.2421,-5.2732,-5.3316,-5.3899,-5.4676,-5.7211,-5.8574,-5.923,-6.0395,-6.0822,-6.0783,-6.051,-5.8948,-5.6918,-5.6333,-5.4615,-5.239,-5.0711,-4.9189,-4.7666,-4.5948,-4.5636,-4.6378,-4.864,-5.0282,-5.2234,-5.5669,-5.7582,-5.9104,-6.0861,-6.2149,-6.3477,-6.5194,-6.5741,-6.6678,-6.8981,-6.9372,-6.9957,-7.1714,-7.1987,-7.1987,-7.1987,-7.1987,-7.1987,-7.1987,-7.1987,-7.1987,-7.1987,-7.1987,-7.1987,-7.1987,-7.0387,-6.9411,-6.9411,-6.7481,-6.6344,-6.6226,-6.6008,-6.5897,-6.5897,-6.5897,-6.5897,-6.5897,-6.5897,-6.5897,-6.5897,-6.5897,-6.5897,-6.5897,-6.5897,-6.5897,-6.5897,-6.5897,-6.5897,-6.5885,-6.5701,-6.5594,-6.558,-6.5435,-6.5413,-6.5413,0.0,0.0,0.0,0.0,0.0,0.0,0.0,0.0,-4.0273,-4.1172,0.0,0.0,0.0,0.0,0.0,-3.9783,-3.9904,-3.9919,-3.978,-3.8277,-3.6953,-3.6055,-3.5195,-3.5156,-3.5937,-3.6055,-3.7734,-4.1133,-4.0312,-4.207,-4.6133,-4.6172,-4.7578,-5.0078,-5.0898,-5.1757,-5.2615,-5.2733,-5.3744,-5.5489,-5.8073,-5.9083,-5.9456,-6.293,-6.3204,-6.1835,-6.2735,-6.1915,-6.0432,-6.0393,-5.9222,-5.7465,-5.5747,-5.2273,-4.8486,-4.6807,-4.5675,-4.5322,0.0,0.0,0.0,-5.3053,-5.5825,-5.8168,-5.9963,-6.172,-6.2969,-6.3008,-6.3711,-6.4846,-6.6483,-6.6795,-6.7927,-7.1363,-7.1909,-7.1948,-7.1948,-7.1948,-7.1987,-7.1987,-7.1987,-7.1987,-7.1987,-7.1987,-7.1987,-7.1987,-7.0426,-6.9411,-6.9411,-6.7621,-6.6432,-6.6118,-6.5955,-6.5897,-6.5897,-6.5897,-6.5897,-6.5897,-6.5897,-6.5897,-6.5897,-6.5897,-6.5897,-6.5897,-6.5897,-6.5897,-6.5897,-6.5897,-6.5897,-6.5885,-6.5663,-6.5608,-6.558,-6.5474,-6.5375,-6.5413,0.0,0.0,0.0,0.0,0.0,-3.8398,-3.9883,-4.0547,-4.1367,0.0,0.0,0.0,-4.2526,-4.2527,-4.2214,-4.1575,-4.1527,-4.1033,-3.9806,-3.9345,-3.8151,-3.6001,-3.6365,-3.6094,-3.5078,-3.6914,-3.8359,-3.9336,-4.0351,-4.1445,-4.2617,-4.3203,-4.4531,-4.6484,-4.7344,-4.8906,-5.1054,-5.3515,-5.4491,-5.4643,-5.7805,-5.9087,-5.9349,-6.1566,-6.2501,-6.2735,-6.3633,-6.2813,-6.1252,-6.0627,-5.8831,-5.6528,-5.4147,-5.1297,-4.8603,-4.7549,-4.5714,-4.4309,-4.5402,0.0,0.0,0.0,0.0,0.0,-5.8792,-6.0822,-6.2228,-6.2852,-6.4179,-6.5546,-6.66,-6.6795,-6.7537,-6.9762,-7.0113,-7.0348,-7.0972,-7.105,-7.1285,-7.1948,-7.1987,-7.1987,-7.1987,-7.1987,-7.1987,0.0,-7.0972,-7.0074,-6.9411,-6.7475,-6.6283,-6.6118,-6.5955,-6.5897,-6.5897,-6.5897,-6.5897,-6.5897,-6.5897,-6.5897,-6.5897,-6.5897,-6.5897,-6.5897,-6.5897,-6.5897,-6.5897,-6.5897,-6.5897,-6.5897,-6.5793,-6.5715,-6.5753,-6.558,-6.5509,-6.5465,0.0,0.0,-3.6758,-3.75,-3.9062,-4.0781,-4.2539,-4.3396,-4.429,0.0,0.0,0.0,-4.5102,-4.5075,-4.4573,-4.3301,-4.3245,-4.2567,-4.0821,-4.0424,-3.9438,-3.7563,-3.7327,-3.6792,-3.5776,-3.7265,-3.8242,-3.8594,-3.9961,-4.0859,-4.1211,-4.2031,-4.3125,-4.4531,-4.6133,-4.7891,-4.9922,-5.4062,-5.5117,-5.4255,-5.7376,-5.858,-5.8845,-6.1295,-6.211,-6.211,-6.3713,-6.3399,-6.2228,-6.2071,-6.0315,-5.7933,-5.6372,-5.3639,-5.0711,-4.954,-4.7081,-4.4816,-4.4972,-4.5636,-4.6885,-4.9228,0.0,0.0,-5.7933,-6.0198,-6.2032,-6.3282,-6.4336,-6.5194,-6.5663,-6.5743,-6.6095,-6.7107,-6.7576,-6.8357,-6.9957,-7.0152,-7.0465,-7.1363,-7.1128,-7.1206,-7.1948,-7.1675,-7.1597,-7.1987,-7.1206,-7.0152,-6.8903,-6.7214,-6.6267,-6.6194,-6.6013,-6.5897,-6.5897,-6.5897,-6.5897,-6.5897,-6.5897,-6.5897,-6.5897,-6.5897,-6.5897,-6.5897,-6.5897,-6.5897,-6.5897,-6.5897,-6.5897,-6.5897,-6.582,-6.5793,-6.578,-6.566,-6.5552,-6.5494,0.0,0.0,-3.8164,-3.9999,-4.1678,-4.3396,-4.5115,-4.6817,-4.8159,0.0,-4.8929,-4.8578,-4.7732,-4.7694,-4.7014,-4.5215,-4.5143,-4.4421,-4.2519,-4.1739,-4.088,-3.9905,-3.8436,-3.7558,-3.7361,-3.7498,-3.793,-3.8594,-3.957,-4.0351,-4.0937,-4.1836,-4.2734,-4.3672,-4.6172,-4.7969,-4.9375,-5.4141,-5.5429,-5.4528,-5.7219,-5.815,-5.83,-6.1803,-6.2228,-6.1291,-6.3713,-6.4023,-6.336,-6.375,-6.2462,-6.0627,-6.0237,-5.7543,-5.4186,-5.2156,-4.9267,-4.6495,-4.5441,-4.5636,-4.6378,-4.7352,-5.1102,0.0,-5.7074,-5.9417,-6.1642,-6.336,-6.387,-6.4026,-6.4026,-6.3948,-6.3948,-6.426,-6.4882,-6.6209,-6.8747,-6.9098,-6.9489,-7.0426,-6.9801,-6.9918,-7.1558,-7.1011,-7.0894,-7.1636,-7.0972,-6.9879,-6.8318,-6.7091,-6.6392,-6.6314,-6.6041,-6.5897,-6.5897,-6.5897,-6.5897,-6.5897,-6.5897,-6.5897,-6.5897,-6.5897,-6.5897,-6.5897,-6.5897,-6.5897,-6.5897,-6.5897,-6.5897,-6.5897,-6.5833,-6.5807,-6.5793,-6.5688,-6.558,-6.5509,-3.9062,-3.9369,-4.0057,-4.2476,-4.42,-4.5881,-4.7639,-4.9383,-5.0544,-5.07,-5.0666,-5.0553,-5.043,-5.0384,-4.9673,-4.8059,-4.7933,-4.6888,-4.4416,-4.42,-4.3131,-4.0902,-4.0578,-3.9765,-3.8358,-3.9023,-3.9141,-3.8594,-4.0195,-4.0312,-3.9141,-4.0703,-4.1875,-4.2734,-4.4648,-4.7148,-5.0117,-5.2461,-5.4492,-5.6364,-5.9641,-6.0107,-5.9245,-6.2705,-6.4258,-6.4726,-6.5897,-6.578,-6.4687,-6.2032,-6.1759,-6.1993,-5.9183,-5.8207,-5.7348,-5.3561,-5.0984,-4.8874,-4.6651,-4.5675,-4.5636,-4.7196,-4.8837,0.0,-5.4927,-5.6723,-5.8089,-5.9768,-6.1213,-6.2228,-6.2228,-6.1642,-6.1837,-6.3948,-6.3867,-6.4414,-6.6951,-6.7303,-6.7888,-6.9489,-6.8864,-6.8747,-6.9801,-6.9762,-6.9723,-6.9879,-6.9762,-6.9528,-6.9176,-6.7993,-6.7021,-6.6314,-6.6041,-6.5897,-6.5897,-6.5897,-6.5897,-6.5897,-6.5897,-6.5897,-6.5897,-6.5897,-6.5897,-6.5897,-6.5897,-6.5897,-6.5897,-6.5897,-6.5897,-6.5897,-6.5885,-6.5885,-6.5872,-6.5859,-6.5742,-6.558,-4.005,-4.0383,-4.1415,-4.4844,-4.6839,-4.853,-5.0283,-5.196,-5.2902,-5.2435,-5.2747,-5.2828,-5.24,-5.2723,-5.2302,-5.0598,-5.0442,-4.9543,-4.7395,-4.648,-4.5319,-4.3601,-4.2002,-4.0736,-3.9877,-3.9882,-3.9687,-3.9258,-4.0547,-4.0742,-3.9922,-4.1211,-4.3164,-4.5664,-4.6562,-4.9336,-5.3476,-5.4765,-5.6289,-5.8085,-6.0189,-6.0808,-6.0725,-6.3796,-6.496,-6.5116,-6.6366,-6.6288,-6.5312,-6.3594,-6.2696,-6.211,-6.0822,-5.9807,-5.8519,-5.5513,-5.3405,-5.1295,-4.7861,-4.63,-4.5753,-4.6181,-4.7276,0.0,0.0,-5.4381,-5.5669,-5.6957,-5.9261,-6.0666,-5.9378,-5.9846,-6.0549,-6.0978,-6.1798,-6.2501,-6.2891,-6.4843,-6.6834,-6.8552,-6.7224,-6.7068,-6.9176,-6.8239,-6.7849,-6.8708,-6.8747,-6.8552,-6.8122,-6.737,-6.6586,-6.5724,-6.581,-6.5897,-6.5897,-6.5897,-6.5897,-6.5897,-6.5897,-6.5897,-6.5897,-6.5897,-6.5897,-6.5897,-6.5897,-6.5897,-6.5897,-6.5897,-6.5897,-6.5897,-6.5897,-6.5897,-6.5897,-6.5897,-6.5768,-6.5594,-4.1136,-4.1402,-4.2673,-4.6796,-4.8807,-5.0544,-5.2611,-5.405,-5.4685,-5.4148,-5.4815,-5.5091,-5.4336,-5.5215,-5.5171,-5.3374,-5.3366,-5.27,-5.084,-4.9308,-4.816,-4.7499,-4.4178,-4.2316,-4.2315,-4.1051,-4.0234,-3.9883,-4.0781,-4.1094,-4.0976,-4.1953,-4.4375,-4.793,-4.8945,-5.1719,-5.5703,-5.7578,-5.8789,-5.9531,-6.0697,-6.1665,-6.2713,-6.516,-6.5741,-6.5431,-6.6444,-6.6366,-6.5819,-6.5663,-6.4297,-6.2735,-6.293,-6.1876,-6.0041,-5.7387,-5.5708,-5.3756,-4.9304,-4.7588,-4.6807,-4.5753,-4.6923,-4.8835,0.0,0.0,0.0,-5.4381,-5.6762,-5.8128,-5.6411,-5.7621,-5.8402,-5.6801,-5.8753,-5.9807,-5.7894,-6.1369,-6.4843,-6.6873,-6.5585,-6.5585,-6.8161,-6.7303,-6.6912,-6.7771,-6.863,-6.8513,-6.7107,-6.6763,-6.6227,-6.5374,-6.5737,-6.5909,-6.5897,-6.5897,-6.5897,-6.5897,-6.5897,-6.5897,-6.5897,-6.5897,-6.5897,-6.5897,-6.5897,-6.5897,-6.5897,-6.5897,-6.5897,-6.5897,-6.5897,-6.5897,-6.5897,-6.5897,-6.5768,-6.5594,-4.3151,-4.3147,-4.4243,-4.775,-4.9136,-5.0797,-5.4057,-5.4699,-5.5031,-5.565,-5.6502,-5.7016,-5.695,-5.8414,-5.8772,-5.7147,-5.7658,-5.703,-5.4572,-5.3497,-5.2913,-5.2816,-4.886,-4.6674,-4.6667,-4.3665,-4.1406,-3.9883,-4.0781,-4.0781,-4.0078,-4.1641,-4.3086,-4.4492,-4.9062,-5.1445,-5.2344,-5.7812,-6.0156,-6.0467,-6.2883,-6.4364,-6.5337,-6.7154,-6.8239,-6.863,-6.7303,-6.6756,-6.6561,-6.5858,-6.5897,-6.5858,-6.3672,-6.4336,-6.4687,-5.8441,-5.6957,-5.6255,-5.1178,-4.9733,-4.9304,-4.7703,-4.915,-5.0828,-5.0358,0.0,-5.1726,-5.1804,0.0,-5.2819,-5.4068,0.0,0.0,-5.2273,-5.4303,-5.5162,-5.2624,-5.5981,-5.9885,-6.3204,-6.4687,-6.5312,-6.4924,-6.8044,-6.9255,-6.7107,-7.0543,-7.1324,-6.8122,-6.7812,-6.7229,-6.6198,-6.6119,-6.6008,-6.5897,-6.5897,-6.5897,-6.5897,-6.5897,-6.5897,-6.5897,-6.5897,-6.5897,-6.5897,-6.5897,-6.5897,-6.5897,-6.5897,-6.5897,-6.5897,-6.5897,-6.5897,-6.5897,-6.5897,-6.5768,-6.5594,-4.4134,-4.4482,-4.575,-4.8738,-5.0738,-5.2562,-5.4551,-5.5644,-5.636,-5.6699,-5.7567,-5.8467,-5.9451,-5.9374,-5.9566,-6.0313,-5.9808,-5.8993,-5.7899,-5.6609,-5.5396,-5.4457,-5.0824,-4.8379,-4.7363,-4.5482,-4.3443,-4.1278,-4.2175,-4.2182,-4.1367,-4.2578,-4.4961,-4.832,-5.2031,-5.5039,-5.7578,-6.0625,-6.3633,-6.6249,-6.4876,-6.7215,-7.1277,-6.8444,-6.7576,-6.781,-6.7068,-6.6795,-6.6834,-6.699,-6.7264,-6.7264,-6.5702,-6.6639,-6.7264,-6.1876,-6.09,-6.0432,-5.5279,-5.3871,-5.3327,-5.1102,-5.1375,-5.2078,-5.1687,-5.0711,-4.9774,-4.9306,0.0,0.0,0.0,0.0,0.0,0.0,-5.1648,-5.2312,-5.0204,-5.36,-5.7426,-6.0393,-6.1369,0.0,-6.2735,-6.7146,-6.8864,-6.6288,-6.9176,-6.9762,-6.6795,-6.6958,-6.6657,-6.5654,-6.5943,-6.6041,-6.591,-6.5897,-6.5897,-6.5897,-6.5897,-6.5897,-6.5897,-6.5897,-6.5897,-6.5897,-6.5897,-6.5897,-6.5897,-6.5897,-6.5897,-6.5897,-6.5897,-6.5897,-6.5897,-6.5897,-6.5833,-6.5701,-4.4976,-4.5606,-4.6848,-4.9039,-5.1291,-5.3267,-5.4657,-5.6474,-5.7559,-5.7318,-5.8513,-5.9785,-6.0973,-6.0691,-6.1134,-6.2946,-6.2201,-6.1543,-6.1311,-5.9946,-5.8684,-5.7707,-5.379,-5.1011,-4.9732,-4.7964,-4.5839,-4.3367,-4.3987,-4.389,-4.3125,-4.3984,-4.6406,-5.0156,-5.3711,-5.6914,-5.9765,-6.2265,-6.539,-6.8398,-6.6246,-6.8739,-7.3343,-6.9382,-6.7576,-6.7146,-6.6873,-6.6795,-6.6912,-6.781,-6.8279,-6.8318,-6.742,-6.82,-6.8591,-6.4531,-6.3633,-6.2969,-5.8519,-5.7113,-5.6489,-5.4576,-5.4264,-5.4381,-5.4149,-5.2273,-5.0204,-4.8915,-4.8564,0.0,0.0,0.0,-4.8525,-4.6963,0.0,-4.8525,-4.63,-4.9735,-5.3795,-5.7309,-5.8324,-5.9417,0.0,-6.6249,-6.8239,-6.5468,-6.8279,-6.8786,-6.5741,-6.6046,-6.6068,-6.546,-6.5911,-6.6067,-6.591,-6.5897,-6.5897,-6.5897,-6.5897,-6.5897,-6.5897,-6.5897,-6.5897,-6.5897,-6.5897,-6.5897,-6.5897,-6.5897,-6.5897,-6.5897,-6.5897,-6.5897,-6.5897,-6.5897,-6.5859,-6.578,-4.595,-4.6464,-4.7354,-4.8283,-4.9861,-5.1834,-5.4396,-5.6949,-5.8255,-5.7396,-5.9455,-6.1041,-6.1079,-6.3294,-6.4841,-6.4919,-6.5566,-6.5682,-6.487,-6.399,-6.3835,-6.4648,-5.9095,-5.5941,-5.5818,-5.1857,-4.8568,-4.6058,-4.6093,-4.5685,-4.4922,-4.582,-4.6289,-4.6719,-5.2656,-5.4922,-5.4687,-6.1406,-6.3867,-6.3515,-6.6756,-6.8194,-6.849,-7.0001,-6.9528,-6.7966,-6.7107,-6.6795,-6.6912,-6.781,-6.8669,0.0,-6.8318,-6.8669,-6.8708,-6.5275,-6.3672,-6.2462,-5.9768,-5.8402,-5.7738,-5.766,-5.8285,-5.8675,-5.7816,-5.6333,-5.4381,-5.1804,-4.9345,-4.7354,-4.6495,-4.6378,-4.5324,-4.189,-4.2827,0.0,0.0,-4.263,-4.7549,-5.3444,-5.6333,-5.8519,-6.0276,-6.5858,-6.8005,0.0,-6.9059,-7.0074,-6.5819,-6.5621,-6.5827,-6.6244,-6.6268,-6.6167,-6.591,-6.5897,-6.5897,-6.5897,-6.5897,-6.5897,-6.5897,-6.5897,-6.5897,-6.5897,-6.5897,-6.5897,-6.5897,-6.5897,-6.5897,-6.5897,-6.5897,-6.5897,-6.5897,-6.5897,-6.5859,-6.578,-4.7648,-4.8262,-4.8738,-4.8528,-5.078,-5.3304,-5.5277,-5.7288,-5.8874,-5.9725,-6.1079,-6.3052,-6.5876,-6.5489,-6.5876,-6.8119,-6.7539,-6.6688,-6.5837,-6.5528,-6.4715,-6.3323,-5.9732,-5.724,-5.6078,-5.3575,-5.0825,-4.7798,-4.7788,-4.714,-4.5859,-4.6172,-4.7226,-4.9101,-5.3984,-5.6914,-5.8515,-6.2578,-6.6445,-6.9961,-7.1717,-7.1046,-6.8961,-6.8956,-6.8247,-6.7185,-6.6912,-6.6795,0.0,-6.781,-6.8669,-6.9255,-6.8357,-6.9098,-6.9801,-6.7498,-6.6209,-6.5312,-6.4453,-6.3594,-6.2813,-6.2267,-6.2774,-6.3008,-6.1564,-5.9026,-5.6372,-5.4381,-5.0594,-4.7508,-4.7198,-4.5753,-4.4193,-4.3022,-4.2358,-4.1578,0.0,-4.2006,-4.3801,-4.5285,-5.075,-5.5552,-5.8402,-6.3125,0.0,0.0,-6.8357,0.0,-6.4921,-6.578,-6.617,-6.5645,-6.6055,-6.62,-6.603,-6.5946,-6.5897,-6.5897,-6.5897,-6.5897,-6.5897,-6.5897,-6.5897,-6.5897,-6.5897,-6.5897,-6.5897,-6.5897,-6.5897,-6.5897,-6.5897,-6.5897,-6.5897,-6.5897,-6.5885,-6.5846,-4.8573,-4.9114,-4.9621,-4.9375,-5.1903,-5.4619,-5.6631,-5.8139,-5.9532,-6.0925,-6.2665,-6.4793,-6.7578,-6.6688,-6.6998,-6.9744,-6.8738,-6.7965,-6.8003,-6.8003,-6.7152,-6.518,-6.2665,-6.0499,-5.8797,-5.6786,-5.4156,-5.0826,-5.0538,-4.9295,-4.7144,-4.7539,-4.8594,-5.0351,-5.4023,-5.7265,-6.0117,-6.2422,-6.6328,-7.1133,-7.2265,-7.1246,-6.8893,-6.8346,-6.7945,-6.7654,0.0,-6.6795,-6.6873,-6.7459,-6.8203,-6.8833,-6.8279,-6.8869,-6.954,-6.8442,-6.7507,-6.677,-6.6457,-6.5755,-6.5169,-6.5208,-6.5169,-6.5167,-6.5241,-6.2351,-5.9345,-5.8248,-5.3912,-5.036,-5.036,-4.7705,-4.5636,-4.5948,-4.3762,-4.1812,0.0,-4.1069,-4.0952,-4.0678,-4.6419,-5.1999,-5.6059,-6.0354,-6.3672,0.0,0.0,-6.7264,0.0,-6.5314,-6.5712,-6.5309,-6.5965,-6.6226,-6.6108,-6.5955,-6.5897,-6.5897,-6.5897,-6.5897,-6.5897,-6.5897,-6.5897,-6.5897,-6.5897,-6.5897,-6.5897,-6.5897,-6.5897,-6.5897,-6.5897,-6.5897,-6.5897,-6.5897,-6.5872,-6.5768,-4.904,-4.9397,-5.0248,-5.113,-5.3343,-5.578,-5.8178,-5.9377,-6.0344,-6.1234,-6.4174,-6.6263,-6.6495,-6.7152,-6.8236,-6.9899,-6.928,-6.9473,-7.1137,-7.1175,-7.075,-6.9976,-6.7462,-6.5334,-6.3797,-6.1157,-5.8256,-5.5035,-5.409,-5.1962,-4.8835,-4.9761,-5.0234,-5.043,-5.2891,-5.5976,-5.9414,-6.1015,-6.3711,-6.7031,-6.8711,-6.8945,-6.8239,-6.8161,-6.8658,-6.9179,-6.7422,-6.6798,-6.6798,-6.6798,-6.7351,-6.8021,-6.8049,-6.8023,-6.8035,-6.8105,-6.7523,-6.6747,-6.6005,-6.5146,-6.4873,-6.6553,-6.5733,-6.5379,-6.8535,-6.6112,-6.3142,-6.3013,-5.9029,-5.5515,-5.5437,-5.1962,-4.9384,-5.0163,-4.6612,-4.3178,-4.1461,-3.9704,-3.8884,-3.9702,-4.3645,-4.8291,-5.3327,-5.7699,-6.1681,-6.5194,-6.6327,-6.6092,-6.4377,-6.4455,-6.4779,-6.5319,-6.5972,-6.6243,-6.6128,-6.5967,-6.591,-6.5897,-6.5897,-6.5897,-6.5897,-6.5897,-6.5897,-6.5897,-6.5897,-6.5897,-6.5897,-6.5897,-6.5897,-6.5897,-6.5897,-6.5897,-6.5897,-6.5897,-6.5768,-6.5608,-5.3119,-5.3343,-5.4155,-5.6244,-5.7172,-5.7637,-5.7637,-5.9996,-6.2511,-6.4638,-6.5644,-6.7423,-7.0595,-6.9473,-6.9125,-7.0827,-6.9628,-6.9241,-7.0247,-6.9164,-6.8661,-6.9087,-6.6031,-6.4454,-6.4648,-6.0895,-5.8217,-5.677,-5.4005,-5.1944,-5.0627,-5.0211,-5.0773,-5.2109,-5.3437,-5.664,-6.1094,-6.1523,-6.3711,-6.7031,-6.8711,-6.9296,-6.8942,0.0,-6.8156,-6.9161,-6.7484,-6.6859,-6.6859,-6.6859,-6.7017,-6.7212,-6.721,-6.7212,-6.7332,-6.7916,-6.7527,-6.7138,-6.8152,-6.7802,-6.7216,-6.7685,-6.7958,-6.7997,0.0,-6.6706,-6.534,-6.3385,-6.092,-5.8689,-5.74,-5.5248,-5.3483,-5.3053,-4.833,-4.427,-4.3178,-4.0485,-3.8884,-3.9702,-4.3645,-4.7549,-5.0787,-5.5044,-5.9261,-6.336,-6.6209,-6.6756,-6.4416,-6.6717,-6.7297,-6.5562,-6.6176,-6.6445,-6.6251,-6.6128,-6.6013,-6.5897,-6.5897,-6.5897,-6.5897,-6.5897,-6.5897,-6.5897,-6.5897,-6.5897,-6.5897,-6.5897,-6.5897,-6.5897,-6.5897,-6.5897,-6.5897,-6.5897,-6.5846,-6.5767,-5.5818,-5.6205,-5.6786,-5.7869,-5.988,-6.1079,-6.0228,-6.2046,-6.4561,-6.7462,-6.8197,-6.9473,-7.2297,-7.0634,-6.986,-7.1175,-6.9783,-6.9319,-7.0479,-6.9319,-6.8816,-6.9319,-6.7849,-6.692,-6.6688,-6.3903,-6.1357,-5.9002,-5.6393,-5.3775,-5.1207,-5.1154,-5.1893,-5.3237,-5.3788,-5.6875,-6.1836,-6.3711,-6.5664,-6.7578,-6.8867,-6.8945,0.0,-6.7264,-6.7498,-6.8199,-6.7223,-6.6908,-6.6904,-6.6904,-6.6905,-6.6907,-6.6904,-6.6907,-6.6988,-6.7455,-6.7261,-6.7106,-6.8043,-6.7965,-6.7653,-6.8043,-6.8239,-6.8355,-6.851,-6.7689,-6.6673,-6.5968,-6.3817,-6.1938,-6.1309,-5.9197,-5.7122,-5.5866,-5.157,-4.8057,-4.7198,-4.3801,-4.1576,-4.2006,-4.4582,-4.7159,-4.9306,-5.5159,-6.0432,-6.4375,-6.6131,-6.6366,-6.4921,-6.5975,-6.6131,-6.5077,-6.6712,-6.7237,-6.6452,-6.7242,-6.7093,-6.599,-6.5921,-6.5897,-6.5897,-6.5897,-6.5897,-6.5897,-6.5897,-6.5897,-6.5897,-6.5897,-6.5897,-6.5897,-6.5897,-6.5897,-6.5897,-6.5897,-6.5859,-6.5793,-5.7744,-5.8333,-5.8681,-5.8372,-6.2008,-6.488,-6.4416,-6.4986,-6.6572,-6.9589,-7.0672,-7.1562,-7.2645,-7.1098,-7.0402,-7.1369,-6.9821,-6.9512,-7.1175,-7.0402,-6.9899,-6.9976,-7.0634,-7.0324,-6.9009,-6.7771,-6.5412,-6.1776,-5.9824,-5.6601,-5.2278,-5.3046,-5.3816,-5.4578,-5.4643,-5.7421,-6.2344,-6.668,-6.8398,-6.8281,-6.9062,-6.8476,-6.707,-6.7187,-6.7226,-6.7226,-6.7226,-6.7147,-6.7062,-6.7062,-6.7143,-6.7224,-6.722,-6.7224,-6.7226,-6.7225,-6.7226,-6.7226,-6.7226,-6.7305,-6.7539,-6.8086,-6.7734,-6.7773,-6.9764,-6.8592,-6.7497,-6.8938,-6.6867,-6.5029,-6.5803,-6.3263,-6.0602,-5.9224,-5.5903,-5.3327,-5.2663,-4.8876,-4.6222,-4.6339,-4.7002,0.0,-4.9345,-5.6372,-6.2228,-6.5546,-6.578,-6.5702,-6.5624,-6.4375,-6.3906,-6.4455,-6.7058,-6.791,-6.6724,-6.8421,-6.8304,-6.6404,-6.6047,-6.5897,-6.5897,-6.5897,-6.5897,-6.5897,-6.5897,-6.5897,-6.5897,-6.5897,-6.5897,-6.5897,-6.5897,-6.5897,-6.5897,-6.5897,-6.5859,-6.5807,-6.0151,-6.0035,-6.0499,-6.3168,-6.4406,-6.5644,-6.7617,-6.8042,-6.8584,-6.9821,-7.0131,-7.1098,-7.3419,-7.1485,-7.0634,-7.222,-7.017,-6.9512,-7.1175,-6.986,-6.9319,-6.9976,-6.9512,-6.9396,-6.9783,-6.692,-6.5373,-6.5296,-6.1533,-5.9257,-5.844,-5.7904,-5.78,-5.8122,-5.8131,-6.0262,-6.414,-6.8437,-6.9453,-6.8281,-6.9062,-6.8828,-6.8047,-6.8789,-6.9023,-6.8945,-6.8945,-6.8554,-6.7968,-6.7968,-6.8437,-6.9023,-6.8984,-6.8984,-6.9023,-6.8984,-6.8945,-6.8945,-6.8945,-6.9492,-6.9726,-6.8515,-6.8633,-6.8789,-6.7773,-6.7773,-6.8047,-6.8359,-6.7928,-6.7574,-6.7729,-6.6081,-6.4819,-6.5158,-6.1134,-5.8168,-5.8753,-5.5123,-5.2702,-5.3405,-5.3639,-5.3561,-5.3132,-5.5123,-5.7543,-6.0237,-6.4258,-6.6288,-6.5624,-6.6639,-6.6639,-6.5429,-6.5914,-6.6571,0.0,0.0,-6.727,-6.7962,-6.6577,-6.5897,-6.5897,-6.5897,-6.5897,-6.5897,-6.5897,-6.5897,-6.5897,-6.5897,-6.5897,-6.5897,-6.5897,-6.5897,-6.5897,-6.5897,-6.5897,-6.5885,-6.1195,-6.2588,-6.4213,-6.5412,-6.7075,-6.8661,-6.9899,-7.0479,-7.1059,-7.191,-7.2026,-7.2645,-7.4347,-7.3032,-7.2529,-7.3806,-7.1988,-7.1098,-7.191,-7.0363,-6.9396,-6.9396,-6.9396,-6.9821,-7.0672,-6.8661,-6.7578,-6.7539,-6.4174,-6.2093,-6.1234,-5.9956,-5.9916,-6.0967,-6.1967,-6.3863,-6.6445,-6.8515,-6.9219,-6.8906,-6.9258,-6.8906,-6.8281,-6.914,-6.9414,-6.9414,-6.9453,-6.9453,-6.9414,-6.9023,-6.914,-6.9453,-6.9453,-6.9453,-6.9453,-6.9414,-6.9414,-6.9414,-6.9414,-6.9726,-6.9883,-6.9023,-6.914,-6.9336,-6.8945,-6.8515,-6.832,-6.875,-6.8476,-6.8319,-6.8748,-6.8504,-6.806,-6.7549,-6.5394,-6.3282,-6.1954,-5.8792,-5.6957,-5.7855,-5.7153,-5.6606,-5.6645,-5.7035,-5.8324,-6.0939,-6.3438,-6.5234,-6.617,-6.5741,-6.5273,-6.4921,-6.5663,0.0,-6.6551,0.0,-6.7527,-6.7307,-6.6428,-6.5955,-6.5897,-6.5897,-6.5897,-6.5897,-6.5897,-6.5897,-6.5897,-6.5897,-6.5897,-6.5897,-6.5897,-6.5897,-6.5897,-6.5897,-6.5897,-6.5897,-6.3052,-6.545,-6.7655,-6.7346,-6.9821,-7.1794,-7.1601,-7.2452,-7.3264,-7.3574,-7.3767,-7.427,-7.5276,-7.4657,-7.4579,-7.5546,-7.427,-7.3342,-7.3148,-7.1678,-7.0363,-6.9396,-6.9938,-7.0595,-7.1291,-7.0634,-6.9976,-6.9319,-6.7152,-6.4599,-6.1853,-6.1862,-6.2542,-6.3877,-6.5604,-6.7148,0.0,0.0,-6.914,-6.9726,-6.9492,-6.914,-6.8828,-6.9648,-6.9961,-6.9961,-7.0,-7.043,-7.0898,-7.0234,-7.0,-6.9961,-7.0,-7.0,-6.9961,-6.9961,-6.9961,-6.9961,-6.9961,-7.0,-6.9961,-6.9726,-6.9687,-6.9805,-7.0312,-6.9414,-6.8633,-6.9258,-6.8906,-6.8711,-6.9529,-6.9951,0.0,-6.9781,-6.8679,-6.7227,-6.5429,-6.2618,-6.0978,-6.1681,-6.0237,-5.93,-5.961,0.0,-6.0939,-6.336,-6.3399,-6.4219,-6.6444,-6.4648,-6.4023,-6.5077,-6.5909,-6.6399,-6.6616,0.0,-6.786,-6.6794,-6.6303,-6.603,-6.5897,-6.5897,-6.5897,-6.5897,-6.5897,-6.5897,-6.5897,-6.5897,-6.5897,-6.5897,-6.5897,-6.5897,-6.5897,-6.5897,-6.5897,-6.5936,-6.781,-6.839,-6.9125,-7.0556,-7.2375,-7.338,-7.2607,-7.3844,-7.4347,-7.2916,-7.3419,-7.4502,-7.6088,-7.5508,-7.5662,-7.7326,-7.6591,-7.5701,-7.4928,-7.4038,-7.28,-7.1137,-7.1137,-7.1214,-7.1291,-7.1214,-7.1137,-7.1059,-7.0054,-6.6301,-6.0267,-6.5499,-6.7726,-6.7374,0.0,0.0,0.0,-7.0117,-7.0508,-7.0508,-6.9805,-6.9883,-7.0547,-7.1445,-7.1758,-7.1758,-7.1758,-7.1797,-7.1875,-7.1797,-7.1758,-7.1758,-7.1758,-7.1758,-7.1758,-7.1758,-7.1758,-7.1758,-7.1758,-7.1758,-7.1562,-7.0781,-7.0586,-7.039,-6.9765,-6.9492,-6.9375,-6.9414,-6.9336,-6.9531,-7.0427,-6.9411,-6.9876,-7.4351,-7.0481,-6.8173,-7.1831,-6.8708,-6.6092,-6.617,-6.4728,-6.3086,-6.1601,-6.2189,-6.3399,-6.5234,-6.4609,-6.4648,-6.5663,-6.5507,-6.6092,-6.7693,-6.6397,-6.7067,-6.9913,-6.787,-6.7345,-6.8372,-6.6853,-6.603,-6.5897,-6.5897,-6.5897,-6.5897,-6.5897,-6.5897,-6.5897,-6.5897,-6.5897,-6.5897,-6.5897,-6.5897,-6.5897,-6.5897,-6.5897,-6.6128,-6.9473,-7.1175,-7.2491,-7.2142,-7.3922,-7.5121,-7.4231,-7.4657,-7.5044,-7.4889,-7.4734,-7.5082,-7.6281,-7.6552,-7.7365,-7.9067,-7.8448,-7.7365,-7.5972,-7.5082,-7.3612,-7.1407,-7.0789,-7.1021,-7.2065,-7.1059,-7.1291,-7.2877,-7.1446,-6.9701,-6.7691,-6.9562,-7.0367,-7.0278,0.0,-7.0153,-7.0195,-7.0547,-7.043,-7.0,-7.0156,-7.039,-7.0781,-7.168,-7.1992,-7.1992,-7.1992,-7.1992,-7.1992,-7.1992,-7.1992,-7.1992,-7.1992,-7.1992,-7.1992,-7.1992,-7.1992,-7.1992,-7.1992,-7.1992,-7.1914,-7.1562,-7.1484,-7.1406,-7.1055,-7.0586,-7.0195,-7.0195,-6.9375,-6.8945,-6.9765,-7.0232,-7.0619,-7.1119,-7.0915,-7.0399,-6.953,-6.8357,-6.7576,-6.7576,-6.6092,-6.4999,-6.4765,-6.5546,-6.5936,-6.5624,-6.6209,-6.742,-6.9333,-6.7459,-6.7342,-6.9606,-6.6014,-6.5649,-6.8975,-6.7025,-6.6454,-6.7401,-6.6608,-6.6148,-6.6008,-6.5933,-6.5897,-6.5897,-6.5897,-6.5897,-6.5897,-6.5897,-6.5897,-6.5897,-6.5897,-6.5897,-6.5897,-6.5897,-6.6205,-6.6782,-7.1523,-7.3458,-7.4734,-7.3535,-7.5044,-7.6204,-7.5585,-7.5701,-7.6165,-7.7055,-7.663,-7.6591,-7.7403,-7.8061,-7.9028,-8.0459,-8.0072,-7.9105,-7.7597,-7.6475,-7.485,-7.2529,-7.1369,-7.1214,-7.2181,-7.1253,-7.1523,-7.3148,-7.2142,-7.1144,-7.0123,-6.9539,-7.0341,0.0,-7.1123,-7.0819,-7.1055,-7.0547,-7.0312,-7.0273,-7.0586,-7.0859,-7.1133,-7.1758,-7.1992,-7.1992,-7.1992,-7.1992,-7.1992,-7.1992,-7.1992,-7.1992,-7.1992,-7.1992,-7.1992,-7.1992,-7.1992,-7.1992,-7.1992,-7.1992,-7.1992,-7.1992,-7.1992,-7.1992,-7.1992,-7.1523,-7.1015,-7.0742,-6.9531,-6.8711,-6.9336,-7.0234,-7.0621,-6.9758,-7.0649,-7.0679,-6.8637,-6.7969,-6.82,-6.9489,-6.8591,-6.8083,-6.8669,-6.9255,-6.8708,-6.6483,-6.7654,-6.8942,-7.0074,-6.8474,-6.8279,-6.9879,-6.5936,-6.5273,-6.8435,-6.6795,-6.6177,-6.659,-6.6386,-6.6217,-6.6098,-6.5943,-6.5897,-6.5897,-6.5897,-6.5897,-6.5897,-6.5897,-6.5897,-6.5897,-6.5897,-6.5897,-6.5897,-6.5897,-6.6551,-6.7628,-7.4734,-7.5071,-7.5071,-7.5071,-7.5817,-7.6397,-7.6397,-7.7132,-7.7983,-7.8834,-7.895,-7.926,-8.0072,-8.015,-8.0536,-8.1414,-8.1491,-8.1117,-8.0227,-7.8602,-7.69,-7.5121,-7.3458,-7.2181,-7.133,-7.2142,-7.2142,-7.133,-7.2181,-6.9551,-6.3806,-6.3938,-6.7242,-7.3005,-7.1329,-7.1119,-7.1875,-7.0234,-7.0469,-7.1914,-7.1055,-7.1211,-7.1992,-7.1992,-7.1992,-7.1992,-7.1992,-7.1992,-7.1992,-7.1992,-7.1992,-7.1992,-7.1992,-7.1992,-7.1992,-7.1992,-7.1992,-7.1992,-7.1992,-7.1992,-7.1992,-7.1992,-7.1992,-7.1992,-7.1992,-7.1992,-7.1758,-7.0898,-7.0,-6.9414,-6.9492,-6.8828,-6.9336,-7.2692,-6.9718,-6.8151,-7.146,-6.8991,-6.8396,-7.2729,-7.3234,-7.3197,-7.3236,-7.3236,-7.1792,-6.8318,-6.8903,-6.8318,-6.5819,-6.8005,-6.8981,-6.8161,-6.6444,0.0,-6.9372,-6.7654,-6.6723,-6.659,-6.6386,-6.6217,-6.6098,-6.5943,-6.5897,-6.5897,-6.5897,-6.5897,-6.5897,-6.5897,-6.5897,-6.5897,-6.5897,-6.5897,-6.5897,-6.5897,-6.6936,-6.8629,-7.5895,-7.6475,-7.6862,-7.6862,-7.7597,-7.8177,-7.8177,-7.8409,-7.8873,-7.9724,-7.984,-8.015,-8.1001,-8.0575,-8.0536,-8.1414,-8.1491,-8.0923,-7.9453,-7.8873,-7.7558,-7.5198,-7.4579,-7.3651,-7.222,-7.2452,-7.2452,-7.2181,0.0,0.0,0.0,-6.8917,-6.9848,-7.2229,-7.1161,-7.0819,-7.1133,-7.1172,-7.1172,-7.1133,-7.1445,-7.1758,-7.1992,-7.1992,-7.1992,-7.1992,-7.1992,-7.1992,-7.1992,-7.1992,-7.1992,-7.1992,-7.1992,-7.1992,-7.1992,-7.1992,-7.1992,-7.1992,-7.1992,-7.1992,-7.1992,-7.1992,-7.1992,-7.1992,-7.1992,-7.1992,-7.1758,-7.0898,-7.0469,-6.9922,-6.8828,-6.8398,-6.8359,-6.8864,-6.8235,-6.7877,-6.8375,-6.8013,-6.7966,-6.8786,-6.8396,-6.8044,-6.8044,-6.9098,-6.9801,-6.9879,-7.2846,-7.3002,-6.9294,-6.8161,-6.8591,-7.0699,-6.6834,0.0,-6.9372,-6.7654,-6.6787,-6.6727,-6.6595,-6.6376,-6.6098,-6.5943,-6.5897,-6.5897,-6.5897,-6.5897,-6.5897,-6.5897,-6.5897,-6.5897,-6.5897,-6.5897,-6.5974,-6.6513,-6.7821,-6.9513,-7.7287,-7.779,-7.8177,-7.8177,-7.8641,-7.9105,-7.9415,-7.9453,-7.9763,-8.0575,-8.0691,-8.0923,-8.1465,-8.1001,0.0,-8.1465,-8.1491,-8.1078,-7.9995,-7.9337,-7.8138,-7.6165,-7.5469,-7.4463,-7.3109,-7.2761,0.0,-7.2607,-7.2607,-7.2656,-7.278,-7.2178,-7.2053,-7.2305,-7.147,-7.113,-7.1211,-7.1406,-7.1406,-7.125,-7.1797,-7.1992,-7.1992,-7.1992,-7.1992,-7.1992,-7.1992,-7.1992,-7.1992,-7.1992,-7.1992,-7.1992,-7.1992,-7.1992,-7.1992,-7.1992,-7.1992,-7.1992,-7.1992,-7.1992,-7.1992,-7.1992,-7.1992,-7.1992,-7.1992,-7.1992,-7.1836,-7.1289,-7.0937,-7.0273,-6.8945,-6.8437,-6.789,-6.703,-6.7339,-6.7448,-6.6896,-6.7273,-6.8005,-6.9098,-6.8239,-6.7771,0.0,-6.8552,-6.863,-6.8786,-7.1285,-7.1597,-6.8942,-6.9059,-6.9059,-6.863,-6.6131,-6.5819,-6.7966,-6.7185,-6.6795,-6.6795,-6.6642,-6.6418,-6.6098,-6.5997,-6.5958,-6.5897,-6.5897,-6.5897,-6.5897,-6.5897,-6.5897,-6.5897,-6.5897,-6.609,-6.6397,-6.6898,-6.859,-7.0783,-7.8912,-7.9067,-7.9105,-7.9144,-7.9221,-7.9531,-8.0266,-8.042,-8.0769,-8.1581,-8.1697,-8.1697,-8.1697,-8.1697,-8.1697,-8.1697,0.0,0.0,-8.1491,-8.0034,-7.8757,-7.7829,-7.6243,-7.4928,-7.3999,-7.3187,-7.2761,-7.2684,-7.2684,-7.2724,-7.2802,-7.3618,-7.3665,-7.3029,-7.2252,-7.1971,-7.2109,-7.1289,-7.1445,-7.2187,-7.2187,-7.2187,-7.2187,-7.2187,-7.2148,-7.2109,-7.2109,-7.2031,-7.1992,-7.1992,-7.1992,-7.1992,-7.1992,-7.1992,-7.1992,-7.1992,-7.1992,-7.1992,-7.1992,-7.1992,-7.1992,-7.1992,-7.1992,-7.1992,-7.1992,-7.1992,-7.1992,-7.1992,-7.1367,-7.0547,-6.9726,-6.8867,-6.8008,-6.7148,-6.695,-6.6904,-6.6904,-6.685,-6.8318,-7.2378,-7.1402,0.0,-7.2612,-7.0543,-6.8239,0.0,-6.5897,-6.5897,-6.5936,-7.0504,-7.0074,-6.3477,-6.4765,-6.5624,-6.5663,-6.6444,-6.6795,-6.6795,-6.6642,-6.6432,-6.6109,-6.6118,-6.603,-6.5923,-6.591,-6.5897,-6.5897,-6.5897,-6.5897,-6.5897,-6.5897,-6.6397,-6.709,-6.7244,-6.936,-7.2206,0.0,-7.9918,-8.015,-8.0807,-8.1465,-8.1968,-8.2161,-8.2741,-8.3244,-8.3476,-8.3476,-8.3476,-8.3476,-8.3476,-8.3476,-8.3476,-8.2277,-8.1491,-8.1491,-8.1117,-8.0266,-7.8757,-7.8293,-7.7055,-7.485,-7.4618,-7.4231,-7.3574,-7.3574,-7.3259,-7.2654,-7.2956,-7.3029,-7.284,-7.2702,-7.3068,-7.3837,-7.3603,-7.37,-7.3984,-7.3984,-7.3984,-7.3984,-7.3984,-7.3555,-7.3008,-7.3008,-7.2578,-7.1992,-7.1992,-7.1992,-7.1992,-7.1992,-7.1992,-7.1992,-7.1992,-7.1992,-7.1992,-7.1992,-7.1992,-7.1992,-7.1992,-7.1992,-7.1992,-7.1992,-7.1992,-7.1992,-7.1992,-7.1836,-7.1445,-7.0586,-6.9687,-6.8867,-6.8047,-6.734,-6.6904,-6.6904,-6.685,-6.7185,-6.82,-6.7966,-6.7654,-6.7459,-6.6873,-6.7342,0.0,-6.8864,-6.8786,-6.945,-7.066,-6.9645,-6.6014,-6.5702,-6.5897,-6.6522,-6.6717,-6.6795,-6.6795,-6.6642,-6.6563,-6.6458,-6.6212,-6.6077,-6.6052,-6.5946,-6.5897,-6.5897,-6.5897,-6.5897,-6.5897,-6.5897,-6.6397,-6.7244,-6.859,-7.0398,-7.236,-8.1233,-8.1387,-8.1658,-8.2548,-8.3089,-8.3399,-8.3399,-8.3786,-8.4095,-8.4095,-8.4095,-8.4095,-8.4095,-8.4095,-8.4095,-8.4095,-8.3244,-8.2703,-8.2703,-8.2316,-8.1697,-8.0769,-8.0343,-7.9299,-7.7481,-7.6668,-7.5508,-7.3883,-7.3883,-7.3651,-7.3187,-7.3266,-7.3326,-7.3337,-7.3387,-7.3771,-7.4405,-7.4405,-7.4474,-7.4609,-7.4609,-7.4609,-7.4609,-7.4609,-7.4297,-7.3906,-7.3906,-7.3594,-7.3203,-7.3203,-7.3203,-7.3203,-7.3203,-7.3203,-7.3125,-7.2695,-7.2305,-7.1992,-7.1992,-7.1992,-7.1992,-7.1992,-7.1992,-7.1992,-7.1992,-7.1992,-7.1992,-7.1992,-7.1992,-7.1719,-7.0859,-7.0,-6.918,-6.8359,-6.7459,-6.6906,-6.6904,-6.6854,-6.6802,-6.6798,-6.6795,-6.6639,-6.617,-6.6131,-6.6912,-6.8786,-6.8474,0.0,-6.8903,-6.8903,-6.7927,-6.5743,-6.5975,-6.617,-6.6249,-6.66,-6.6795,-6.6795,-6.672,-6.6677,-6.659,-6.6404,-6.6239,-6.6098,-6.6019,-6.597,-6.5897,-6.5897,-6.5897,-6.5936,-6.6282,-6.6974,-6.7898,-6.9629,-7.1321,-7.2976,-8.2857,-8.3012,-8.3244,-8.3979,-8.4211,-8.4289,-8.4289,-8.4405,-8.4482,-8.4482,-8.4482,-8.4482,-8.4482,-8.4482,-8.4482,-8.4482,-8.4482,-8.4366,-8.4134,-8.3399,-8.2935,-8.2819,-8.1968,-8.1078,-8.0227,-7.868,-7.6823,-7.4657,-7.4541,-7.4463,-7.4463,-7.4347,-7.4291,-7.4342,-7.4369,-7.4515,-7.474,-7.4789,-7.4865,-7.5,-7.5,-7.5,-7.5,-7.5,-7.4922,-7.4805,-7.4805,-7.4726,-7.4609,-7.4609,-7.4609,-7.4609,-7.4609,-7.4609,-7.4453,-7.3711,-7.289,-7.2187,-7.2031,-7.1992,-7.1992,-7.1992,-7.1992,-7.1992,-7.1992,-7.1992,-7.1992,-7.1992,-7.1992,-7.1758,-7.1015,-7.0117,-6.9492,-6.9531,-6.8046,-6.7183,-6.7957,-6.7324,-6.6809,-6.6798,-6.6795,-6.6795,-6.6795,-6.6795,-6.6795,-6.6795,-6.6795,-6.6795,-6.6795,-6.6795,-6.6131,-6.4728,-6.6056,-6.6483,-6.578,-6.6444,-6.6795,-6.6795,-6.6795,-6.673,-6.6615,-6.66,-6.6425,-6.6109,-6.6118,-6.6019,-6.591,-6.5909,-6.5921,-6.5998,-6.6845,-6.7654,-6.8642,-7.045,-7.2129,-7.363,-8.3863,-8.3902,-8.394,-8.4095,-8.4675,-8.5101,-8.5101,-8.5759,-8.6223,-8.6223,-8.6223,-8.6223,-8.6223,-8.6223,-8.6223,-8.6223,-8.6223,-8.5604,-8.4173,-8.3979,-8.3554,-8.2819,-8.1968,-8.1078,-8.0227,-7.9299,-7.8602,-7.8216,-7.7481,-7.7094,-7.7094,-7.6359,-7.6034,-7.604,-7.6138,-7.6288,-7.6448,-7.6568,-7.6661,-7.6797,-7.6797,-7.6797,-7.6797,-7.6797,-7.6328,-7.5703,-7.5703,-7.5234,-7.4609,-7.4609,-7.4609,-7.4609,-7.4609,-7.4609,-7.457,-7.4453,-7.3789,-7.293,-7.2187,-7.1992,-7.1992,-7.1992,-7.1992,-7.1992,-7.1992,-7.1992,-7.1992,-7.1992,-7.1992,-7.1953,-7.1836,-7.0508,-7.082,-7.5114,-7.0778,-6.8431,-7.2791,-6.9585,-6.6809,-6.6798,-6.6795,-6.6795,-6.6795,-6.6795,-6.6795,-6.6795,-6.6795,-6.6795,-6.6795,-6.6795,-6.6678,-6.6405,-6.6678,-6.6756,-6.66,-6.6756,-6.6795,-6.6795,-6.6795,-6.6792,-6.6781,-6.6633,-6.6477,-6.6267,-6.6148,-6.6019,-6.5923,-6.6019,-6.6056,-6.6134,-6.7023,-6.7873,-6.8845,-7.1133,-7.2629,-7.3745,-8.4675,-8.4753,-8.4908,-8.5372,-8.5759,-8.5991,-8.5991,-8.6339,-8.661,-8.661,-8.661,-8.661,-8.661,-8.661,-8.661,-8.661,-8.661,-8.6261,-8.5488,-8.5449,-8.5256,-8.4869,-8.4443,-8.3206,-8.0962,-8.0072,-7.9183,-7.8293,-7.7906,-7.7713,-7.7674,-7.6823,-7.6397,-7.6409,-7.6471,-7.6555,-7.6699,-7.6833,-7.6968,-7.7097,-7.7186,-7.7187,-7.7187,-7.7187,-7.6953,-7.6601,-7.6601,-7.6328,-7.6015,-7.6015,-7.6015,-7.6015,-7.6015,-7.6015,-7.5898,-7.543,-7.4336,-7.3125,-7.2226,-7.1992,-7.1992,-7.1992,-7.1992,-7.1992,-7.1992,-7.1992,-7.1992,-7.1992,-7.1992,-7.1992,-7.1992,-7.0586,-7.0195,-7.2655,-6.9609,-6.7732,-7.0102,-6.8382,-6.6854,-6.6798,-6.6795,-6.6795,-6.6795,-6.6795,-6.6795,-6.6795,-6.6795,-6.6795,-6.6795,-6.6795,-6.6795,-6.6795,-6.6795,-6.6795,-6.6795,-6.6795,-6.6795,-6.6795,-6.6795,-6.6795,-6.6795,-6.6727,-6.6619,-6.6465,-6.6267,-6.6176,-6.6089,-6.6118,-6.6409,-6.6967,-6.7735,-6.8584,-6.9596,-7.2006,-7.3168,-7.3745,-8.5488,-8.5604,-8.5797,-8.6494,-8.661,-8.661,-8.661,-8.661,-8.661,-8.661,-8.661,-8.661,-8.661,-8.661,-8.661,-8.661,-8.661,-8.661,-8.661,-8.661,-8.661,-8.661,-8.6223,-8.4714,-8.1852,-8.0769,-7.9569,-7.8293,-7.7906,-7.7713,-7.7674,-7.6823,-7.6397,-7.6409,-7.6416,-7.6496,-7.6618,-7.678,-7.693,-7.7029,-7.7145,-7.7187,-7.7187,-7.7187,-7.7187,-7.7187,-7.7187,-7.7187,-7.7187,-7.7187,-7.7187,-7.7187,-7.7187,-7.7187,-7.707,-7.6406,-7.4961,-7.3398,-7.2539,-7.2148,-7.1992,-7.1992,-7.1992,-7.1992,-7.1992,-7.1992,-7.1992,-7.1992,-7.1992,-7.1992,-7.1992,-7.0586,-6.9804,-7.1093,-6.8828,-6.7304,-6.8504,-6.7644,-6.6898,-6.68,-6.6795,-6.6795,-6.6795,-6.6795,-6.6795,-6.6795,-6.6795,-6.6795,-6.6795,-6.6795,-6.6795,-6.6795,-6.6795,-6.6795,-6.6795,-6.6795,-6.6795,-6.6795,-6.6795,-6.6795,-6.6795,-6.6795,-6.672,-6.6585,-6.6452,-6.6344,-6.6307,-6.645,-6.6958,-6.7765,-6.867,-6.9508,-7.0522,-7.2739,-7.3647,-7.4014,-8.6494,-8.6494,-8.6532,-8.661,-8.661,-8.661,-8.661,-8.661,-8.661,-8.661,-8.661,-8.661,-8.661,-8.661,-8.661,-8.661,-8.661,-8.661,-8.661,-8.661,-8.661,-8.661,-8.5101,-8.3786,-8.2741,-8.1078,-8.015,-8.0034,-7.8448,-7.7713,-7.7674,-7.6823,-7.6397,-7.6409,-7.6546,-7.6591,-7.6626,-7.6868,-7.6978,-7.7029,-7.7145,-7.7187,-7.7187,-7.7187,-7.7187,-7.7187,-7.7187,-7.7187,-7.7187,-7.7187,-7.7187,-7.7187,-7.7187,-7.7187,-7.7187,-7.7109,-7.5859,-7.4297,-7.3437,-7.2617,-7.1992,-7.1992,-7.1992,-7.1992,-7.1992,-7.1992,-7.1992,-7.1992,-7.1992,-7.1992,-7.1992,-7.0586,-7.0976,-7.5856,-7.1171,-6.8553,-7.3377,-6.9905,-6.6898,-6.68,-6.6795,-6.6795,-6.6795,-6.6795,-6.6795,-6.6795,-6.6795,-6.6795,-6.6795,-6.6795,-6.6795,-6.6795,-6.6795,-6.6795,-6.6795,-6.6795,-6.6795,-6.6795,-6.6795,-6.6795,-6.6795,-6.6795,-6.672,-6.659,-6.6585,-6.6477,-6.6361,-6.7346,-6.7826,-6.8026,-6.9646,-7.0693,-7.1499,-7.3076,-7.4076,-7.4745,-8.661,-8.661,-8.661,-8.661,-8.661,-8.661,-8.661,-8.661,-8.661,-8.661,-8.661,-8.661,-8.661,-8.661,-8.661,-8.661,-8.661,-8.661,-8.661,-8.6107,-8.6029,-8.6571,-8.4985,-8.3438,-8.2006,-8.0807,-7.9685,-7.8641,-7.8022,-7.7713,-7.7674,-7.6823,-7.6397,-7.6409,-7.646,-7.6493,-7.6485,-7.6768,-7.6868,-7.6882,-7.71,-7.7187,-7.7187,-7.7187,-7.7187,-7.7187,-7.7187,-7.7187,-7.7187,-7.7187,-7.7187,-7.7187,-7.7187,-7.7187,-7.7187,-7.7187,-7.5976,-7.4531,-7.4219,-7.3086,-7.1992,-7.1992,-7.1992,-7.1992,-7.1992,-7.1992,-7.1992,-7.1992,-7.1992,-7.1836,-7.1289,-7.0234,-6.9922,-7.1366,-6.8945,-6.7577,-6.9557,-6.8151,-6.6898,-6.68,-6.6795,-6.6795,-6.6795,-6.6795,-6.6795,-6.6795,-6.6795,-6.6795,-6.6795,-6.6795,-6.6795,-6.6795,-6.6795,-6.6795,-6.6795,-6.6795,-6.6795,-6.6795,-6.6795,-6.6795,-6.6795,-6.6795,-6.6784,-6.6716,-6.6619,-6.661,-6.6668,-6.7545,-6.8275,-6.894,-7.0011,-7.1237,-7.2489,-7.3382,-7.42,-7.499,-8.661,-8.661,-8.661,-8.661,-8.661,-8.661,-8.661,-8.661,-8.661,-8.661,-8.661,-8.661,-8.661,-8.6377,-8.6184,-8.6184,-8.6184,-8.6068,-8.5836,-8.5256,-8.5178,-8.5797,-8.4443,-8.3128,-8.1929,-8.0536,-7.926,-7.8099,-7.7558,-7.7287,-7.7287,-7.6668,-7.6397,-7.6397,-7.6397,-7.6397,-7.6432,-7.6995,-7.7038,-7.6861,-7.7408,-7.7422,-7.7187,-7.7187,-7.7187,-7.7187,-7.7187,-7.7187,-7.7187,-7.7187,-7.7187,-7.7187,-7.7187,-7.7187,-7.7187,-7.7187,-7.5976,-7.4609,-7.4609,-7.332,-7.1992,-7.1992,-7.1992,-7.1992,-7.1992,-7.1992,-7.1992,-7.1992,-7.1992,-7.1719,-7.0859,-7.0039,-6.9219,-6.8359,-6.7461,-6.6913,-6.6905,-6.6904,-6.6898,-6.68,-6.6795,-6.6795,-6.6795,-6.6795,-6.6795,-6.6795,-6.6795,-6.6795,-6.6795,-6.6795,-6.6795,-6.6795,-6.6795,-6.6795,-6.6795,-6.6795,-6.6795,-6.6795,-6.6795,-6.6795,-6.6795,-6.6795,-6.6795,-6.6795,-6.6705,-6.6869,-6.7261,-6.8035,-6.894,-6.9876,-7.0602,-7.1765,-7.308,-7.3678,-7.4341,-7.5098,-8.661,-8.661,-8.661,-8.661,-8.661,-8.661,-8.661,-8.661,-8.661,-8.661,-8.661,-8.661,-8.661,-8.5836,-8.5294,-8.5294,-8.5294,-8.4946,-8.4134,-8.4095,-8.4095,-8.4095,-8.3244,-8.278,-8.278,-8.0304,-7.8989,-7.8989,-7.7248,-7.6397,-7.6397,-7.6397,-7.6397,-7.6397,-7.6397,-7.6397,-7.6471,-7.7618,-7.7584,-7.69,-7.8033,-7.7969,-7.7226,-7.7187,-7.7187,-7.7187,-7.7187,-7.7187,-7.7187,-7.7187,-7.7187,-7.7187,-7.7187,-7.7187,-7.7187,-7.7187,-7.5976,-7.4609,-7.4609,-7.332,-7.1992,-7.1992,-7.1992,-7.1992,-7.1992,-7.1992,-7.1992,-7.1992,-7.1992,-7.1719,-7.0859,-7.0039,-6.9219,-6.8359,-6.7461,-6.6913,-6.6905,-6.6904,-6.6898,-6.68,-6.6795,-6.6795,-6.6795,-6.6795,-6.6795,-6.6795,-6.6795,-6.6795,-6.6795,-6.6795,-6.6795,-6.6795,-6.6795,-6.6795,-6.6795,-6.6795,-6.6795,-6.6795,-6.6795,-6.6795,-6.6795,-6.6795,-6.6795,-6.6795,-6.6795,-6.7303,-6.8161,-6.9059,-6.9918,-7.0777,-7.1675,-7.2409,-7.3136,-7.3993,-7.4614,-7.5148,-8.5681,-8.5681,-8.5681,-8.5681,-8.6184,-8.661,-8.661,-8.661,-8.661,-8.661,-8.6068,-8.5913,-8.6532,-8.5333,-8.4946,-8.6107,-8.514,-8.4095,-8.3244,-8.3167,-8.2896,-8.2316,-8.2045,-8.162,-8.1001,-7.9067,-7.779,-7.7171,-7.663,-7.6397,-7.6397,-7.6397,-7.6397,-7.6397,-7.6397,-7.6397,-7.6421,-7.6863,-7.7297,-7.7718,-7.7525,-7.7726,-7.8047,-7.7422,-7.7187,-7.7187,-7.7187,-7.7187,-7.7187,-7.7187,-7.7187,-7.7187,-7.7187,-7.7187,-7.7187,-7.7187,-7.5976,-7.4609,-7.4609,-7.332,-7.1992,-7.1992,-7.1992,-7.1992,-7.1992,-7.1992,-7.1992,-7.1992,-7.1992,-7.1719,-7.0859,-7.0039,-6.9219,-6.8359,-6.7461,-6.6914,-6.691,-6.6906,-6.686,-6.6809,-6.68,-6.6795,-6.6795,-6.6795,-6.6795,-6.6795,-6.6795,-6.6795,-6.6795,-6.6795,-6.6795,-6.6795,-6.6795,-6.6795,-6.6795,-6.6795,-6.6795,-6.6795,-6.6795,-6.6795,-6.6795,-6.6795,-6.6795,-6.6834,-6.7459,-6.7849,-6.8239,-6.9684,-7.0465,-7.0777,-7.1675,-7.2834,-7.4055,-7.426,-7.5113,-7.6288,-8.4908,-8.5372,-8.572,-8.5372,-8.5759,-8.6184,-8.6571,-8.6029,-8.572,-8.6029,-8.5333,-8.514,-8.5991,-8.4598,-8.425,-8.5952,-8.4869,-8.3708,-8.2857,-8.278,-8.2393,-8.1542,-8.1194,-8.073,-8.0227,-7.8564,-7.7442,-7.69,-7.6552,-7.6397,-7.6397,-7.6397,-7.6397,-7.6397,-7.6397,-7.6397,-7.6421,-7.6914,-7.7454,-7.8026,-7.8035,-7.8164,-7.8291,-7.78,-7.7414,-7.7101,-7.7101,-7.7146,-7.7187,-7.7187,-7.7187,-7.7187,-7.7187,-7.7187,-7.7187,-7.7187,-7.6211,-7.5039,-7.4687,-7.3594,-7.2422,-7.2109,-7.1992,-7.1992,-7.1992,-7.1992,-7.1992,-7.1992,-7.1992,-7.1719,-7.0859,-7.0312,-6.9609,-6.8398,-6.7773,-6.7304,-6.6951,-6.6907,-6.6862,-6.6813,-6.6802,-6.6795,-6.6795,-6.6795,-6.6795,-6.6795,-6.6795,-6.6795,-6.6795,-6.6795,-6.6795,-6.6795,-6.6795,-6.6795,-6.6795,-6.6795,-6.6795,-6.6795,-6.6795,-6.6795,-6.6795,-6.6795,-6.699,-6.7342,-6.7888,-6.8474,-6.9215,-7.027,-7.0894,-7.1285,-7.2182,-7.3119,-7.4089,-7.4667,-7.5518,-7.6385,-8.4366,-8.5449,-8.6223,-8.5449,-8.5294,-8.5565,-8.6377,-8.514,-8.4366,-8.5101,-8.4482,-8.4289,-8.5101,-8.367,-8.3399,-8.514,-8.4637,-8.3786,-8.2741,-8.2741,-8.2393,-8.1542,-8.0691,-8.0188,-8.0111,-7.8525,-7.7674,-7.7558,-7.6784,-7.6397,-7.6397,-7.6397,-7.6397,-7.6397,-7.6397,-7.6397,-7.6459,-7.737,-7.7843,-7.812,-7.9047,-7.8954,-7.8219,-7.8277,-7.7756,-7.6975,-7.6975,-7.7089,-7.7187,-7.7187,-7.7187,-7.7187,-7.7187,-7.7187,-7.7187,-7.7187,-7.6562,-7.5703,-7.4844,-7.3945,-7.3086,-7.2226,-7.1992,-7.1992,-7.1992,-7.1992,-7.1992,-7.1992,-7.1992,-7.1758,-7.0976,-7.0742,-7.0195,-6.8672,-6.8281,-6.7929,-6.7146,-6.6946,-6.6862,-6.6815,-6.6805,-6.6795,-6.6795,-6.6795,-6.6795,-6.6795,-6.6795,-6.6795,-6.6795,-6.6795,-6.6795,-6.6795,-6.6795,-6.6795,-6.6795,-6.6795,-6.6795,-6.6795,-6.6795,-6.6795,-6.6795,-6.6873,-6.7342,-6.8122,-6.8279,-6.9215,-7.0699,-7.0777,-7.1285,-7.2065,-7.2885,-7.3275,-7.3588,-7.5227,-7.5811,-7.6064,-8.5062,-8.5333,-8.5526,-8.5333,-8.5294,-8.5372,-8.5565,-8.4753,-8.4173,-8.4327,-8.3592,-8.3399,-8.425,-8.2819,-8.2741,-8.5101,-8.514,-8.4095,-8.1929,-8.2432,-8.2393,-8.1542,-8.0691,-7.9918,-7.926,-7.8254,-7.7365,-7.6668,-7.6475,-7.6397,-7.6397,-7.6397,-7.6397,-7.6397,-7.6397,-7.6397,-7.6409,-7.6621,-7.7563,-7.888,-7.845,-7.861,-7.9032,-7.8392,-7.7584,-7.6843,-7.6843,-7.6946,-7.7046,-7.7147,-7.7187,-7.7187,-7.7187,-7.7187,-7.7187,-7.7187,-7.6562,-7.5703,-7.4844,-7.3945,-7.3086,-7.2226,-7.1992,-7.1992,-7.1992,-7.1992,-7.1992,-7.1992,-7.1992,-7.1953,-7.1758,-7.1172,-7.0586,-7.0234,-6.9062,-6.8125,-6.7929,-6.734,-6.6902,-6.6862,-6.6848,-6.6795,-6.6795,-6.6795,-6.6795,-6.6795,-6.6795,-6.6795,-6.6795,-6.6795,-6.6795,-6.6795,-6.6795,-6.6795,-6.6795,-6.6795,-6.6795,-6.6795,-6.6795,-6.6795,-6.6834,-6.7498,-6.7927,-6.8161,-6.9528,-7.0348,-7.0738,-7.1441,-7.1831,-7.2026,-7.2221,-7.308,-7.4369,-7.5423,-7.6666,-7.8004,-8.4714,-8.5372,-8.5797,-8.5372,-8.5294,-8.5449,-8.5875,-8.4869,-8.425,-8.4637,-8.3592,-8.3128,-8.3979,-8.2548,-8.2045,-8.336,-8.425,-8.3824,-8.1646,-8.2316,-8.2393,-8.1542,-8.1078,-8.042,-7.9608,-7.8757,-7.7674,-7.6397,-7.6397,-7.6397,-7.6397,-7.6397,-7.6397,-7.6397,-7.6397,-7.6397,-7.6397,-7.6397,-7.7213,-7.8504,-7.8524,-7.8794,-7.9161,-7.8777,-7.8068,-7.7283,-7.6855,-7.6833,-7.7032,-7.7146,-7.7187,-7.7187,-7.7187,-7.7187,-7.7187,-7.7187,-7.6875,-7.625,-7.4961,-7.4258,-7.3594,-7.2305,-7.1992,-7.1992,-7.1992,-7.1992,-7.1992,-7.1992,-7.1992,-7.1992,-7.1992,-7.164,-7.1172,-7.0781,-6.9961,-6.9101,-6.832,-6.781,-6.7376,-6.6943,-6.6854,-6.6802,-6.6798,-6.6795,-6.6795,-6.6795,-6.6795,-6.6795,-6.6795,-6.6795,-6.6795,-6.6795,-6.6795,-6.6795,-6.6795,-6.6795,-6.6795,-6.6795,-6.6795,-6.6795,-6.6834,-6.7693,-6.8318,-6.8786,-7.0113,-7.0933,-7.1363,-7.1792,-7.1987,-7.2065,-7.2885,-7.3978,-7.5266,-7.6555,-7.8097,-7.9613,-8.4753,-8.5875,-8.6571,-8.5681,-8.541,-8.5526,-8.6261,-8.5062,-8.4327,-8.5024,-8.3863,-8.3283,-8.4018,-8.2819,-8.189,-8.1736,-8.3167,-8.336,-8.162,-8.2316,-8.2393,-8.1542,-8.1491,-8.1078,-8.0227,-7.9415,-7.8216,-7.663,-7.6475,-7.6397,-7.6397,-7.6397,-7.6397,-7.6397,-7.6397,-7.6397,-7.6397,-7.6397,-7.69,-7.7775,-7.8747,-7.9104,-7.9013,-7.93,-7.8738,-7.7758,-7.7059,-7.6837,-7.6961,-7.7144,-7.7187,-7.7186,-7.7187,-7.7187,-7.7187,-7.7187,-7.7187,-7.6836,-7.5273,-7.4726,-7.4219,-7.2617,-7.2109,-7.1992,-7.1992,-7.1992,-7.1992,-7.1992,-7.1992,-7.1992,-7.1992,-7.1992,-7.1758,-7.1055,-7.0781,-7.0195,-6.8828,-6.8397,-6.7925,-6.7219,-6.6935,-6.6807,-6.6798,-6.6795,-6.6795,-6.6795,-6.6795,-6.6795,-6.6795,-6.6795,-6.6795,-6.6795,-6.6795,-6.6795,-6.6795,-6.6795,-6.6795,-6.6795,-6.6951,-6.7029,-6.7068,-6.7927,-6.8786,-6.9684,-7.0543,-7.1324,-7.1987,-7.1987,-7.2104,-7.2378,-7.39,-7.511,-7.6242,-7.8155,-7.9756,-8.0965,-8.7383,-8.7577,-8.7461,-8.6571,-8.5797,-8.5333,-8.5449,-8.4675,-8.4134,-8.425,-8.4057,-8.3979,-8.4095,-8.3902,-8.3438,-8.2703,-8.3515,-8.336,-8.162,-8.2316,-8.2393,-8.1542,-8.1491,-8.1078,-8.0227,-7.9415,-7.8525,-7.7519,-7.6784,-7.6397,-7.6397,-7.6397,-7.6397,-7.6397,-7.6397,-7.6397,-7.6397,-7.6397,-7.69,-7.779,-7.8677,-7.9025,-7.9067,-7.9799,-7.9076,-7.7732,-7.7566,-7.7157,-7.6706,-7.7091,-7.7103,-7.7041,-7.7147,-7.7187,-7.7187,-7.7187,-7.7187,-7.6992,-7.5976,-7.5156,-7.4375,-7.3359,-7.2578,-7.1992,-7.1992,-7.1992,-7.1992,-7.1992,-7.1992,-7.1992,-7.1992,-7.1992,-7.1953,-7.1836,-7.1172,-7.0625,-7.039,-6.91,-6.8161,-6.8043,-6.7292,-6.6807,-6.6798,-6.6795,-6.6795,-6.6795,-6.6795,-6.6795,-6.6795,-6.6795,-6.6795,-6.6795,-6.6795,-6.6795,-6.6795,-6.6795,-6.6795,-6.6795,-6.7576,-6.7927,-6.7966,-6.8825,-6.9684,-7.0582,-7.1441,-7.187,-7.1987,-7.1987,-7.2456,-7.3236,-7.4134,-7.5501,-7.7218,-7.9717,-8.1272,-8.2081,-8.7731,-8.7499,-8.7228,-8.7306,-8.661,-8.6029,-8.6029,-8.572,-8.5488,-8.5488,-8.5062,-8.4753,-8.4753,-8.4366,-8.394,-8.3554,-8.3863,-8.3786,-8.3012,-8.2857,-8.2625,-8.2238,-8.1774,-8.1078,-8.0227,-7.9415,-7.8564,-7.7713,-7.6823,-7.6397,-7.6397,-7.6397,-7.6397,-7.6397,-7.6397,-7.6397,-7.6397,-7.6397,-7.663,-7.7094,-7.8448,-7.8989,-7.9105,-7.9879,-7.9724,-7.8963,-7.8131,-7.7584,-7.7299,-7.7128,-7.7044,-7.7034,-7.7146,-7.7187,-7.7187,-7.7187,-7.7187,-7.6992,-7.6133,-7.5273,-7.4375,-7.3515,-7.2656,-7.1992,-7.1992,-7.1992,-7.1992,-7.1992,-7.1992,-7.1992,-7.1992,-7.1992,-7.1992,-7.1992,-7.168,-7.125,-7.0781,-7.0078,-6.9256,-6.8275,-6.7796,-6.7317,-6.6837,-6.6795,-6.6795,-6.6795,-6.6795,-6.6795,-6.6795,-6.6795,-6.6795,-6.6795,-6.6795,-6.6795,-6.6795,-6.6795,-6.6795,-6.6795,-6.7693,-6.8083,-6.8161,-6.9528,-7.0348,-7.0738,-7.1636,-7.1987,-7.1987,-7.1987,-7.2221,-7.2768,-7.4525,-7.6906,-7.9483,-8.1122,-8.1981,-8.2293]},{"header":{"parameterUnit":"m.s-1","parameterCategory":1,"la1":30.6,"la2":28.766,"lo1":-90.7593,"lo2":-88.6598,"dx":0.0162,"dy":0.0183,"nx":116,"ny":114,"refTime":"2022-12-02T06:00:00:Z","depth":0,"parameterNumber":3,"parameterNumberName":"V-component_of_WINDS"},"data":[0.0,0.0,0.0,0.0,0.0,0.0,0.0,0.0,0.0,0.0,0.0,0.0,0.0,0.0,0.0,0.0,0.0,0.0,0.0,0.0,0.0,0.0,0.0,0.0,0.0,0.0,0.0,0.0,0.0,0.0,0.0,0.0,0.0,0.0,0.0,0.0,0.0,0.0,0.0,0.0,0.0,0.0,0.0,0.0,0.0,0.0,0.0,0.0,0.0,0.0,0.0,0.0,0.0,0.0,0.0,0.0,0.0,0.0,0.0,0.0,0.0,0.0,0.0,0.0,0.0,0.0,0.0,0.0,0.0,0.0,0.0,0.0,0.0,0.0,0.0,0.0,0.0,0.0,0.0,0.0,0.0,0.0,0.0,0.0,0.0,0.0,0.0,0.0,0.0,0.0,0.0,0.0,0.0,0.0,0.0,0.0,0.0,0.0,0.0,0.0,0.0,0.0,0.0,0.0,0.0,0.0,0.0,0.0,0.0,0.0,0.0,0.0,0.0,0.0,0.0,0.0,0.0,0.0,0.0,0.0,0.0,0.0,0.0,0.0,0.0,0.0,0.0,0.0,0.0,0.0,0.0,0.0,0.0,0.0,0.0,0.0,0.0,0.0,0.0,0.0,0.0,0.0,0.0,0.0,0.0,0.0,0.0,0.0,0.0,0.0,0.0,0.0,0.0,0.0,0.0,0.0,0.0,0.0,0.0,0.0,0.0,0.0,0.0,0.0,0.0,0.0,0.0,0.0,0.0,0.0,0.0,0.0,0.0,0.0,0.0,0.0,0.0,0.0,0.0,0.0,0.0,0.0,0.0,0.0,0.0,0.0,0.0,0.0,0.0,0.0,0.0,0.0,0.0,0.0,0.0,0.0,0.0,0.0,0.0,0.0,0.0,0.0,0.0,0.0,0.0,0.0,0.0,0.0,0.0,0.0,0.0,0.0,0.0,0.0,0.0,0.0,0.0,0.0,0.0,0.0,0.0,0.0,0.0,0.0,0.0,0.0,0.0,0.0,0.0,0.0,0.0,0.0,0.0,0.0,0.0,0.0,0.0,0.0,0.0,0.0,0.0,0.0,0.0,0.0,0.0,0.0,0.0,0.0,0.0,0.0,0.0,0.0,0.0,0.0,0.0,0.0,0.0,0.0,0.0,0.0,0.0,0.0,0.0,0.0,0.0,0.0,0.0,0.0,0.0,0.0,0.0,0.0,0.0,0.0,0.0,0.0,0.0,0.0,0.0,0.0,0.0,0.0,0.0,0.0,0.0,0.0,0.0,0.0,0.0,0.0,0.0,0.0,0.0,0.0,0.0,0.0,0.0,0.0,0.0,0.0,0.0,0.0,0.0,0.0,0.0,0.0,0.0,0.0,0.0,0.0,0.0,0.0,0.0,0.0,0.0,0.0,0.0,0.0,0.0,0.0,0.0,0.0,0.0,0.0,0.0,0.0,0.0,0.0,0.0,0.0,0.0,0.0,0.0,0.0,0.0,0.0,0.0,0.0,0.0,0.0,0.0,0.0,0.0,0.0,0.0,0.0,0.0,0.0,0.0,0.0,0.0,0.0,0.0,0.0,0.0,0.0,0.0,0.0,0.0,0.0,0.0,0.0,0.0,0.0,0.0,0.0,0.0,0.0,0.0,0.0,0.0,0.0,0.0,0.0,0.0,0.0,0.0,0.0,0.0,0.0,0.0,0.0,0.0,0.0,0.0,0.0,0.0,0.0,0.0,0.0,0.0,0.0,0.0,0.0,0.0,0.0,0.0,0.0,0.0,0.0,0.0,0.0,0.0,0.0,0.0,0.0,0.0,0.0,0.0,0.0,0.0,0.0,0.0,0.0,0.0,0.0,0.0,0.0,0.0,0.0,0.0,0.0,0.0,0.0,0.0,0.0,0.0,0.0,0.0,0.0,0.0,0.0,0.0,0.0,0.0,0.0,0.0,0.0,0.0,0.0,0.0,0.0,0.0,0.0,0.0,0.0,0.0,0.0,0.0,0.0,0.0,0.0,0.0,0.0,0.0,0.0,0.0,0.0,0.0,0.0,0.0,0.0,0.0,0.0,0.0,0.0,0.0,0.0,0.0,0.0,0.0,0.0,0.0,0.0,0.0,0.0,0.0,0.0,0.0,0.0,0.0,0.0,0.0,0.0,0.0,0.0,0.0,0.0,0.0,0.0,0.0,0.0,0.0,0.0,0.0,0.0,0.0,0.0,0.0,0.0,0.0,0.0,0.0,0.0,0.0,0.0,0.0,0.0,0.0,0.0,0.0,0.0,0.0,0.0,0.0,0.0,0.0,0.0,0.0,0.0,0.0,0.0,0.0,0.0,0.0,0.0,0.0,0.0,0.0,0.0,0.0,0.0,0.0,0.0,0.0,0.0,0.0,0.0,0.0,0.0,0.0,0.0,0.0,0.0,0.0,0.0,0.0,0.0,0.0,0.0,0.0,0.0,0.0,0.0,0.0,0.0,0.0,0.0,0.0,0.0,0.0,0.0,0.0,0.0,0.0,0.0,0.0,0.0,0.0,0.0,0.0,0.0,0.0,0.0,0.0,0.0,0.0,0.0,0.0,0.0,0.0,0.0,0.0,0.0,0.0,0.0,0.0,0.0,0.0,0.0,0.0,0.0,0.0,0.0,0.0,0.0,0.0,0.0,0.0,0.0,0.0,0.0,0.0,0.0,0.0,0.0,0.0,0.0,0.0,0.0,0.0,0.0,0.0,0.0,0.0,0.0,0.0,0.0,0.0,0.0,0.0,0.0,0.0,0.0,0.0,0.0,0.0,0.0,0.0,0.0,0.0,0.0,0.0,0.0,0.0,0.0,0.0,0.0,0.0,0.0,0.0,0.0,0.0,0.0,0.0,0.0,0.0,0.0,0.0,0.0,0.0,0.0,0.0,0.0,0.0,0.0,0.0,0.0,0.0,0.0,0.0,0.0,0.0,0.0,0.0,0.0,0.0,0.0,0.0,0.0,0.0,0.0,0.0,0.0,0.0,0.0,0.0,0.0,0.0,0.0,0.0,0.0,0.0,0.0,0.0,0.0,0.0,0.0,0.0,0.0,0.0,0.0,0.0,0.0,0.0,0.0,0.0,0.0,0.0,0.0,0.0,0.0,0.0,0.0,0.0,0.0,0.0,0.0,0.0,0.0,0.0,0.0,0.0,0.0,0.0,0.0,0.0,0.0,0.0,0.0,0.0,0.0,0.0,0.0,0.0,0.0,0.0,0.0,0.0,0.0,0.0,0.0,0.0,0.0,0.0,0.0,0.0,0.0,0.0,0.0,0.0,0.0,0.0,0.0,0.0,0.0,0.0,0.0,0.0,0.0,0.0,0.0,0.0,0.0,0.0,0.0,0.0,0.0,0.0,0.0,0.0,0.0,0.0,0.0,0.0,0.0,0.0,0.0,0.0,0.0,0.0,0.0,0.0,0.0,0.0,0.0,0.0,0.0,0.0,0.0,0.0,0.0,0.0,0.0,0.0,0.0,0.0,0.0,0.0,0.0,0.0,0.0,0.0,0.0,0.0,0.0,0.0,0.0,0.0,0.0,0.0,0.0,0.0,0.0,0.0,0.0,0.0,0.0,0.0,0.0,0.0,0.0,0.0,0.0,0.0,0.0,0.0,0.0,0.0,0.0,0.0,0.0,0.0,0.0,0.0,0.0,0.0,0.0,0.0,0.0,0.0,0.0,0.0,0.0,0.0,0.0,0.0,0.0,0.0,0.0,0.0,0.0,0.0,0.0,0.0,0.0,0.0,0.0,0.0,0.0,0.0,0.0,0.0,0.0,0.0,0.0,0.0,0.0,0.0,0.0,0.0,0.0,0.0,0.0,0.0,0.0,0.0,0.0,0.0,0.0,0.0,0.0,0.0,0.0,0.0,0.0,0.0,0.0,0.0,0.0,0.0,0.0,0.0,0.0,0.0,0.0,0.0,0.0,0.0,0.0,0.0,0.0,0.0,0.0,0.0,0.0,0.0,0.0,0.0,0.0,0.0,0.0,0.0,0.0,0.0,0.0,0.0,0.0,0.0,0.0,0.0,0.0,0.0,0.0,0.0,0.0,0.0,0.0,0.0,0.0,0.0,0.0,0.0,0.0,0.0,0.0,0.0,0.0,0.0,0.0,0.0,0.0,0.0,0.0,0.0,0.0,0.0,0.0,0.0,0.0,0.0,0.0,0.0,0.0,0.0,0.0,0.0,0.0,0.0,0.0,0.0,0.0,0.0,0.0,0.0,0.0,0.0,0.0,0.0,0.0,0.0,0.0,0.0,0.0,0.0,0.0,0.0,0.0,0.0,0.0,0.0,0.0,0.0,0.0,0.0,0.0,0.0,0.0,0.0,0.0,0.0,0.0,0.0,0.0,0.0,0.0,0.0,0.0,0.0,0.0,0.0,0.0,0.0,0.0,0.0,0.0,0.0,0.0,0.0,0.0,0.0,0.0,0.0,0.0,0.0,0.0,0.0,0.0,0.0,0.0,0.0,0.0,0.0,0.0,0.0,0.0,0.0,0.0,0.0,0.0,0.0,0.0,0.0,0.0,0.0,0.0,0.0,0.0,0.0,0.0,0.0,0.0,0.0,0.0,0.0,0.0,0.0,0.0,0.0,0.0,0.0,0.0,0.0,0.0,0.0,0.0,0.0,0.0,0.0,0.0,0.0,0.0,0.0,0.0,0.0,0.0,0.0,0.0,0.0,0.0,0.0,0.0,0.0,0.0,0.0,0.0,0.0,0.0,0.0,0.0,0.0,0.0,0.0,0.0,0.0,0.0,0.0,0.0,0.0,0.0,0.0,0.0,0.0,0.0,0.0,0.0,0.0,0.0,0.0,0.0,0.0,0.0,0.0,0.0,0.0,0.0,0.0,0.0,0.0,0.0,0.0,0.0,0.0,0.0,0.0,0.0,0.0,0.0,0.0,0.0,0.0,0.0,0.0,0.0,0.0,0.0,0.0,0.0,0.0,0.0,0.0,0.0,0.0,0.0,0.0,0.0,0.0,0.0,0.0,0.0,0.0,0.0,0.0,0.0,0.0,0.0,0.0,0.0,0.0,0.0,0.0,0.0,0.0,0.0,0.0,0.0,0.0,0.0,0.0,0.0,0.0,0.0,0.0,0.0,0.0,0.0,0.0,0.0,0.0,0.0,0.0,0.0,0.0,0.0,0.0,0.0,0.0,0.0,0.0,0.0,0.0,0.0,0.0,0.0,0.0,0.0,0.0,0.0,0.0,0.0,0.0,0.0,0.0,0.0,0.0,0.0,0.0,0.0,0.0,0.0,0.0,0.0,0.0,0.0,0.0,0.0,0.0,0.0,0.0,0.0,0.0,0.0,0.0,0.0,0.0,0.0,0.0,0.0,0.0,0.0,0.0,0.0,0.0,0.0,0.0,0.0,0.0,0.0,0.0,0.0,0.0,0.0,0.0,0.0,0.0,0.0,0.0,0.0,0.0,0.0,0.0,0.0,0.0,0.0,0.0,0.0,0.0,0.0,0.0,0.0,0.0,0.0,0.0,0.0,0.0,0.0,0.0,0.0,0.0,0.0,0.0,0.0,0.0,0.0,0.0,0.0,0.0,0.0,0.0,0.0,0.0,0.0,0.0,0.0,0.0,0.0,0.0,0.0,0.0,0.0,0.0,0.0,0.0,0.0,0.0,0.0,0.0,0.0,0.0,0.0,0.0,0.0,0.0,0.0,0.0,0.0,0.0,0.0,0.0,0.0,0.0,0.0,0.0,0.0,0.0,0.0,0.0,0.0,0.0,0.0,0.0,0.0,0.0,0.0,0.0,0.0,0.0,0.0,0.0,0.0,0.0,0.0,0.0,0.0,0.0,0.0,0.0,0.0,0.0,0.0,0.0,0.0,0.0,0.0,0.0,0.0,0.0,0.0,0.0,0.0,0.0,0.0,0.0,0.0,0.0,0.0,0.0,0.0,0.0,0.0,0.0,0.0,0.0,0.0,0.0,0.0,0.0,0.0,0.0,0.0,0.0,0.0,0.0,0.0,0.0,0.0,0.0,0.0,0.0,0.0,0.0,0.0,0.0,0.0,0.0,0.0,0.0,0.0,0.0,0.0,0.0,0.0,0.0,0.0,0.0,0.0,0.0,0.0,0.0,0.0,-0.8732,-0.8225,0.0,0.0,0.0,0.0,0.0,0.0,0.0,0.0,0.0,0.0,0.0,0.0,0.0,0.0,0.0,0.0,0.0,0.0,0.0,0.0,0.0,0.0,0.0,0.0,0.0,0.0,0.0,0.0,0.0,0.0,0.0,0.0,0.0,0.0,0.0,0.0,0.0,0.0,0.0,0.0,0.0,0.0,0.0,0.0,0.0,0.0,0.0,0.0,0.0,0.0,0.0,0.0,0.0,0.0,0.0,0.0,0.0,0.0,0.0,0.0,0.0,0.0,0.0,0.0,0.0,0.0,0.0,0.0,0.0,0.0,0.0,0.0,0.0,0.0,0.0,0.0,0.0,0.0,0.0,0.0,0.0,0.0,0.0,0.0,0.0,0.0,0.0,0.0,0.0,0.0,0.0,0.0,0.0,0.0,0.0,0.0,0.0,0.0,0.0,0.0,0.0,0.0,0.0,0.0,0.0,0.0,0.0,0.0,0.0,0.0,0.0,0.0,0.0,0.0,-0.9395,-0.8914,0.0,0.0,0.0,0.0,0.0,0.0,0.0,0.0,0.0,0.0,0.0,0.0,0.0,0.0,0.0,0.0,0.0,0.0,0.0,0.0,0.0,0.0,0.0,0.0,0.0,0.0,0.0,0.0,0.0,0.0,0.0,0.0,0.0,0.0,0.0,0.0,0.0,0.0,0.0,0.0,0.0,0.0,0.0,0.0,0.0,0.0,0.0,0.0,0.0,0.0,0.0,0.0,0.0,0.0,0.0,0.0,0.0,0.0,0.0,0.0,0.0,0.0,0.0,0.0,0.0,0.0,0.0,0.0,0.0,0.0,0.0,0.0,0.0,0.0,0.0,0.0,0.0,0.0,0.0,0.0,0.0,0.0,0.0,0.0,0.0,0.0,0.0,0.0,0.0,0.0,0.0,0.0,0.0,0.0,0.0,0.0,0.0,0.0,0.0,0.0,0.0,0.0,0.0,0.0,0.0,0.0,0.0,0.0,-0.9318,-0.9651,-0.9809,-0.9992,-1.0225,-1.0499,-0.9955,-0.9546,-0.9283,-0.9315,0.0,0.0,0.0,0.0,0.0,0.0,0.0,0.0,0.0,0.0,0.0,0.0,0.0,0.0,0.0,0.0,0.0,0.0,0.0,0.0,0.0,0.0,0.0,0.0,0.0,0.0,0.0,0.0,0.0,0.0,0.0,0.0,0.0,0.0,0.0,0.0,0.0,0.0,0.0,0.0,0.0,0.0,0.0,0.0,0.0,0.0,0.0,0.0,0.0,0.0,0.0,0.0,0.0,0.0,0.0,0.0,0.0,0.0,0.0,0.0,0.0,0.0,0.0,0.0,0.0,0.0,0.0,0.0,0.0,0.0,0.0,0.0,0.0,0.0,0.0,0.0,0.0,0.0,0.0,0.0,0.0,0.0,0.0,0.0,0.0,0.0,-0.5705,-0.6564,0.0,0.0,0.0,0.0,0.0,0.0,0.0,0.0,0.0,0.0,0.0,0.0,0.0,-0.8438,-0.8587,-0.9266,-0.9545,-0.9292,-0.9919,-1.0036,-0.9816,-1.0123,-1.0123,-0.9919,-1.0342,0.0,-1.0082,-1.0193,0.0,0.0,0.0,0.0,0.0,0.0,0.0,0.0,0.0,0.0,0.0,0.0,0.0,0.0,0.0,0.0,0.0,0.0,0.0,0.0,0.0,0.0,0.0,0.0,0.0,0.0,0.0,0.0,0.0,0.0,0.0,0.0,0.0,0.0,0.0,0.0,0.0,0.0,0.0,0.0,0.0,0.0,0.0,0.0,0.0,0.0,0.0,0.0,0.0,0.0,0.0,0.0,0.0,0.0,0.0,0.0,0.0,0.0,0.0,0.0,0.0,0.0,0.0,0.0,0.0,0.0,0.0,0.0,0.0,0.0,0.0,0.0,0.0,0.0,0.0,0.0,0.0,0.0,0.0,0.0,0.0,0.0,0.0,0.0,0.0,-0.4047,-0.5051,-0.5751,-0.5833,-0.5737,0.0,0.0,0.0,0.0,0.0,0.0,0.0,0.0,0.0,-0.8811,-0.875,-0.8811,-0.896,-0.93,-0.9441,-0.9418,-0.996,-1.0119,-0.9946,-1.0456,-1.0573,-1.0311,-1.0763,-1.085,-1.0669,-1.059,-1.0444,-1.0209,0.0,0.0,0.0,0.0,-0.9543,-0.9567,0.0,0.0,0.0,0.0,0.0,0.0,0.0,0.0,0.0,0.0,0.0,0.0,0.0,0.0,0.0,0.0,0.0,0.0,0.0,0.0,0.0,0.0,0.0,0.0,0.0,0.0,0.0,0.0,0.0,0.0,0.0,0.0,0.0,0.0,0.0,0.0,0.0,0.0,0.0,0.0,0.0,0.0,0.0,0.0,0.0,0.0,0.0,0.0,0.0,0.0,0.0,0.0,0.0,0.0,0.0,0.0,0.0,0.0,0.0,0.0,0.0,0.0,0.0,0.0,0.0,0.0,0.0,0.0,0.0,0.0,0.0,0.0,0.0,0.0,0.0,0.0,0.0,-0.4216,-0.5116,-0.5902,-0.6025,-0.6085,0.0,0.0,0.0,0.0,0.0,0.0,-0.8648,-0.8723,-0.892,-0.9316,-0.913,-0.9137,-0.9378,-0.9442,-0.9476,-0.9559,-1.0082,-1.0295,-1.0193,-1.0781,-1.0946,-1.0763,-1.1051,-1.1094,-1.0964,-1.0834,-1.0737,-1.068,-1.055,-1.055,-1.059,-1.0274,-1.0128,-1.0144,0.0,0.0,0.0,0.0,0.0,0.0,0.0,0.0,0.0,0.0,0.0,0.0,0.0,0.0,0.0,0.0,0.0,0.0,0.0,0.0,0.0,0.0,0.0,0.0,0.0,0.0,0.0,0.0,0.0,0.0,0.0,0.0,0.0,0.0,0.0,0.0,0.0,0.0,0.0,0.0,0.0,0.0,0.0,0.0,0.0,0.0,0.0,0.0,0.0,0.0,0.0,0.0,0.0,0.0,0.0,0.0,0.0,0.0,0.0,0.0,0.0,0.0,0.0,0.0,0.0,0.0,0.0,0.0,0.0,0.0,0.0,0.0,0.0,0.0,0.0,0.0,0.0,0.0,0.0,-0.8532,-0.8581,0.0,0.0,0.0,0.0,-0.9026,-0.8925,-0.8967,-0.9166,-0.8994,-0.913,-0.9571,-0.9442,-0.9496,-0.9781,-1.0091,-1.0141,-0.9947,-1.0665,-1.0824,-1.0655,-1.1001,-1.1059,-1.082,-1.1109,-1.1043,-1.0797,-1.0916,-1.085,-1.0688,-1.068,-1.0582,-1.0485,-1.0802,-1.0802,-1.0704,0.0,0.0,0.0,0.0,0.0,0.0,0.0,0.0,0.0,0.0,0.0,0.0,0.0,0.0,0.0,0.0,0.0,0.0,0.0,0.0,0.0,0.0,0.0,0.0,0.0,0.0,0.0,0.0,0.0,0.0,0.0,0.0,0.0,0.0,0.0,0.0,0.0,0.0,0.0,0.0,0.0,0.0,0.0,0.0,0.0,0.0,0.0,0.0,0.0,0.0,0.0,0.0,0.0,0.0,0.0,0.0,0.0,0.0,0.0,0.0,0.0,0.0,0.0,0.0,0.0,0.0,0.0,0.0,0.0,0.0,0.0,0.0,0.0,0.0,0.0,0.0,0.0,0.0,0.0,-0.7891,-0.8575,0.0,-0.9293,-0.9089,-0.8994,-0.92,-0.9286,-0.9395,-0.9442,-0.9673,-0.9829,-0.9829,-0.9741,-0.9713,-0.9822,-0.9847,-0.9838,-0.9731,-1.006,-1.0194,-1.0137,-1.0495,-1.0554,-1.0487,-1.0686,-1.0817,-1.0918,-1.0862,-1.0995,-1.1224,-1.1346,-1.1354,-1.1313,-1.1443,-1.1443,-1.1411,0.0,0.0,0.0,0.0,0.0,0.0,0.0,0.0,0.0,0.0,0.0,0.0,0.0,0.0,0.0,0.0,0.0,0.0,0.0,0.0,0.0,0.0,0.0,0.0,0.0,0.0,0.0,0.0,0.0,0.0,0.0,0.0,0.0,0.0,0.0,0.0,0.0,0.0,0.0,0.0,0.0,0.0,0.0,0.0,0.0,0.0,0.0,0.0,0.0,0.0,0.0,0.0,0.0,0.0,0.0,0.0,0.0,0.0,0.0,0.0,0.0,0.0,0.0,0.0,0.0,0.0,0.0,0.0,0.0,0.0,0.0,0.0,0.0,0.0,0.0,0.0,0.0,-0.6172,-0.7427,-0.8085,-0.878,-0.9268,-0.9361,-0.9245,-0.9225,-0.9367,-0.9612,-0.9754,-0.9754,-1.0086,-1.0256,-1.0202,-1.01,-1.0073,-1.0127,-1.0032,-0.9985,-0.9985,-1.0204,-1.0218,-1.0232,-1.0667,-1.0823,-1.0834,-1.1035,-1.1224,-1.1458,-1.128,-1.1423,-1.176,-1.1638,-1.1589,-1.1598,-1.1663,-1.1687,-1.1695,0.0,0.0,0.0,0.0,0.0,0.0,0.0,0.0,0.0,0.0,0.0,0.0,0.0,0.0,0.0,0.0,0.0,0.0,0.0,0.0,0.0,0.0,0.0,0.0,0.0,0.0,0.0,0.0,0.0,0.0,0.0,0.0,0.0,0.0,0.0,0.0,0.0,0.0,0.0,0.0,0.0,0.0,0.0,0.0,0.0,0.0,0.0,0.0,0.0,0.0,0.0,0.0,0.0,0.0,0.0,0.0,0.0,0.0,0.0,0.0,0.0,0.0,0.0,0.0,0.0,0.0,0.0,0.0,0.0,0.0,0.0,0.0,0.0,0.0,0.0,0.0,-0.6945,-0.7129,-0.775,-0.9205,-0.9309,-0.9391,-0.9774,-0.9686,-0.9659,-0.9808,-0.9903,-0.9997,-1.0004,-1.0215,-1.0371,-1.05,-1.0507,-1.0575,-1.0724,-1.0724,-1.0724,-1.0717,-1.1056,-1.111,-1.102,-1.166,-1.1898,-1.1806,-1.2123,-1.2249,-1.2304,-1.2304,-1.2304,-1.2239,-1.1524,-1.1248,-1.1273,-1.1443,-1.1508,-1.1533,0.0,0.0,0.0,0.0,0.0,0.0,0.0,0.0,0.0,0.0,0.0,0.0,0.0,0.0,0.0,0.0,0.0,0.0,0.0,0.0,0.0,0.0,0.0,0.0,0.0,0.0,0.0,0.0,0.0,0.0,0.0,0.0,0.0,0.0,0.0,0.0,0.0,0.0,0.0,0.0,0.0,0.0,0.0,0.0,0.0,0.0,0.0,0.0,0.0,0.0,0.0,0.0,0.0,0.0,0.0,0.0,0.0,0.0,0.0,0.0,0.0,0.0,0.0,0.0,0.0,0.0,0.0,0.0,0.0,0.0,0.0,0.0,0.0,0.0,-0.5211,-0.5926,-0.7287,-0.822,-0.8946,-0.9458,-0.9408,-0.9408,-0.9646,-0.953,-0.9551,-0.9802,-1.0066,-1.0263,-1.0365,-1.0717,-1.0887,-1.0759,-1.0759,-1.0846,-1.082,-1.082,-1.0833,-1.0724,-1.09,-1.1073,-1.1249,-1.1381,-1.1555,-1.1656,-1.1721,-1.1851,-1.1925,-1.1925,-1.2051,-1.2272,-1.1939,-1.1809,-1.1801,-1.1727,-1.1703,-1.1711,0.0,0.0,0.0,0.0,0.0,0.0,0.0,0.0,0.0,0.0,0.0,0.0,0.0,0.0,0.0,0.0,0.0,0.0,0.0,0.0,0.0,0.0,0.0,0.0,0.0,0.0,0.0,0.0,0.0,0.0,0.0,0.0,0.0,0.0,0.0,0.0,0.0,0.0,0.0,0.0,0.0,0.0,0.0,0.0,0.0,-0.0051,-0.0293,-0.0379,-0.0464,-0.09,0.0,0.0,0.0,0.0,0.0,0.0,0.0,0.0,0.0,0.0,0.0,0.0,0.0,0.0,0.0,0.0,0.0,0.0,0.0,0.0,0.0,0.0,0.0,0.0,-0.5553,-0.6272,-0.8099,-0.8922,-0.9367,-0.9585,-0.9476,-0.9462,-0.968,-0.9618,-0.9713,-1.0073,-1.0331,-1.0527,-1.0677,-1.105,-1.1219,-1.1138,-1.113,-1.1157,-1.1157,-1.1157,-1.1116,-1.1097,-1.1185,-1.122,-1.1342,-1.1478,-1.1596,-1.1637,-1.1969,-1.2076,-1.2126,-1.2248,-1.2402,0.0,0.0,0.0,0.0,0.0,-1.1996,-1.1996,0.0,0.0,0.0,0.0,0.0,0.0,0.0,0.0,0.0,0.0,0.0,0.0,0.0,0.0,0.0,0.0,0.0,0.0,0.0,0.0,0.0,0.0,0.0,0.0,0.0,0.0,0.0,0.0,0.0,0.0,0.0,0.0,0.0,0.0,0.0,0.0,0.0,0.0,0.0,0.0,0.0,0.0,0.0,0.0,0.0,-0.0054,-0.0358,-0.0441,-0.0523,-0.1066,0.0,0.0,0.0,0.0,0.0,0.0,0.0,0.0,0.0,0.0,0.0,0.0,0.0,0.0,0.0,0.0,0.0,0.0,0.0,0.0,0.0,0.0,0.0,0.0,-0.5718,-0.6663,-0.8929,-0.9127,-0.9185,-0.9578,-0.9503,-0.9537,-0.9822,-0.9863,-1.0053,-1.0487,-1.0656,-1.0819,-1.0921,-1.1267,0.0,0.0,0.0,-1.1619,-1.1619,-1.1619,-1.1619,-1.1619,-1.1619,-1.1545,-1.1487,-1.1769,-1.1881,-1.1779,-1.2475,-1.2642,-1.2471,-1.2866,-1.2912,-1.2734,-1.2467,-1.232,-1.2304,-1.2304,-1.2304,-1.2304,0.0,0.0,0.0,0.0,0.0,0.0,0.0,0.0,0.0,0.0,0.0,0.0,0.0,0.0,0.0,0.0,0.0,0.0,0.0,0.0,0.0,0.0,0.0,0.0,0.0,0.0,0.0,0.0,0.0,0.0,0.0,0.0,0.0,0.0,0.0,0.0,0.0,0.0,0.0,0.0,0.0,0.0,0.0,0.0,0.0,-0.0058,-0.0629,-0.0781,-0.0869,-0.1493,-0.1657,-0.1622,-0.1598,-0.1565,0.0,0.0,0.0,0.0,0.0,0.0,0.0,0.0,0.0,0.0,0.0,0.0,0.0,0.0,0.0,0.0,0.0,0.0,0.0,-0.5454,-0.5639,-0.6195,-0.795,-0.8051,-0.8349,-0.9479,-0.9686,-0.9808,-0.9923,-1.012,-1.0324,-1.0649,-1.0819,-1.1023,-1.1294,-1.1477,-1.1572,-1.1572,-1.1606,-1.1619,-1.1619,-1.1619,-1.1619,-1.1619,-1.1619,0.0,-1.208,-1.2073,-1.2129,-1.22,-1.2337,-1.224,-1.1961,-1.2293,-1.26,-1.275,-1.2596,-1.2426,-1.2304,-1.2304,-1.2304,-1.2304,0.0,0.0,0.0,0.0,0.0,0.0,0.0,0.0,0.0,0.0,0.0,0.0,0.0,0.0,0.0,0.0,0.0,0.0,0.0,0.0,0.0,0.0,0.0,0.0,0.0,0.0,0.0,0.0,0.0,0.0,0.0,0.0,0.0,0.0,0.0,0.0,0.0,0.0,0.0,0.0,0.0,0.0,0.0,0.0,-0.0119,-0.0298,-0.0768,-0.0986,-0.1194,-0.1663,-0.1791,-0.1723,-0.1693,-0.1652,-0.1646,0.0,0.0,0.0,0.0,0.0,0.0,0.0,0.0,0.0,0.0,0.0,0.0,0.0,0.0,-0.1768,-0.1829,0.0,-0.3957,-0.4633,-0.5293,-0.6219,-0.7718,-0.7861,-0.8111,-0.8787,-0.9461,-0.9963,-1.0249,-1.0412,-1.0622,-1.0921,-1.1084,-1.1267,-1.1491,-1.1647,-1.1728,-1.1728,-1.1803,-1.1843,-1.1843,-1.1843,-1.1843,-1.1843,-1.1843,-1.199,-1.2129,-1.2053,-1.2,-1.2059,-1.2199,-1.2102,-1.1862,-1.2239,-1.2637,-1.2946,-1.2767,-1.2645,-1.2572,-1.2572,-1.2572,-1.2572,0.0,0.0,0.0,0.0,0.0,0.0,0.0,0.0,0.0,0.0,0.0,0.0,0.0,0.0,0.0,0.0,0.0,0.0,0.0,0.0,0.0,0.0,0.0,0.0,0.0,0.0,0.0,0.0,0.0,0.0,0.0,0.0,0.0,0.0,0.0,0.0,0.0,0.0,0.0,0.0,0.0,0.0,0.0,0.0,-0.0182,-0.0545,-0.0836,-0.1116,-0.1444,-0.1733,-0.1825,-0.1791,-0.1774,-0.179,-0.1685,-0.1674,-0.1584,0.0,0.0,0.0,0.0,0.0,0.0,0.0,0.0,-0.1722,-0.1729,-0.1843,-0.1842,-0.1838,-0.1894,-0.2962,-0.3782,-0.3734,-0.472,-0.5904,-0.6964,-0.75,-0.777,-0.7791,-0.9148,-1.0213,-1.0514,-1.0697,-1.0921,-1.1185,-1.1348,-1.1504,-1.1653,-1.1796,-1.1877,-1.1877,-1.1999,-1.2135,-1.2135,-1.2135,-1.2135,-1.2135,-1.2135,-1.2135,-1.206,-1.1932,-1.1843,-1.1782,-1.1965,-1.203,-1.2028,-1.2392,-1.2819,-1.3133,-1.2994,-1.2938,-1.2929,-1.2865,-1.2774,-1.2774,0.0,0.0,0.0,0.0,0.0,0.0,0.0,0.0,0.0,0.0,0.0,0.0,0.0,0.0,0.0,0.0,0.0,0.0,0.0,0.0,0.0,0.0,0.0,0.0,0.0,0.0,0.0,0.0,0.0,0.0,0.0,0.0,0.0,0.0,0.0,0.0,0.0,0.0,0.0,0.0,0.0,0.0,0.0,0.0,-0.0185,-0.0554,-0.086,-0.1146,-0.1469,-0.1762,-0.1842,-0.18,-0.1823,-0.1768,-0.1809,-0.1802,-0.1708,-0.1666,-0.158,-0.1561,-0.1642,-0.1756,-0.1707,-0.1723,0.0,-0.1804,-0.1847,-0.1941,-0.1937,-0.1926,-0.196,-0.2913,-0.3738,-0.3846,-0.3993,-0.4144,-0.4383,-0.559,-0.6443,-0.6593,-0.8978,-1.0656,-1.069,-1.0948,-1.1185,-1.1355,-1.1504,-1.1653,-1.1796,-1.1952,-1.2033,-1.2033,-1.2054,-1.2135,-1.2135,-1.2135,-1.2135,-1.2135,-1.2135,-1.2135,-1.2135,-1.2047,-1.1891,-1.1626,-1.1685,-1.1967,-1.2291,-1.2597,-1.2993,-1.3336,-1.3319,-1.3311,-1.3271,-1.2954,-1.2774,-1.2774,0.0,0.0,0.0,0.0,0.0,0.0,0.0,0.0,0.0,0.0,0.0,0.0,0.0,0.0,0.0,0.0,0.0,0.0,0.0,0.0,0.0,0.0,0.0,0.0,0.0,0.0,0.0,0.0,0.0,0.0,0.0,0.0,0.0,0.0,0.0,0.0,0.0,0.0,0.0,0.0,0.0,0.0,0.0,0.0,-0.0183,-0.0548,-0.067,-0.1015,0.0,-0.1586,-0.1567,-0.1598,-0.1799,-0.1854,-0.1828,-0.1822,-0.1795,-0.1726,-0.1707,-0.1714,-0.1744,-0.1812,-0.1806,-0.1809,-0.1849,-0.1898,-0.1888,-0.1962,-0.1966,-0.1962,-0.1974,-0.3005,-0.3605,-0.2895,-0.3413,-0.3951,-0.4074,-0.5354,-0.6675,-0.7563,-0.9612,-1.0948,-1.086,-1.1199,-1.1457,-1.1518,-1.1742,-1.1904,-1.1965,-1.2108,-1.2196,-1.2196,-1.2277,-1.2318,-1.2318,-1.2318,-1.2318,-1.2318,-1.2318,-1.2318,-1.2318,-1.223,-1.2026,-1.1735,-1.1965,-1.2286,-1.2615,-1.2874,-1.3183,-1.3522,-1.3417,-1.3368,-1.3336,-1.3084,-1.2986,-1.297,0.0,0.0,0.0,0.0,0.0,0.0,0.0,0.0,0.0,0.0,0.0,0.0,0.0,0.0,0.0,0.0,0.0,0.0,0.0,0.0,0.0,0.0,0.0,0.0,0.0,0.0,0.0,0.0,0.0,0.0,0.0,0.0,0.0,0.0,0.0,0.0,0.0,0.0,0.0,0.0,0.0,0.0,0.0,0.0,-0.0179,-0.0474,-0.0478,-0.0824,-0.1267,-0.1341,-0.1381,-0.1413,-0.1791,-0.1846,-0.1821,-0.1785,-0.1775,-0.1779,-0.1802,-0.1824,-0.1792,-0.1888,-0.1881,-0.182,-0.1932,-0.1926,-0.1925,-0.1977,-0.1988,-0.199,-0.2,-0.2808,-0.3118,-0.2187,-0.2844,-0.352,-0.3622,-0.524,-0.6837,-0.7937,-0.9936,-1.1199,-1.1069,-1.1463,-1.1694,-1.1735,-1.1979,-1.2128,-1.2128,-1.2271,-1.2345,-1.2345,-1.2447,-1.2501,-1.2501,-1.2501,-1.2501,-1.2501,-1.2501,-1.2501,-1.2494,-1.2505,-1.2313,-1.2093,-1.2531,-1.2859,-1.3028,-1.3216,-1.3436,-1.3701,-1.3571,-1.3514,-1.3498,-1.3311,-1.3214,-1.3157,0.0,0.0,0.0,0.0,0.0,0.0,0.0,0.0,0.0,0.0,0.0,0.0,0.0,0.0,0.0,0.0,0.0,0.0,0.0,0.0,0.0,0.0,0.0,0.0,0.0,0.0,0.0,0.0,0.0,0.0,0.0,0.0,0.0,0.0,0.0,0.0,0.0,0.0,0.0,0.0,0.0,0.0,0.0,0.0,-0.0173,-0.0395,-0.0466,-0.07,-0.0977,-0.1265,-0.1336,-0.1343,-0.1723,-0.1797,-0.1802,-0.1772,-0.178,-0.178,-0.1782,-0.1782,-0.1796,-0.1854,-0.1869,-0.1937,-0.1969,-0.1974,-0.1982,-0.2011,-0.2018,-0.2026,-0.2056,-0.2126,-0.2126,-0.2126,-0.2152,-0.2172,-0.2173,-0.4585,-0.6464,-0.6757,-0.9521,-1.1443,-1.1586,-1.1735,-1.1884,-1.204,-1.2196,-1.2284,-1.2284,-1.242,-1.2494,-1.2494,-1.2501,-1.2501,-1.2501,-1.2501,-1.2501,-1.2501,-1.2501,-1.2501,-1.2494,-1.2803,-1.2877,-1.2925,-1.3362,-1.359,-1.3566,-1.3826,-1.3896,-1.3896,-1.3888,-1.3888,-1.3863,-1.3693,-1.3514,-1.336,0.0,0.0,0.0,0.0,0.0,0.0,0.0,0.0,0.0,0.0,0.0,0.0,0.0,0.0,0.0,0.0,0.0,0.0,0.0,0.0,0.0,0.0,0.0,0.0,0.0,0.0,0.0,0.0,0.0,0.0,0.0,0.0,0.0,0.0,0.0,0.0,0.0,0.0,-0.012,-0.0239,-0.0301,-0.0417,-0.0586,-0.0421,-0.0353,-0.0394,0.0,-0.0624,-0.0919,-0.1007,-0.1166,-0.1365,-0.1772,-0.1855,-0.1853,-0.1786,-0.1811,-0.1837,-0.1876,-0.19,-0.1936,-0.1956,-0.1962,-0.1964,-0.1974,-0.1977,-0.1979,-0.1989,-0.199,-0.2,-0.2029,-0.2034,-0.2041,-0.2126,-0.209,-0.2116,-0.2136,-0.4723,-0.665,-0.6803,-0.956,-1.1531,-1.1877,-1.2047,-1.2155,-1.221,-1.2345,-1.2433,-1.2433,-1.2474,-1.2501,-1.2501,-1.2501,-1.2501,-1.2501,-1.2501,-1.2501,-1.2501,-1.2501,-1.2501,-1.2494,-1.2505,-1.2608,-1.2721,-1.303,-1.3302,-1.3411,-1.3785,-1.3904,-1.3904,-1.3904,-1.3904,-1.3896,-1.3839,-1.3774,-1.3693,0.0,0.0,0.0,0.0,0.0,0.0,0.0,0.0,0.0,0.0,0.0,0.0,0.0,0.0,0.0,0.0,0.0,0.0,0.0,0.0,0.0,0.0,0.0,0.0,0.0,0.0,0.0,0.0,0.0,0.0,0.0,0.0,0.0,0.0,0.0,0.0,0.0,0.0,-0.0175,-0.0412,-0.0465,-0.0577,-0.0748,-0.0519,-0.0393,0.0,-0.0388,-0.0592,-0.0874,-0.0981,-0.1154,-0.1362,-0.169,-0.1836,-0.1855,-0.1869,-0.1841,-0.1929,-0.1921,-0.1947,-0.1977,-0.1977,-0.1977,-0.1977,-0.1977,-0.1977,-0.1979,-0.1989,-0.1984,-0.1989,-0.2027,-0.2034,-0.2045,-0.2075,-0.2106,-0.2136,-0.2166,-0.4771,-0.6777,-0.6894,-0.9581,-1.1626,-1.2026,-1.2203,-1.2311,-1.2366,-1.2447,-1.2501,-1.2501,-1.2501,-1.2501,-1.2501,-1.2501,-1.2501,-1.2501,-1.2501,-1.2501,-1.2501,-1.2501,-1.2551,-1.2657,-1.2706,-1.2806,-1.3022,-1.3301,-1.3527,-1.3634,-1.3785,-1.3904,-1.3904,-1.3904,-1.3904,-1.3904,-1.3904,-1.3904,-1.3872,0.0,0.0,0.0,0.0,0.0,0.0,0.0,0.0,0.0,0.0,0.0,0.0,0.0,0.0,0.0,0.0,0.0,0.0,0.0,0.0,0.0,0.0,0.0,0.0,0.0,0.0,0.0,0.0,0.0,0.0,0.0,0.0,0.0,0.0,0.0,0.0,0.0,0.0,-0.0171,-0.0466,-0.0438,-0.0439,-0.051,-0.0419,-0.0253,-0.005,-0.0354,-0.0599,-0.0844,-0.117,-0.1294,-0.1387,-0.1605,-0.1755,-0.1821,-0.1909,-0.1933,-0.194,-0.1969,-0.1977,-0.1977,-0.1977,-0.1977,-0.1977,-0.1978,-0.1978,-0.1986,-0.2012,-0.1997,-0.1996,-0.2052,-0.2127,-0.2074,-0.2105,-0.2136,-0.2168,-0.2198,-0.4806,-0.6789,-0.6906,-0.9666,-1.1748,-1.2047,-1.2203,-1.2345,-1.2488,-1.2501,-1.2501,-1.2501,-1.2501,-1.2501,-1.2501,-1.2501,-1.2501,-1.2501,-1.2501,-1.2501,-1.2501,-1.2501,-1.2664,-1.2913,-1.3271,-1.3559,-1.378,-1.405,-1.4188,-1.4164,-1.3985,-1.3912,-1.3904,-1.3904,-1.3904,-1.3904,-1.3904,-1.3904,-1.3904,0.0,0.0,0.0,0.0,0.0,0.0,0.0,0.0,0.0,0.0,0.0,0.0,0.0,0.0,0.0,0.0,0.0,0.0,0.0,0.0,0.0,0.0,0.0,0.0,0.0,0.0,0.0,0.0,0.0,0.0,0.0,0.0,0.0,0.0,0.0,0.0,0.0,0.0,-0.0158,-0.0429,-0.0474,-0.058,-0.08,-0.0581,-0.0509,-0.0584,-0.066,-0.0858,-0.1084,-0.1154,-0.1357,-0.1696,-0.1819,-0.1881,-0.1934,-0.1958,-0.1964,-0.1967,-0.1974,-0.1977,-0.1977,-0.1977,-0.1977,-0.1982,-0.2003,-0.2008,-0.2009,-0.2018,-0.2012,-0.2012,-0.2027,-0.2049,-0.2074,-0.2105,-0.2154,-0.2199,-0.223,-0.4914,-0.691,-0.7092,-0.9843,-1.1898,-1.2203,-1.2271,-1.2345,-1.2488,-1.2501,-1.2501,-1.2501,-1.2501,-1.2501,-1.2501,-1.2501,-1.2501,-1.2501,-1.2501,-1.2501,-1.2501,-1.2501,-1.2558,-1.2594,-1.2934,-1.3242,-1.3574,-1.3854,-1.4074,-1.4172,-1.4123,-1.4026,-1.3904,-1.3904,-1.3904,-1.3904,-1.3904,-1.3904,-1.3904,0.0,0.0,0.0,0.0,0.0,0.0,0.0,0.0,0.0,0.0,0.0,0.0,0.0,0.0,0.0,0.0,0.0,0.0,0.0,0.0,0.0,0.0,0.0,0.0,0.0,0.0,0.0,0.0,0.0,0.0,0.0,0.0,0.0,0.0,0.0,0.0,0.0,0.0,-0.0248,0.0,0.0,-0.0644,-0.086,-0.0643,-0.0573,-0.0598,-0.0803,-0.1098,-0.1349,-0.1356,-0.1578,-0.1823,-0.1873,-0.1919,-0.1943,-0.1969,-0.1977,-0.1979,-0.1992,-0.1986,-0.1979,-0.1992,-0.1994,-0.1996,-0.1999,-0.2009,-0.2015,-0.2003,-0.1989,-0.1988,-0.2014,-0.2033,-0.2059,-0.2102,-0.2161,-0.221,-0.2171,-0.4885,-0.6964,-0.7104,-0.9877,-1.1925,-1.2169,-1.225,-1.2345,-1.2488,-1.2501,-1.2501,-1.2501,-1.2501,-1.2501,-1.2501,-1.2501,-1.2501,-1.2501,-1.2501,-1.2501,-1.2501,-1.2501,-1.2544,-1.2713,-1.3003,-1.3334,-1.3572,-1.3916,-1.4075,-1.4058,-1.4058,-1.3993,-1.3904,-1.3904,-1.3904,-1.3904,-1.3904,-1.3904,-1.3904,0.0,0.0,0.0,0.0,0.0,0.0,0.0,0.0,0.0,0.0,0.0,0.0,0.0,0.0,0.0,0.0,0.0,0.0,0.0,0.0,0.0,0.0,0.0,0.0,0.0,0.0,0.0,0.0,0.0,0.0,0.0,0.0,0.0,0.0,0.0,0.0,0.0,0.0,-0.0283,-0.0739,-0.0457,-0.055,-0.0812,0.0,-0.0557,-0.0429,-0.0891,-0.1235,-0.1509,-0.166,-0.173,-0.1832,-0.1894,-0.1915,-0.1909,-0.1962,-0.1977,-0.1982,-0.2011,-0.1997,-0.1984,-0.2011,-0.2019,-0.2012,-0.1988,-0.2004,-0.2015,-0.1984,-0.1955,-0.1951,-0.1999,-0.2007,-0.2027,-0.2093,-0.2151,-0.227,-0.2518,-0.5023,-0.7023,-0.7268,-1.0006,-1.1925,-1.2081,-1.223,-1.2372,-1.2494,-1.2501,-1.2501,-1.2501,-1.2501,-1.2501,-1.2501,-1.2501,-1.2501,-1.2501,-1.2501,-1.2501,-1.2501,-1.2501,-1.2587,-1.2851,-1.3278,-1.3559,-1.3579,-1.4075,-1.4107,-1.3937,-1.3937,-1.392,-1.3904,-1.3904,-1.3904,-1.3904,-1.3904,-1.3904,-1.3904,0.0,0.0,0.0,0.0,0.0,0.0,0.0,0.0,0.0,0.0,0.0,0.0,0.0,0.0,0.0,0.0,0.0,0.0,0.0,0.0,0.0,0.0,0.0,0.0,0.0,0.0,0.0,0.0,0.0,0.0,0.0,0.0,0.0,0.0,0.0,0.0,0.0,0.0,-0.0044,-0.0134,-0.0085,-0.0211,-0.0387,-0.036,-0.0551,0.0,-0.1188,-0.1396,-0.154,-0.1745,-0.1816,-0.1804,-0.19,-0.1945,-0.1963,-0.1974,-0.1977,-0.1982,-0.2011,-0.1997,-0.1984,-0.2011,-0.2019,-0.2018,-0.2012,-0.2034,-0.2041,-0.1988,-0.1973,-0.1964,-0.1949,-0.1947,-0.1974,-0.2059,-0.2102,-0.2622,-0.3969,-0.5729,-0.7406,-0.8899,-1.081,-1.2081,-1.2237,-1.2379,-1.2474,-1.2501,-1.2501,-1.2501,-1.2501,-1.2501,-1.2501,-1.2501,-1.2501,-1.2501,-1.2501,-1.2501,-1.2501,-1.2501,-1.2501,-1.2488,-1.2615,-1.3246,-1.3536,-1.3552,-1.4151,-1.4286,-1.4131,-1.4131,-1.4042,-1.3904,-1.3904,-1.3904,-1.3904,-1.3904,-1.3904,-1.3904,0.0,0.0,0.0,0.0,0.0,0.0,0.0,0.0,0.0,0.0,0.0,0.0,0.0,0.0,0.0,0.0,0.0,0.0,0.0,0.0,0.0,0.0,0.0,0.0,0.0,0.0,0.0,0.0,0.0,-0.0039,-0.0154,-0.004,-0.0082,-0.024,-0.0204,-0.0204,-0.0279,-0.0279,-0.0283,-0.0288,-0.0199,-0.0276,-0.0438,-0.0467,-0.0739,0.0,-0.13,-0.1371,-0.1502,-0.1705,-0.1745,-0.1813,-0.1921,-0.1954,-0.1956,-0.1973,-0.1977,-0.1986,-0.203,-0.2009,-0.199,-0.205,-0.2053,-0.2038,-0.2022,-0.203,-0.2023,-0.1964,-0.1928,-0.1906,-0.1907,-0.1907,-0.1926,-0.1985,-0.206,-0.2395,-0.3211,-0.5401,-0.7267,-0.8191,-1.0545,-1.2121,-1.2277,-1.242,-1.2501,-1.2501,-1.2501,-1.2501,-1.2501,-1.2501,-1.2501,-1.2501,-1.2501,-1.2501,-1.2501,-1.2501,-1.2501,-1.2501,-1.2501,-1.2461,-1.2386,-1.292,-1.3244,-1.3304,-1.3745,-1.3978,-1.4034,-1.4034,-1.3985,-1.3904,-1.3904,-1.3904,-1.3904,-1.3904,-1.3904,-1.3904,0.0,0.0,0.0,0.0,0.0,0.0,0.0,0.0,0.0,0.0,0.0,0.0,0.0,0.0,0.0,0.0,0.0,0.0,0.0,0.0,0.0,0.0,0.0,0.0,0.0,0.0,0.0,0.0,-0.0038,0.0,0.0,0.0,0.0,0.0,-0.0386,-0.0384,-0.0488,-0.045,-0.0494,0.0,0.0,-0.0374,-0.0603,0.0,0.0,0.0,0.0,-0.1338,-0.1449,-0.16,-0.1704,-0.1787,-0.1909,-0.1944,-0.1945,-0.197,-0.1977,-0.1988,-0.2039,-0.202,-0.2004,-0.208,-0.2087,-0.2063,-0.2019,-0.2014,-0.1994,-0.191,-0.1854,-0.1824,-0.1836,-0.1849,-0.1869,-0.1906,-0.2007,-0.2226,-0.2605,-0.5112,-0.7077,-0.7672,-1.0322,-1.2135,-1.2318,-1.2433,-1.2501,-1.2501,-1.2501,-1.2501,-1.2501,-1.2501,-1.2501,-1.2501,-1.2501,-1.2501,-1.2501,-1.2501,-1.2501,-1.2501,-1.2501,-1.244,-1.2332,-1.2754,-1.2899,-1.303,-1.3402,-1.3657,-1.381,-1.3849,-1.3904,-1.3904,-1.3904,-1.3904,-1.3904,-1.3904,-1.3904,-1.3904,0.0,0.0,0.0,0.0,0.0,0.0,0.0,0.0,0.0,0.0,0.0,0.0,0.0,0.0,0.0,0.0,0.0,0.0,0.0,0.0,0.0,0.0,0.0,0.0,0.0,0.0,0.0,0.0,-0.0179,0.0,0.0,0.0,0.0,0.0,0.0,-0.0487,-0.0475,-0.0366,0.0,0.0,0.0,0.0,0.0,0.0,0.0,0.0,0.0,-0.1325,-0.1418,-0.1569,-0.1645,-0.1749,-0.1814,-0.1907,-0.1973,-0.1975,-0.1977,-0.1984,-0.2015,-0.2019,-0.2023,-0.2059,-0.2087,-0.2083,-0.2,-0.2,-0.197,-0.1857,-0.1816,-0.1797,-0.1745,-0.178,-0.1836,-0.1782,-0.1928,-0.2522,-0.4,-0.5672,-0.7492,-0.9275,-1.1002,-1.2176,-1.2454,-1.2494,-1.2501,-1.2501,-1.2501,-1.2501,-1.2501,-1.2501,-1.2501,-1.2501,-1.2501,-1.2501,-1.2501,-1.2501,-1.2501,-1.2501,-1.2501,-1.2494,-1.2474,-1.281,-1.2877,-1.2896,-1.3428,-1.3582,0.0,-1.3826,-1.3904,-1.3904,-1.3904,-1.3904,-1.3904,-1.3904,-1.3904,-1.3904,0.0,0.0,0.0,0.0,0.0,0.0,0.0,0.0,0.0,0.0,0.0,0.0,0.0,0.0,0.0,0.0,0.0,0.0,0.0,0.0,0.0,0.0,0.0,0.0,0.0,0.0,-0.0244,-0.0172,-0.0251,0.0,0.0,0.0,0.0,0.0,0.0,-0.062,-0.0712,-0.0498,0.0,0.0,0.0,0.0,0.0,0.0,0.0,0.0,0.0,0.0,-0.1342,-0.1517,-0.1607,-0.1726,-0.1738,-0.1834,-0.1925,-0.1944,-0.1962,-0.1982,-0.2011,-0.2031,-0.2053,-0.2083,-0.206,-0.202,-0.1985,-0.1914,-0.1831,-0.1741,-0.1732,-0.1693,-0.1636,-0.1721,-0.1764,-0.1752,-0.1866,-0.2165,-0.2908,-0.4423,-0.6166,-0.8104,-0.9692,-1.1107,-1.2397,-1.2501,-1.2501,-1.2501,-1.2501,-1.2501,-1.2501,-1.2501,-1.2501,-1.2501,-1.2501,-1.2501,-1.2501,-1.2501,-1.2501,-1.2501,-1.2501,-1.2461,-1.2372,-1.2471,-1.2615,-1.2735,-1.2809,-1.3152,0.0,-1.3546,-1.3682,-1.3904,-1.3904,-1.3904,-1.3904,-1.3904,-1.3904,-1.3904,0.0,0.0,0.0,0.0,0.0,0.0,0.0,0.0,0.0,0.0,0.0,0.0,0.0,0.0,0.0,0.0,0.0,0.0,0.0,0.0,0.0,0.0,0.0,0.0,0.0,0.0,-0.0316,-0.0284,-0.0364,-0.0553,0.0,0.0,-0.0705,-0.1106,0.0,0.0,0.0,0.0,0.0,0.0,0.0,0.0,0.0,0.0,0.0,0.0,0.0,0.0,0.0,0.0,0.0,-0.1667,-0.1663,-0.1737,-0.1821,-0.1896,-0.1945,-0.1982,-0.2011,-0.2048,-0.2082,-0.2104,-0.2049,-0.1985,-0.1967,-0.1911,-0.1788,-0.1677,-0.1607,-0.1565,-0.1585,-0.1622,-0.166,-0.1699,-0.1824,-0.1943,-0.2015,-0.3424,-0.5197,-0.7145,-0.8731,-1.0457,-1.2313,-1.2501,-1.2501,-1.2501,-1.2501,-1.2501,-1.2501,-1.2501,-1.2501,-1.2501,-1.2501,-1.2501,-1.2501,-1.2501,-1.2501,-1.2501,-1.2501,-1.2447,-1.2352,-1.2352,-1.2443,-1.2559,-1.2504,-1.2861,0.0,-1.3346,-1.3539,-1.3904,-1.3904,-1.3904,-1.3904,-1.3904,-1.3904,-1.3904,0.0,0.0,0.0,0.0,0.0,0.0,0.0,0.0,0.0,0.0,0.0,0.0,0.0,0.0,0.0,0.0,0.0,0.0,0.0,0.0,0.0,0.0,0.0,0.0,0.0,0.0,-0.0284,-0.0291,-0.0486,-0.0719,-0.0909,-0.097,-0.0968,-0.0908,0.0,0.0,0.0,0.0,0.0,0.0,0.0,0.0,0.0,0.0,0.0,0.0,0.0,0.0,0.0,0.0,0.0,0.0,0.0,-0.1618,-0.1655,-0.1834,-0.1929,-0.1982,-0.2011,-0.2063,-0.2109,-0.2109,-0.2063,-0.2003,-0.1945,-0.1838,-0.177,-0.1648,-0.1549,-0.1479,-0.1479,-0.1576,-0.1636,-0.1695,-0.1806,-0.1896,-0.1928,-0.3365,-0.5104,-0.7081,-0.8744,-1.0443,-1.23,-1.2501,-1.2501,-1.2501,-1.2501,-1.2501,-1.2501,-1.2501,-1.2501,-1.2501,-1.2501,-1.2501,-1.2501,-1.2501,-1.2501,-1.2501,-1.2501,-1.2501,-1.2501,-1.2501,-1.2501,-1.2481,-1.2559,-1.2806,0.0,-1.3248,-1.3539,-1.3904,-1.3904,-1.3904,-1.3904,-1.3904,-1.3904,-1.3904,0.0,0.0,0.0,0.0,0.0,0.0,0.0,0.0,0.0,0.0,0.0,0.0,0.0,0.0,0.0,0.0,0.0,0.0,0.0,0.0,0.0,0.0,0.0,0.0,0.0,-0.0185,-0.0384,-0.0591,-0.0655,-0.0751,-0.096,-0.0841,-0.075,-0.0692,-0.0561,-0.0432,0.0,0.0,0.0,0.0,0.0,0.0,-0.1166,0.0,0.0,0.0,0.0,0.0,0.0,0.0,0.0,0.0,0.0,0.0,0.0,-0.174,-0.1834,-0.1917,-0.1925,-0.1986,-0.2038,-0.1997,-0.1926,-0.185,-0.179,-0.1684,-0.158,-0.1521,-0.1485,-0.143,-0.1471,-0.1576,-0.165,-0.175,-0.1834,-0.1918,-0.2009,-0.2547,-0.3546,-0.5388,-0.8169,-1.0573,-1.2333,-1.2501,-1.2501,-1.2501,-1.2501,-1.2501,-1.2501,-1.2501,-1.2501,-1.2501,-1.2501,-1.2501,-1.2501,-1.2501,-1.2501,-1.2501,-1.2501,-1.2501,-1.2501,-1.2501,-1.2501,-1.2488,-1.234,-1.2582,-1.3156,-1.3039,-1.3325,-1.3904,-1.3904,-1.3904,-1.3904,-1.3904,-1.3904,-1.3904,0.0,0.0,0.0,0.0,0.0,0.0,0.0,0.0,0.0,0.0,0.0,0.0,0.0,0.0,0.0,0.0,0.0,0.0,0.0,0.0,0.0,0.0,0.0,0.0,0.0,-0.0115,-0.0323,-0.0556,-0.0576,-0.0682,-0.0878,-0.0744,-0.0641,-0.053,-0.0389,-0.0294,0.0,0.0,0.0,0.0,0.0,0.0,-0.1298,0.0,0.0,0.0,0.0,0.0,0.0,0.0,0.0,0.0,0.0,0.0,0.0,0.0,-0.1725,-0.1812,-0.1857,-0.1918,-0.196,-0.1924,-0.1846,-0.1765,-0.1715,-0.1611,-0.1517,-0.1487,-0.1456,-0.1412,-0.153,-0.1594,-0.1669,-0.1778,-0.1865,-0.1945,-0.202,-0.2168,-0.2815,-0.4557,-0.7898,-1.038,-1.1491,-1.2159,-1.2501,-1.2501,-1.2501,-1.2501,-1.2501,-1.2501,-1.2501,-1.2501,-1.2501,-1.2501,-1.2501,-1.2501,-1.2501,-1.2501,-1.2501,-1.2501,-1.2501,-1.2501,-1.2474,-1.2406,-1.2169,-1.2473,0.0,-1.2865,-1.3253,-1.3904,-1.3904,-1.3904,-1.3904,-1.3904,-1.3904,-1.3904,0.0,0.0,0.0,0.0,0.0,0.0,0.0,0.0,0.0,0.0,0.0,0.0,0.0,0.0,0.0,0.0,0.0,0.0,0.0,0.0,0.0,0.0,0.0,0.0,0.0,0.0,-0.0084,-0.0325,-0.0379,-0.0489,-0.066,-0.0671,-0.0556,-0.0383,-0.0374,-0.0226,0.0,0.0,0.0,0.0,-0.0864,-0.1062,0.0,0.0,0.0,0.0,0.0,0.0,0.0,0.0,0.0,0.0,0.0,0.0,0.0,0.0,0.0,0.0,0.0,-0.185,-0.1879,-0.1877,-0.1867,-0.1792,-0.1705,-0.1613,0.0,-0.1495,-0.1468,-0.1475,-0.1562,-0.1679,-0.1752,-0.179,-0.1902,-0.1979,-0.1988,-0.2158,-0.2829,-0.4565,-0.7751,-0.9882,-0.9993,-1.1484,-1.2501,-1.2501,-1.2501,-1.2501,-1.2501,-1.2501,-1.2501,-1.2501,-1.2501,-1.2501,-1.2501,-1.2501,-1.2501,-1.2501,-1.2501,-1.2501,-1.2501,-1.2488,-1.2413,-1.2284,-1.2115,-1.2409,-1.2918,-1.282,-1.3253,-1.3833,-1.3904,-1.3904,-1.3904,-1.3904,-1.3904,-1.3904,0.0,0.0,0.0,0.0,0.0,0.0,0.0,0.0,0.0,0.0,0.0,0.0,0.0,0.0,0.0,0.0,0.0,0.0,0.0,0.0,0.0,0.0,0.0,0.0,0.0,0.0,-0.0132,-0.0379,-0.0398,-0.0412,-0.0474,-0.0476,-0.0314,-0.0102,-0.0095,-0.0133,0.0,0.0,0.0,0.0,-0.11,-0.1231,0.0,0.0,0.0,0.0,-0.1385,-0.1406,0.0,0.0,0.0,0.0,0.0,0.0,0.0,0.0,-0.1564,-0.1649,-0.1626,0.0,-0.181,-0.1843,-0.1748,-0.1701,0.0,-0.1615,-0.1594,-0.1587,-0.1579,-0.1588,-0.1684,-0.1742,-0.1822,-0.188,-0.1943,-0.2008,-0.2165,-0.2215,-0.2958,-0.4643,-0.6804,-0.8566,-0.984,-1.1484,-1.2501,-1.2501,-1.2501,-1.2501,-1.2501,-1.2501,-1.2501,-1.2501,-1.2501,-1.2501,-1.2501,-1.2501,-1.2501,-1.2501,-1.2501,-1.2501,-1.2501,-1.2386,-1.2325,-1.2277,-1.1999,-1.2157,-1.2554,-1.2748,-1.3039,-1.3468,-1.3761,-1.3904,-1.3904,-1.3904,-1.3904,-1.3904,0.0,0.0,0.0,0.0,0.0,0.0,0.0,0.0,0.0,0.0,0.0,0.0,0.0,0.0,0.0,0.0,0.0,0.0,0.0,0.0,0.0,0.0,0.0,0.0,0.0,0.0,-0.0048,-0.0204,-0.0212,-0.0218,-0.0223,-0.0222,-0.0163,0.0,0.0,-0.0045,0.0,0.0,0.0,0.0,-0.1158,0.0,0.0,0.0,0.0,0.0,-0.1406,-0.1422,0.0,-0.1421,-0.1468,-0.1461,0.0,0.0,0.0,0.0,-0.1527,-0.1557,-0.1584,-0.1662,-0.173,-0.1767,-0.1707,-0.1693,-0.1648,-0.1637,-0.1633,-0.162,-0.1628,-0.1651,-0.1747,-0.1774,-0.1859,-0.1939,-0.2023,-0.2116,-0.2222,-0.2281,-0.2625,-0.366,-0.5278,-0.7046,-0.8683,-1.04,-1.1643,-1.2424,-1.2501,-1.2501,-1.2501,-1.2501,-1.2501,-1.2501,-1.2501,-1.2501,-1.2501,-1.2501,-1.2501,-1.2501,-1.2501,-1.2467,-1.24,-1.2325,-1.221,-1.2067,-1.1904,-1.2015,-1.2308,-1.2647,-1.2968,-1.3325,-1.3761,-1.3904,-1.3904,-1.3904,-1.3904,-1.3904,0.0,0.0,0.0,0.0,0.0,0.0,0.0,0.0,0.0,0.0,0.0,0.0,0.0,0.0,0.0,0.0,0.0,0.0,0.0,0.0,0.0,0.0,0.0,0.0,0.0,0.0,0.0,0.0,0.0,0.0,0.0,0.0,0.0,0.0,0.0,-0.0047,0.0,0.0,0.0,-0.0736,-0.1145,0.0,0.0,0.0,0.0,0.0,0.0,0.0,0.0,-0.15,-0.1502,-0.1485,-0.151,0.0,0.0,0.0,0.0,0.0,-0.1606,-0.1652,-0.1732,-0.1718,-0.169,-0.1711,-0.1735,-0.1735,-0.1684,-0.1662,-0.1678,-0.1766,-0.1822,-0.1865,-0.1949,-0.1984,-0.2112,-0.2236,-0.232,-0.232,-0.2339,-0.2414,-0.3905,-0.5547,-0.6995,-0.8852,-1.0552,-1.203,-1.2347,-1.2501,-1.2501,-1.2501,-1.2501,-1.2501,-1.2501,-1.2501,-1.2501,-1.2501,-1.2501,-1.2501,-1.2481,-1.2406,-1.2291,-1.2244,-1.2081,-1.183,-1.1809,0.0,-1.2122,-1.2545,-1.2896,-1.3253,-1.3682,-1.3833,-1.3904,-1.3904,-1.3904,-1.3904,0.0,0.0,0.0,0.0,0.0,0.0,0.0,0.0,0.0,0.0,0.0,0.0,0.0,0.0,0.0,0.0,0.0,0.0,0.0,0.0,0.0,0.0,0.0,0.0,0.0,0.0,0.0,0.0,0.0,0.0,0.0,0.0,0.0,0.0,0.0,-0.0197,-0.0597,-0.0661,-0.0898,-0.1216,-0.1258,0.0,0.0,0.0,0.0,0.0,0.0,0.0,0.0,-0.1476,-0.1485,-0.1482,-0.1486,0.0,0.0,0.0,0.0,0.0,-0.1632,-0.1714,-0.1756,-0.1733,-0.1722,-0.1774,-0.1798,-0.1776,-0.1819,-0.184,-0.1849,-0.1862,-0.1896,-0.194,-0.1988,-0.2106,-0.2157,-0.219,-0.2324,-0.2373,-0.2408,-0.2421,-0.3934,-0.5134,-0.5388,-0.8152,-1.0086,-1.0397,-1.1721,-1.2501,-1.2501,-1.2501,-1.2501,-1.2501,-1.2501,-1.2501,-1.2501,-1.2501,-1.2501,-1.2501,-1.2379,-1.2311,-1.2284,-1.202,-1.1877,-1.1823,0.0,-1.164,-1.1691,-1.2122,-1.2545,-1.2896,-1.3253,-1.3611,-1.3904,-1.3904,-1.3904,-1.3904,0.0,0.0,0.0,0.0,0.0,0.0,0.0,0.0,0.0,0.0,0.0,0.0,0.0,0.0,0.0,0.0,0.0,0.0,0.0,0.0,0.0,0.0,0.0,0.0,0.0,0.0,0.0,0.0,0.0,0.0,0.0,0.0,0.0,0.0,0.0,-0.0201,-0.0524,-0.0634,-0.0874,-0.1158,0.0,0.0,0.0,0.0,0.0,0.0,0.0,0.0,0.0,0.0,-0.1491,-0.1502,-0.1486,0.0,0.0,0.0,0.0,0.0,-0.1693,-0.1727,-0.1785,-0.1745,-0.1814,-0.1894,-0.1895,-0.1904,-0.1913,-0.1911,-0.1924,-0.1939,-0.1954,-0.1993,-0.2054,-0.2147,-0.2222,-0.2296,-0.2371,-0.2391,-0.2417,-0.2466,-0.3179,-0.4039,-0.4895,-0.7178,-0.8993,-0.9931,-1.1566,-1.2501,-1.2501,-1.2501,-1.2501,-1.2501,-1.2501,-1.2501,-1.2501,-1.2501,-1.2501,-1.2501,-1.2359,-1.2244,-1.2155,-1.1932,-1.1789,-1.1714,0.0,-1.1619,-1.1619,-1.2051,-1.2402,-1.2824,-1.3182,-1.3539,-1.3904,-1.3904,-1.3904,-1.3904,0.0,0.0,0.0,0.0,0.0,0.0,0.0,0.0,0.0,0.0,0.0,0.0,0.0,0.0,0.0,0.0,0.0,0.0,0.0,0.0,0.0,0.0,0.0,0.0,0.0,0.0,0.0,0.0,0.0,0.0,0.0,0.0,0.0,0.0,0.0,-0.0208,-0.0496,-0.0657,-0.0859,-0.1149,0.0,0.0,0.0,0.0,0.0,0.0,0.0,0.0,0.0,0.0,0.0,0.0,0.0,0.0,0.0,-0.1535,-0.1558,-0.1598,-0.1725,-0.1748,-0.1814,-0.1849,-0.1913,-0.1974,-0.2003,-0.1997,-0.1982,-0.1966,-0.1981,-0.2001,-0.2016,-0.2067,-0.2142,-0.2178,-0.2286,-0.2333,-0.2421,-0.2414,-0.2428,-0.2506,-0.2493,-0.3032,-0.4307,-0.5952,-0.7591,-0.9304,-1.094,-1.2114,-1.2501,-1.2501,-1.2501,-1.2501,-1.2501,-1.2501,-1.2501,-1.2501,-1.2488,-1.2447,-1.2305,-1.2155,-1.2006,-1.185,-1.1721,-1.1619,-1.1619,-1.1619,-1.1619,-1.1907,-1.233,-1.2681,-1.3039,-1.3468,-1.3904,-1.3904,-1.3904,-1.3904,0.0,0.0,0.0,0.0,0.0,0.0,0.0,0.0,0.0,0.0,0.0,0.0,0.0,0.0,0.0,0.0,0.0,0.0,0.0,0.0,0.0,0.0,0.0,0.0,0.0,0.0,0.0,0.0,0.0,0.0,0.0,0.0,0.0,0.0,0.0,-0.0275,-0.0774,-0.0794,-0.105,-0.1474,-0.1474,0.0,0.0,0.0,0.0,0.0,0.0,0.0,0.0,0.0,0.0,0.0,0.0,0.0,-0.1531,-0.156,-0.159,-0.1639,-0.1755,-0.181,-0.187,-0.2009,-0.1989,-0.1943,-0.1973,-0.1999,-0.2023,-0.2049,-0.212,-0.214,-0.2197,-0.2191,-0.2183,-0.2316,-0.2328,-0.2361,-0.2453,-0.2463,-0.2476,-0.251,-0.2512,-0.2512,-0.2671,-0.4234,-0.5874,-0.7591,-0.9226,-1.0862,-1.2424,-1.2501,-1.2501,-1.2501,-1.2501,-1.2501,-1.2501,-1.2501,-1.2433,-1.2305,-1.2149,-1.1999,-1.1843,-1.1701,-1.1626,-1.1619,-1.1619,-1.1619,-1.1619,-1.1619,-1.1907,-1.2266,-1.2681,-1.3253,-1.3904,-1.3904,-1.3904,-1.3904,0.0,0.0,0.0,0.0,0.0,0.0,0.0,0.0,0.0,0.0,0.0,0.0,0.0,0.0,0.0,0.0,0.0,0.0,0.0,0.0,0.0,0.0,0.0,0.0,0.0,0.0,0.0,0.0,0.0,0.0,0.0,0.0,0.0,0.0,0.0,-0.028,-0.0778,-0.0819,-0.1087,-0.151,-0.153,-0.1519,0.0,0.0,0.0,0.0,0.0,0.0,0.0,0.0,-0.152,-0.1524,-0.1517,-0.1534,-0.1557,-0.1617,-0.162,-0.1693,-0.1795,-0.1873,-0.1948,-0.2041,-0.2024,-0.2004,-0.2072,-0.2067,-0.2061,-0.2176,-0.2186,-0.22,-0.2176,-0.2247,-0.2235,-0.233,-0.238,-0.2429,-0.2463,-0.2485,-0.2502,-0.2512,-0.2514,-0.2514,-0.2514,-0.3999,-0.5717,-0.7357,-0.9071,-1.0707,-1.2424,-1.2501,-1.2501,-1.2501,-1.2501,-1.2501,-1.2501,-1.2501,-1.2379,-1.2149,-1.2088,-1.1979,-1.1823,-1.1687,-1.1619,-1.1619,-1.1619,-1.1619,-1.1619,-1.1619,-1.1972,-1.2617,-1.3261,-1.3682,-1.3904,-1.3904,-1.3904,-1.3904,0.0,0.0,0.0,0.0,0.0,0.0,0.0,0.0,0.0,0.0,0.0,0.0,0.0,0.0,0.0,0.0,0.0,0.0,0.0,0.0,0.0,0.0,0.0,0.0,0.0,0.0,0.0,0.0,0.0,0.0,0.0,0.0,0.0,0.0,0.0,-0.0283,-0.0792,-0.0845,-0.1067,-0.153,-0.1569,-0.1555,0.0,0.0,0.0,0.0,0.0,0.0,0.0,0.0,-0.1516,-0.1524,-0.1513,-0.1531,-0.1562,-0.1642,-0.1663,-0.175,-0.1832,-0.1907,-0.1978,-0.2046,-0.2027,-0.2019,-0.2196,-0.218,-0.2098,-0.2169,-0.2198,-0.2217,-0.2238,-0.2307,-0.2364,-0.2375,-0.2428,-0.2473,-0.2482,-0.2502,-0.2514,-0.2514,-0.2514,-0.2514,-0.2514,-0.3531,-0.4938,-0.6577,-0.8292,-0.9931,-1.1643,-1.2192,-1.2501,-1.2501,-1.2461,-1.2433,-1.2433,-1.2386,-1.2237,-1.1986,-1.1986,-1.1911,-1.1762,-1.166,-1.1619,-1.1619,-1.1619,-1.1619,-1.1619,-1.1619,-1.2043,-1.2824,-1.3325,-1.369,-1.3904,-1.3904,-1.3904,-1.3904,0.0,0.0,0.0,0.0,0.0,0.0,0.0,0.0,0.0,0.0,0.0,0.0,0.0,0.0,0.0,0.0,0.0,0.0,0.0,0.0,0.0,0.0,0.0,0.0,0.0,0.0,0.0,0.0,0.0,0.0,0.0,0.0,0.0,0.0,0.0,-0.0287,-0.0819,-0.0875,-0.1144,-0.1484,-0.1594,-0.1564,-0.1486,0.0,0.0,0.0,0.0,0.0,0.0,0.0,-0.1551,-0.1531,-0.1562,-0.1551,-0.1545,-0.1636,-0.1726,-0.1809,-0.1869,-0.1909,-0.1954,-0.2042,-0.1999,-0.1971,-0.2121,-0.2132,-0.2135,-0.2158,-0.2221,-0.2333,-0.2334,-0.2383,-0.2433,-0.2463,-0.2469,-0.248,-0.251,-0.2514,-0.2514,-0.2514,-0.2514,-0.2514,-0.2514,-0.2514,-0.3219,-0.4857,-0.6577,-0.8214,-0.9931,-1.1566,-1.2501,-1.2501,-1.2366,-1.2291,-1.2291,-1.2142,-1.1986,-1.183,-1.183,-1.1755,-1.1619,-1.1619,-1.1619,-1.1619,-1.1619,-1.1619,-1.1619,-1.1619,-1.2043,-1.2824,-1.2824,-1.3253,-1.3904,-1.3904,-1.3904,-1.3904,0.0,0.0,0.0,0.0,0.0,0.0,0.0,0.0,0.0,0.0,0.0,0.0,0.0,0.0,0.0,0.0,0.0,0.0,0.0,0.0,0.0,0.0,0.0,0.0,0.0,0.0,0.0,0.0,0.0,0.0,0.0,0.0,0.0,0.0,-0.0176,-0.0456,-0.0807,-0.1088,-0.1381,-0.1625,-0.1663,-0.165,-0.1657,0.0,0.0,0.0,0.0,0.0,0.0,0.0,0.0,0.0,-0.1618,-0.1595,-0.1624,-0.1629,-0.1738,-0.1862,-0.1881,-0.1954,-0.2035,-0.2083,-0.2076,-0.2084,-0.2193,-0.2162,-0.2147,-0.2279,-0.2338,-0.2371,-0.2393,-0.2429,-0.2458,-0.2467,-0.2487,-0.2504,-0.2512,-0.2514,-0.2514,-0.2514,-0.2514,-0.2514,-0.2514,-0.2514,-0.3219,-0.4857,-0.5483,-0.6963,-0.9853,-1.0474,-1.1256,-1.2424,-1.2366,-1.2291,-1.2291,-1.2142,-1.1986,-1.183,-1.183,-1.1755,-1.1619,-1.1619,-1.1619,-1.1619,-1.1619,-1.1619,-1.1619,-1.1907,-1.233,-1.2824,-1.3039,-1.3468,-1.3904,-1.3904,-1.3904,-1.3904,0.0,0.0,0.0,0.0,0.0,0.0,0.0,0.0,0.0,0.0,0.0,0.0,0.0,0.0,0.0,0.0,0.0,0.0,0.0,0.0,0.0,0.0,0.0,0.0,0.0,0.0,0.0,0.0,0.0,0.0,0.0,0.0,0.0,0.0,-0.0296,-0.0578,-0.088,-0.1222,-0.1467,-0.1718,-0.1705,-0.169,-0.1643,0.0,0.0,0.0,0.0,0.0,0.0,0.0,0.0,0.0,-0.1613,-0.1646,-0.1686,-0.1675,-0.179,-0.1911,-0.1947,-0.2018,-0.209,-0.212,-0.2128,-0.2151,-0.2243,-0.2229,-0.2226,-0.233,-0.2375,-0.2402,-0.242,-0.2458,-0.2482,-0.2472,-0.2484,-0.25,-0.2512,-0.2504,-0.25,-0.2512,-0.2514,-0.2514,-0.2514,-0.2514,-0.2905,-0.3922,-0.4625,-0.6186,-0.8837,-0.9573,-1.0709,-1.2343,-1.2216,-1.2108,-1.2108,-1.1959,-1.1837,-1.1748,-1.1748,-1.1701,-1.1619,-1.1619,-1.1619,-1.1619,-1.1619,-1.1619,-1.1619,-1.1835,-1.2259,-1.2824,-1.3039,-1.3396,-1.3904,-1.3904,-1.3904,-1.3904,0.0,0.0,0.0,0.0,0.0,0.0,0.0,0.0,0.0,0.0,0.0,0.0,0.0,0.0,0.0,0.0,0.0,0.0,0.0,0.0,0.0,0.0,0.0,0.0,0.0,0.0,0.0,0.0,0.0,0.0,0.0,0.0,0.0,0.0,-0.0362,-0.0652,-0.092,-0.1263,-0.155,-0.1722,-0.1778,-0.1696,-0.1624,-0.1648,0.0,0.0,0.0,0.0,0.0,0.0,0.0,0.0,-0.1603,-0.1625,-0.1657,-0.1746,-0.1855,-0.1949,-0.203,-0.208,-0.2116,-0.2143,-0.2224,-0.2187,-0.2278,-0.2319,-0.2346,-0.2376,-0.2406,-0.2428,-0.2431,-0.2477,-0.2506,-0.2477,-0.2473,-0.2482,-0.251,-0.2491,-0.2484,-0.2511,-0.2514,-0.2514,-0.2514,-0.2514,-0.2514,-0.2514,-0.3922,-0.5558,-0.7345,-0.8808,-1.0433,-1.2195,-1.1986,-1.183,-1.183,-1.1687,-1.1619,-1.1619,-1.1619,-1.1619,-1.1619,-1.1619,-1.1619,-1.1619,-1.1619,-1.1619,-1.1619,-1.1619,-1.2043,-1.2824,-1.2824,-1.3253,-1.3904,-1.3904,-1.3904,-1.3904,0.0,0.0,0.0,0.0,0.0,0.0,0.0,0.0,0.0,0.0,0.0,0.0,0.0,0.0,0.0,0.0,0.0,0.0,0.0,0.0,0.0,0.0,0.0,0.0,0.0,0.0,0.0,0.0,0.0,0.0,0.0,0.0,0.0,0.0,-0.0543,-0.083,-0.0919,-0.1474,-0.1708,-0.1696,-0.1708,-0.1689,-0.1651,-0.1633,-0.1622,0.0,0.0,0.0,0.0,0.0,0.0,0.0,-0.1617,-0.1655,-0.1705,-0.1708,-0.1823,-0.1936,-0.1955,-0.2033,-0.211,-0.2117,-0.2173,-0.2249,-0.2339,-0.2364,-0.2378,-0.2408,-0.2438,-0.2466,-0.2491,-0.2506,-0.2512,-0.2506,-0.2504,-0.2507,-0.2514,-0.2508,-0.2507,-0.2514,-0.2514,-0.2514,-0.2514,-0.2514,-0.2514,-0.2514,-0.2828,-0.4296,-0.718,-0.7693,-0.9173,-1.204,-1.1932,-1.183,-1.183,-1.1687,-1.1619,-1.1619,-1.1619,-1.1619,-1.1619,-1.1619,-1.1619,-1.1619,-1.1619,-1.1619,-1.1619,-1.1619,-1.2043,-1.2824,-1.2824,-1.3253,-1.3904,-1.3904,-1.3904,-1.3904,0.0,0.0,0.0,0.0,0.0,0.0,0.0,0.0,0.0,0.0,0.0,0.0,0.0,0.0,0.0,0.0,0.0,0.0,0.0,0.0,0.0,0.0,0.0,0.0,0.0,0.0,0.0,0.0,0.0,0.0,0.0,0.0,0.0,0.0,-0.0664,-0.0959,-0.093,-0.1556,-0.1804,-0.1748,-0.1748,-0.1722,-0.1681,-0.1665,-0.1641,-0.1617,-0.1617,0.0,0.0,0.0,0.0,0.0,0.0,0.0,-0.1687,-0.1722,-0.1804,-0.1884,-0.1971,-0.203,-0.2083,-0.2157,-0.2141,-0.2194,-0.2339,-0.2379,-0.2405,-0.242,-0.2447,-0.2474,-0.2489,-0.2504,-0.251,-0.2495,-0.2492,-0.2497,-0.2512,-0.2502,-0.2497,-0.2512,-0.2514,-0.2514,-0.2514,-0.2514,-0.2514,-0.2514,-0.2514,-0.3901,-0.7152,-0.7257,-0.8629,-1.1885,-1.1809,-1.1728,-1.1728,-1.1653,-1.1619,-1.1619,-1.1619,-1.1619,-1.1619,-1.1619,-1.1619,-1.1619,-1.1619,-1.1619,-1.1619,-1.1619,-1.2043,-1.2824,-1.2824,-1.3253,-1.3904,-1.3904,-1.3904,-1.3904,0.0,0.0,0.0,0.0,0.0,0.0,0.0,0.0,0.0,0.0,0.0,0.0,0.0,0.0,0.0,0.0,0.0,0.0,0.0,0.0,0.0,0.0,0.0,0.0,0.0,0.0,0.0,0.0,0.0,0.0,0.0,0.0,0.0,-0.0058,-0.0727,-0.0974,-0.095,-0.1594,-0.1854,-0.1802,-0.1791,-0.1757,-0.1712,-0.1712,-0.1685,-0.1647,-0.1636,-0.1596,-0.1551,-0.1566,0.0,0.0,0.0,0.0,-0.1646,-0.172,-0.1775,-0.1832,-0.2003,-0.2049,-0.208,-0.2206,-0.2171,-0.219,-0.2319,-0.238,-0.2425,-0.2431,-0.2455,-0.2477,-0.2477,-0.2497,-0.2506,-0.2481,-0.2477,-0.2485,-0.2511,-0.2492,-0.2487,-0.2511,-0.2514,-0.2514,-0.2514,-0.2514,-0.2514,-0.2514,-0.2514,-0.3899,-0.7129,-0.7129,-0.8537,-1.1657,-1.1681,-1.1619,-1.1619,-1.1619,-1.1619,-1.1619,-1.1619,-1.1619,-1.1619,-1.1619,-1.1619,-1.1619,-1.1619,-1.1619,-1.1619,-1.1619,-1.2043,-1.2824,-1.2824,-1.3253,-1.3904,-1.3904,-1.3904,-1.3904,0.0,0.0,0.0,0.0,0.0,0.0,0.0,0.0,0.0,0.0,0.0,0.0,0.0,0.0,0.0,0.0,0.0,0.0,0.0,0.0,0.0,0.0,0.0,0.0,0.0,0.0,0.0,0.0,0.0,0.0,0.0,0.0,0.0,0.0,-0.073,-0.0986,-0.1042,-0.1669,-0.1866,-0.1772,-0.1776,-0.1805,-0.1798,-0.1798,-0.1755,-0.1764,-0.1711,-0.1671,-0.1688,-0.1638,-0.1546,0.0,0.0,0.0,-0.1625,-0.1645,-0.1693,-0.1823,-0.1954,-0.208,-0.2181,-0.2202,-0.2226,-0.219,-0.2319,-0.238,-0.2431,-0.2458,-0.2487,-0.2508,-0.2508,-0.2511,-0.2512,-0.2508,-0.2508,-0.251,-0.2514,-0.2511,-0.251,-0.2514,-0.2514,-0.2514,-0.2514,-0.2514,-0.2514,-0.2514,-0.2514,-0.3884,-0.6966,-0.7097,-0.8503,-1.1509,-1.1633,-1.1619,-1.1619,-1.1619,-1.1619,-1.1619,-1.1619,-1.1619,-1.1619,-1.1619,-1.1619,-1.1619,-1.1619,-1.1619,-1.1619,-1.1619,-1.2043,-1.2824,-1.2824,-1.3253,-1.3904,-1.3904,-1.3904,-1.3904,0.0,0.0,0.0,0.0,0.0,0.0,0.0,0.0,0.0,0.0,0.0,0.0,0.0,0.0,0.0,0.0,0.0,0.0,0.0,0.0,0.0,0.0,0.0,0.0,0.0,0.0,0.0,0.0,0.0,0.0,0.0,0.0,0.0,0.0,-0.0649,-0.095,-0.1009,-0.1653,-0.1751,-0.1552,-0.1772,-0.1768,-0.1596,-0.175,-0.1809,-0.1814,-0.1771,-0.1715,-0.171,-0.1683,-0.158,-0.1527,-0.153,0.0,0.0,0.0,-0.1656,-0.1733,-0.1904,-0.2035,-0.214,-0.2208,-0.2222,-0.2236,-0.2296,-0.2342,-0.2386,-0.2433,-0.2467,-0.2493,-0.2511,-0.2514,-0.2514,-0.2514,-0.2514,-0.2514,-0.2514,-0.2514,-0.2514,-0.2514,-0.2514,-0.2514,-0.2514,-0.2514,-0.2514,-0.2514,-0.2499,-0.3469,-0.5669,-0.6597,-0.8062,-1.0239,-1.1181,-1.1619,-1.1619,-1.1619,-1.1619,-1.1619,-1.1619,-1.1619,-1.1619,-1.1619,-1.1619,-1.1619,-1.1619,-1.1619,-1.1619,-1.1619,-1.1907,-1.2474,-1.2681,-1.3111,-1.3611,-1.3825,-1.3904,-1.3904,0.0,0.0,0.0,0.0,0.0,0.0,0.0,0.0,0.0,0.0,0.0,0.0,0.0,0.0,0.0,0.0,0.0,0.0,0.0,0.0,0.0,0.0,0.0,0.0,0.0,0.0,0.0,0.0,0.0,0.0,0.0,0.0,0.0,0.0,-0.064,-0.0931,-0.099,-0.1526,-0.1646,-0.1525,-0.1721,-0.1674,-0.1559,-0.1792,-0.1849,-0.1903,-0.1865,-0.18,-0.1727,-0.1757,-0.1636,-0.1562,-0.1569,-0.1566,0.0,0.0,0.0,-0.1688,-0.1861,-0.1974,-0.2067,-0.2173,-0.2188,-0.2193,-0.2253,-0.2301,-0.2346,-0.2391,-0.2431,-0.2466,-0.2497,-0.2508,-0.2514,-0.2514,-0.2514,-0.2514,-0.2514,-0.2514,-0.2514,-0.2514,-0.2514,-0.2514,-0.2514,-0.2514,-0.2514,-0.2514,-0.2487,-0.3144,-0.4615,-0.6191,-0.7723,-0.9219,-1.0815,-1.1619,-1.1619,-1.1619,-1.1619,-1.1619,-1.1619,-1.1619,-1.1619,-1.1619,-1.1619,-1.1619,-1.1619,-1.1619,-1.1619,-1.1619,-1.1835,-1.2266,-1.2617,-1.2968,-1.3325,-1.3753,-1.3904,-1.3904,0.0,0.0,0.0,0.0,0.0,0.0,0.0,0.0,0.0,0.0,0.0,0.0,0.0,0.0,0.0,0.0,0.0,0.0,0.0,0.0,0.0,0.0,0.0,0.0,0.0,0.0,0.0,0.0,0.0,0.0,0.0,0.0,0.0,0.0,-0.0602,-0.0963,-0.1022,-0.1304,-0.1618,-0.1908,-0.1663,-0.1677,-0.1955,-0.2074,-0.2095,-0.2087,-0.2029,-0.1969,-0.1904,-0.1817,-0.1729,-0.1697,-0.1639,-0.1551,-0.1523,0.0,0.0,0.0,-0.1827,-0.1911,-0.1996,-0.2059,-0.2094,-0.2129,-0.2191,-0.2271,-0.2334,-0.2337,-0.2384,-0.2435,-0.2466,-0.2495,-0.2514,-0.2514,-0.2514,-0.2514,-0.2514,-0.2514,-0.2514,-0.2514,-0.2514,-0.2514,-0.2514,-0.2514,-0.2514,-0.2514,-0.2487,-0.3144,-0.4615,-0.6191,-0.7723,-0.9219,-1.0815,-1.1619,-1.1619,-1.1619,-1.1619,-1.1619,-1.1619,-1.1619,-1.1619,-1.1619,-1.1619,-1.1619,-1.1619,-1.1619,-1.1619,-1.1619,-1.1835,-1.2266,-1.2617,-1.2968,-1.3325,-1.3753,-1.3904,-1.3904,0.0,0.0,0.0,0.0,0.0,0.0,0.0,0.0,0.0,0.0,0.0,0.0,0.0,0.0,0.0,0.0,0.0,0.0,0.0,0.0,0.0,0.0,0.0,0.0,0.0,0.0,0.0,0.0,0.0,0.0,0.0,0.0,0.0,0.0,-0.0408,-0.0585,-0.0644,-0.0941,-0.1186,-0.1322,-0.1423,-0.1579,-0.1793,-0.2007,-0.2093,-0.2104,-0.2063,-0.1997,-0.1924,-0.187,-0.1793,-0.1762,-0.17,-0.1673,-0.1603,-0.1554,-0.1598,-0.1681,-0.1761,-0.1835,-0.1913,-0.2011,-0.2057,-0.2095,-0.2157,-0.221,-0.2263,-0.232,-0.235,-0.2387,-0.2457,-0.2478,-0.2492,-0.2511,-0.2514,-0.2514,-0.2514,-0.2514,-0.2514,-0.2514,-0.2514,-0.2514,-0.2514,-0.2514,-0.2514,-0.2514,-0.2467,-0.2663,-0.3179,-0.5625,-0.7221,-0.7837,-1.0305,-1.1619,-1.1619,-1.1619,-1.1619,-1.1619,-1.1619,-1.1619,-1.1619,-1.1619,-1.1619,-1.1619,-1.1619,-1.1619,-1.1619,-1.1619,-1.1691,-1.1907,-1.2545,-1.2896,-1.3039,-1.3682,-1.3904,-1.3904,0.0,0.0,0.0,0.0,0.0,0.0,0.0,0.0,0.0,0.0,0.0,0.0,0.0,0.0,0.0586,0.0935,0.0388,0.0129,0.0458,0.0167,0.0,0.0,0.0,0.0,0.0,0.0,0.0,0.0,0.0,0.0,0.0,0.0,0.0,0.0,-0.017,-0.0343,-0.046,-0.064,-0.0882,-0.1133,-0.1311,-0.1534,-0.181,-0.2043,-0.2124,-0.2123,-0.2113,-0.2059,-0.1988,-0.1967,-0.1907,-0.1829,-0.1771,-0.1718,-0.1665,-0.1605,-0.1594,-0.162,-0.1752,-0.1756,-0.1824,-0.1944,-0.2011,-0.2064,-0.2125,-0.217,-0.2217,-0.2277,-0.2296,-0.2328,-0.2409,-0.2423,-0.2443,-0.2504,-0.2514,-0.2514,-0.2514,-0.2514,-0.2514,-0.2514,-0.2514,-0.2514,-0.2514,-0.2514,-0.2514,-0.2514,-0.2458,-0.2424,-0.2424,-0.4867,-0.668,-0.7765,-1.0233,-1.1619,-1.1619,-1.1619,-1.1619,-1.1619,-1.1619,-1.1619,-1.1619,-1.1619,-1.1619,-1.1619,-1.1619,-1.1619,-1.1619,-1.1619,-1.1619,-1.1691,-1.2474,-1.2824,-1.2896,-1.3611,-1.3904,-1.3904,0.0,0.0,0.0,0.0,0.0,0.0,0.0,0.0,0.0,0.0,0.0,0.0,0.0,0.0,0.0,0.2825,0.1176,0.0479,0.1389,0.0543,0.004,0.0039,0.0,0.0,0.0,0.0,0.0,0.0,0.0,0.0,0.0,0.0,0.0,0.0,0.0,-0.0169,-0.0459,-0.0403,-0.0821,-0.1453,-0.1204,-0.1483,-0.2076,-0.2198,-0.2207,-0.2227,-0.2191,-0.2162,-0.211,-0.2109,-0.2068,-0.2007,-0.1947,-0.1825,-0.1693,-0.1635,-0.1595,-0.1632,0.0,0.0,0.0,-0.1853,-0.1949,-0.2031,-0.2094,-0.2155,-0.2199,-0.22,-0.2225,-0.2194,-0.2322,-0.2333,-0.2372,-0.2492,-0.2511,-0.2512,-0.2512,-0.2512,-0.2514,-0.2514,-0.2514,-0.2514,-0.2514,-0.2514,-0.2514,-0.2514,-0.2459,-0.2424,-0.2424,-0.3914,-0.6177,-0.9219,-1.0815,-1.1619,-1.1619,-1.1619,-1.1619,-1.1619,-1.1619,-1.1619,-1.1619,-1.1619,-1.1619,-1.1619,-1.1619,-1.1619,-1.1619,-1.1619,-1.1619,-1.1691,-1.2466,-1.2753,-1.2896,-1.3619,-1.3896,-1.3904,0.0,0.0,0.0,0.0,0.0,0.0,0.0,0.0,0.0,0.0,0.0,0.0,0.1067,0.2089,0.2767,0.2953,0.2494,0.224,0.2478,0.1546,0.0999,0.1021,0.0357,0.0,0.0,0.0,0.0,0.0,0.0,0.0,0.0,0.0,0.0,0.0,0.0,-0.0053,-0.0111,-0.0117,-0.0357,-0.0775,-0.0946,-0.1289,-0.1748,-0.2083,-0.2183,-0.2191,-0.2222,-0.2193,-0.2139,-0.2117,-0.2054,-0.1974,-0.1891,-0.1791,-0.1697,-0.166,-0.1596,-0.1547,-0.1585,0.0,0.0,0.0,0.0,0.0,-0.2053,-0.2124,-0.2173,-0.2195,-0.2241,-0.2289,-0.2326,-0.2333,-0.2358,-0.2436,-0.2448,-0.2457,-0.2478,-0.2481,-0.2489,-0.2512,-0.2514,-0.2514,-0.2514,-0.2514,-0.2514,0.0,-0.2478,-0.2447,-0.2424,-0.494,-0.7259,-0.9219,-1.0815,-1.1619,-1.1619,-1.1619,-1.1619,-1.1619,-1.1619,-1.1619,-1.1619,-1.1619,-1.1619,-1.1619,-1.1619,-1.1619,-1.1619,-1.1619,-1.1619,-1.1619,-1.2194,-1.2402,-1.2409,-1.2896,-1.3253,-1.3468,0.0,0.0,0.0,0.0,0.0,0.0,0.0,0.0426,0.0773,0.0,0.0,0.0,0.2907,0.33,0.3704,0.4313,0.3641,0.3303,0.3571,0.2605,0.2067,0.201,0.11,0.0602,0.0585,0.0203,0.0,0.0,0.0,0.0,0.0,0.0,0.0,0.0,0.0,0.0,0.0,0.0,-0.018,-0.0533,-0.0876,-0.1278,-0.1605,-0.2007,-0.2169,-0.2169,-0.2155,-0.2214,-0.2173,-0.2168,-0.2106,-0.2023,-0.1969,-0.1873,-0.1771,-0.173,-0.1644,-0.1565,-0.157,-0.1594,-0.1637,-0.1719,0.0,0.0,-0.2023,-0.2102,-0.2166,-0.221,-0.2247,-0.2277,-0.2293,-0.2224,-0.2236,-0.2343,-0.236,-0.2387,-0.2443,-0.245,-0.2461,-0.2492,-0.2484,-0.2487,-0.2512,-0.2503,-0.25,-0.2514,-0.2487,-0.245,-0.2406,-0.529,-0.7404,-0.8348,-1.0455,-1.1619,-1.1619,-1.1619,-1.1619,-1.1619,-1.1619,-1.1619,-1.1619,-1.1619,-1.1619,-1.1619,-1.1619,-1.1619,-1.1619,-1.1619,-1.1619,-1.1619,-1.2051,-1.2194,-1.2266,-1.2689,-1.3039,-1.3325,0.0,0.0,0.0167,0.0218,0.0318,0.0426,0.0443,0.1328,0.205,0.0,0.3046,0.409,0.4754,0.433,0.4475,0.5802,0.4347,0.3642,0.4281,0.3377,0.2814,0.2747,0.1762,0.123,0.1264,0.0409,0.0,0.0,0.0,0.0,0.0,0.0,0.0,0.0,0.0,0.0,0.0,0.0,-0.0181,-0.0535,-0.0936,-0.1269,-0.1527,-0.2023,-0.2173,-0.214,-0.2155,-0.2236,-0.2213,-0.2226,-0.2181,-0.2117,-0.2104,-0.2009,-0.1892,-0.1821,-0.172,-0.1624,-0.1587,-0.1594,-0.162,-0.1705,-0.1785,0.0,-0.1993,-0.2075,-0.2153,-0.2213,-0.2161,-0.2166,-0.2166,-0.2163,-0.2163,-0.2174,-0.2266,-0.2312,-0.2401,-0.2413,-0.2427,-0.2459,-0.2438,-0.2442,-0.2499,-0.248,-0.2476,-0.2502,-0.2478,-0.244,-0.2386,-0.5354,-0.6978,-0.697,-1.0017,-1.1619,-1.1619,-1.1619,-1.1619,-1.1619,-1.1619,-1.1619,-1.1619,-1.1619,-1.1619,-1.1619,-1.1619,-1.1619,-1.1619,-1.1619,-1.1619,-1.1619,-1.1979,-1.2122,-1.2194,-1.2545,-1.2896,-1.3253,0.0,0.0687,0.1311,0.1437,0.2268,0.2957,0.3018,0.3291,0.3479,0.349,0.4433,0.4812,0.3969,0.4519,0.4564,0.373,0.3299,0.3125,0.3203,0.2268,0.1695,0.1696,0.0797,0.026,0.0293,0.0085,0.0,0.0,0.0,0.0,0.0,0.0,0.0,0.0,0.0,0.0,0.0,0.0,-0.0178,-0.0553,-0.0911,-0.1115,-0.1228,-0.1916,-0.2244,-0.226,-0.2301,-0.2297,-0.2259,-0.2166,-0.2157,-0.2165,-0.2067,-0.2033,-0.2003,-0.187,-0.178,-0.176,-0.1629,-0.1595,-0.1594,-0.17,-0.1705,0.0,-0.1918,-0.1981,-0.2029,-0.2087,-0.2138,-0.2173,-0.2173,-0.2153,-0.2159,-0.2163,-0.223,-0.2249,-0.2338,-0.235,-0.2371,-0.2427,-0.2405,-0.2401,-0.2438,-0.2436,-0.2435,-0.244,-0.2436,-0.2428,-0.2416,-0.5351,-0.697,-0.697,-1.0017,-1.1619,-1.1619,-1.1619,-1.1619,-1.1619,-1.1619,-1.1619,-1.1619,-1.1619,-1.1619,-1.1619,-1.1619,-1.1619,-1.1619,-1.1619,-1.1619,-1.1619,-1.1691,-1.1691,-1.1763,-1.1835,-1.2259,-1.2896,0.1486,0.194,0.2397,0.2645,0.3275,0.3713,0.3847,0.4432,0.4861,0.4818,0.5253,0.5611,0.5565,0.5483,0.5382,0.5151,0.5135,0.5098,0.4981,0.3862,0.3169,0.3097,0.1559,0.0711,0.0696,0.0261,0.0,0.0,0.0,0.0,0.0,0.0,0.0,0.0,0.0,0.0,0.0,0.0,-0.0123,-0.0317,-0.0854,-0.1194,-0.1458,-0.2019,-0.2268,-0.2274,-0.2318,-0.2315,-0.2281,-0.2221,-0.2189,-0.2169,-0.2124,-0.2089,-0.2044,-0.1939,-0.1865,-0.1847,-0.1671,-0.1617,-0.1598,-0.1663,-0.1651,0.0,0.0,-0.1899,-0.1944,-0.1989,-0.2069,-0.2119,-0.2074,-0.209,-0.2114,-0.2129,-0.2158,-0.2183,-0.2196,-0.2264,-0.2334,-0.2394,-0.2348,-0.2342,-0.2416,-0.2383,-0.2369,-0.2399,-0.2401,-0.2394,-0.2379,-0.5302,-0.6998,-0.698,-0.9982,-1.1619,-1.1619,-1.1619,-1.1619,-1.1619,-1.1619,-1.1619,-1.1619,-1.1619,-1.1619,-1.1619,-1.1619,-1.1619,-1.1619,-1.1619,-1.1619,-1.1619,-1.1619,-1.1619,-1.1619,-1.1619,-1.2115,-1.2824,0.3057,0.3168,0.3452,0.3837,0.4163,0.4478,0.4603,0.5562,0.6231,0.611,0.6124,0.646,0.7153,0.6413,0.6103,0.6672,0.673,0.6704,0.6468,0.5455,0.4796,0.4731,0.2654,0.1524,0.157,0.0537,0.0,0.0,0.0,0.0,0.0,0.0,0.0,0.0,0.0,0.0,0.0,0.0,-0.0064,-0.013,-0.0861,-0.1346,-0.1642,-0.2133,-0.2296,-0.2213,-0.232,-0.2318,-0.2298,-0.2293,-0.2245,-0.2191,-0.2198,-0.2161,-0.2097,-0.2004,-0.1945,-0.1877,-0.1776,-0.1662,-0.1635,-0.1598,-0.169,-0.1759,0.0,0.0,0.0,-0.1899,-0.1982,-0.203,-0.197,-0.2012,-0.2039,-0.1984,-0.2052,-0.2089,-0.2022,-0.2143,-0.2264,-0.2335,-0.229,-0.229,-0.238,-0.235,-0.2337,-0.2367,-0.2397,-0.2393,-0.2343,-0.5035,-0.6669,-0.6943,-0.9678,-1.1325,-1.1619,-1.1619,-1.1619,-1.1619,-1.1619,-1.1619,-1.1619,-1.1619,-1.1619,-1.1619,-1.1619,-1.1619,-1.1619,-1.1619,-1.1619,-1.1619,-1.1619,-1.1619,-1.1619,-1.1619,-1.2115,-1.2824,0.3349,0.387,0.4699,0.4966,0.5924,0.68,0.7177,0.7383,0.7551,0.7636,0.7752,0.7443,0.6363,0.6268,0.5853,0.4749,0.4728,0.4739,0.4595,0.4328,0.4281,0.4505,0.2881,0.2038,0.2191,0.0762,0.0,0.0,0.0,0.0,0.0,0.0,0.0,0.0,0.0,0.0,0.0,0.0,-0.0197,-0.0462,-0.096,-0.1194,-0.1354,-0.2125,-0.2383,-0.2397,-0.235,-0.2331,-0.2324,-0.23,-0.2301,-0.23,-0.2223,-0.2247,-0.2259,-0.2041,-0.1989,-0.1964,-0.1843,-0.1791,-0.1776,-0.1718,-0.1716,-0.1775,-0.1814,0.0,-0.1806,-0.1809,0.0,-0.1844,-0.1888,0.0,0.0,-0.1825,-0.1896,-0.1926,-0.1838,-0.1955,-0.2091,-0.2207,-0.2259,-0.2281,-0.2196,-0.2376,-0.2418,-0.2343,-0.2463,-0.2491,-0.2379,-0.3999,-0.5586,-0.6958,-0.8631,-1.0233,-1.1619,-1.1619,-1.1619,-1.1619,-1.1619,-1.1619,-1.1619,-1.1619,-1.1619,-1.1619,-1.1619,-1.1619,-1.1619,-1.1619,-1.1619,-1.1619,-1.1619,-1.1619,-1.1619,-1.1619,-1.2115,-1.2824,0.498,0.5363,0.5617,0.5284,0.6342,0.7153,0.6698,0.7387,0.7921,0.8032,0.7451,0.7179,0.7497,0.683,0.6523,0.6872,0.6814,0.6721,0.6661,0.5887,0.5456,0.5424,0.3944,0.3065,0.3052,0.2433,0.1707,0.0946,0.1012,0.069,0.0,0.0,0.0,0.0,0.0,0.0,0.0,0.0,-0.0069,-0.0289,-0.092,-0.1247,-0.1322,-0.2091,-0.236,-0.2368,-0.2342,-0.2333,-0.2334,-0.2339,-0.2349,-0.2349,-0.2294,-0.2327,-0.2349,-0.2161,-0.2127,-0.211,-0.193,-0.194,-0.1862,-0.1785,-0.1794,-0.1819,-0.1805,-0.1771,-0.1738,-0.1722,0.0,0.0,0.0,0.0,0.0,0.0,-0.1804,-0.1827,-0.1753,-0.1872,-0.2005,-0.2109,-0.2143,0.0,-0.2191,-0.2345,-0.2405,-0.2315,-0.2416,-0.2436,-0.2333,-0.3875,-0.5392,-0.69,-0.8462,-1.0017,-1.1548,-1.1619,-1.1619,-1.1619,-1.1619,-1.1619,-1.1619,-1.1619,-1.1619,-1.1619,-1.1619,-1.1619,-1.1619,-1.1619,-1.1619,-1.1619,-1.1619,-1.1619,-1.1619,-1.1619,-1.1979,-1.2474,0.6121,0.641,0.6272,0.575,0.6639,0.719,0.6469,0.7372,0.8089,0.8119,0.7444,0.7341,0.8501,0.7654,0.7574,0.8776,0.8742,0.8649,0.8617,0.7626,0.7011,0.6958,0.5416,0.4519,0.4351,0.3933,0.3004,0.1657,0.1776,0.1197,0.0,0.0,0.0,0.0,0.0,0.0,0.0,0.0,0.0,-0.0075,-0.0723,-0.12,-0.152,-0.212,-0.236,-0.2345,-0.2335,-0.2333,-0.2337,-0.2368,-0.2384,-0.2386,-0.2354,-0.2382,-0.2395,-0.2253,-0.2222,-0.2199,-0.2044,-0.1994,-0.1973,-0.1906,-0.1895,-0.1899,-0.1832,-0.1825,-0.1753,-0.1708,-0.1696,0.0,0.0,0.0,-0.1695,-0.164,0.0,-0.1695,-0.1617,-0.1737,-0.1879,-0.2001,-0.2037,-0.2075,0.0,-0.2313,-0.2383,-0.2286,-0.2384,-0.2402,-0.2296,-0.3389,-0.491,-0.688,-0.8093,-0.9579,-1.1548,-1.1619,-1.1619,-1.1619,-1.1619,-1.1619,-1.1619,-1.1619,-1.1619,-1.1619,-1.1619,-1.1619,-1.1619,-1.1619,-1.1619,-1.1619,-1.1619,-1.1619,-1.1619,-1.1619,-1.1835,-1.2266,0.6203,0.6478,0.6603,0.6732,0.7008,0.7285,0.7584,0.794,0.8187,0.813,0.8356,0.8579,0.8584,0.8825,0.9041,0.9052,0.9215,0.9231,0.9117,0.8922,0.89,0.9014,0.7191,0.625,0.6298,0.4708,0.3183,0.181,0.1912,0.1296,0.0,0.0,0.0,0.0,0.0,0.0,0.0,0.0,0.0,-0.0069,-0.0437,-0.1116,-0.1868,-0.2292,-0.2428,-0.2373,-0.2343,-0.2333,-0.2337,-0.2368,-0.2398,0.0,-0.2386,-0.2398,-0.2399,-0.2208,-0.2223,-0.2181,-0.2087,-0.2039,-0.2016,-0.2014,-0.2035,-0.2049,-0.2019,-0.1967,-0.1899,-0.1809,-0.1723,-0.1654,-0.1624,-0.162,-0.1583,-0.1417,-0.1449,0.0,0.0,-0.1489,-0.166,-0.1866,-0.1967,-0.2044,-0.2105,-0.23,-0.2375,0.0,-0.2412,-0.2447,-0.2298,-0.2363,-0.381,-0.6889,-0.7038,-0.8564,-1.1548,-1.1619,-1.1619,-1.1619,-1.1619,-1.1619,-1.1619,-1.1619,-1.1619,-1.1619,-1.1619,-1.1619,-1.1619,-1.1619,-1.1619,-1.1619,-1.1619,-1.1619,-1.1619,-1.1619,-1.1835,-1.2266,0.5534,0.63,0.6579,0.5744,0.6629,0.7491,0.7769,0.8051,0.8274,0.8394,0.8584,0.8861,0.9258,0.9204,0.9258,0.9574,0.9492,0.9372,0.9253,0.9209,0.9095,0.8899,0.8063,0.7536,0.7383,0.6637,0.523,0.2976,0.3132,0.211,0.0,0.0,0.0,0.0,0.0,0.0,0.0,0.0,0.0,0.0,-0.0469,-0.1085,-0.1806,-0.1956,-0.216,-0.2346,-0.2337,-0.2333,0.0,-0.2368,-0.2398,-0.2418,-0.2387,-0.2413,-0.2438,-0.2357,-0.2312,-0.2281,-0.2251,-0.2221,-0.2193,-0.2174,-0.2192,-0.22,-0.215,-0.2061,-0.1969,-0.1899,-0.1767,-0.1711,-0.1648,-0.1598,-0.1495,-0.1455,-0.1433,-0.1407,0.0,-0.1467,-0.153,-0.1581,-0.1772,-0.194,-0.2039,-0.2204,0.0,0.0,-0.2387,0.0,-0.2267,-0.2297,-0.3251,-0.531,-0.6433,-0.7982,-1.0089,-1.1109,-1.1619,-1.1619,-1.1619,-1.1619,-1.1619,-1.1619,-1.1619,-1.1619,-1.1619,-1.1619,-1.1619,-1.1619,-1.1619,-1.1619,-1.1619,-1.1619,-1.1619,-1.1619,-1.1691,-1.1907,0.5695,0.6412,0.6753,0.5899,0.6776,0.7676,0.7959,0.8171,0.8367,0.8562,0.8807,0.9106,0.9497,0.9372,0.9416,0.9802,0.9661,0.9552,0.9557,0.9557,0.9438,0.916,0.8807,0.8503,0.8263,0.7981,0.671,0.4391,0.4088,0.2799,0.0617,0.0207,0.0,0.0,0.0,0.0,0.0,0.0,0.0,0.0,-0.0315,-0.0777,-0.1353,-0.1342,-0.1779,-0.2363,0.0,-0.2333,-0.2335,-0.2356,-0.2307,-0.2178,-0.2384,-0.2255,-0.2049,-0.2166,-0.2063,-0.1894,-0.1885,-0.1865,-0.1849,-0.185,-0.1849,-0.192,-0.2065,-0.1973,-0.1878,-0.197,-0.1883,-0.1759,-0.1759,-0.1666,-0.1594,-0.1605,-0.1528,-0.1414,0.0,-0.1434,-0.143,-0.1421,-0.157,-0.1816,-0.1958,-0.2108,-0.2223,0.0,0.0,-0.2349,0.0,-0.2209,-0.3013,-0.4567,-0.6134,-0.7765,-0.9291,-1.0815,-1.1619,-1.1619,-1.1619,-1.1619,-1.1619,-1.1619,-1.1619,-1.1619,-1.1619,-1.1619,-1.1619,-1.1619,-1.1619,-1.1619,-1.1619,-1.1619,-1.1619,-1.1619,-1.1763,-1.2115,0.6674,0.6942,0.7062,0.7243,0.7497,0.7839,0.8176,0.8345,0.8481,0.8606,0.9019,0.9313,0.9345,0.9438,0.959,0.9824,0.9737,0.9764,0.9998,1.0003,0.9943,0.9835,0.9481,0.9182,0.8895,0.8595,0.7605,0.5906,0.4732,0.3349,0.1759,0.0651,0.0055,0.0,0.0,0.0,0.0,0.0,0.0,0.0,0.0,-0.0226,-0.0596,-0.0595,-0.1348,-0.234,-0.2281,-0.226,-0.226,-0.226,-0.2058,-0.1855,-0.2228,-0.1781,-0.1262,-0.1635,-0.1473,-0.1165,-0.1152,-0.1137,-0.1132,-0.1089,-0.1076,-0.1213,-0.1645,-0.1659,-0.1653,-0.2063,-0.1997,-0.1878,-0.1875,-0.1758,-0.1725,-0.1807,-0.1628,-0.1461,-0.1403,-0.1343,-0.1315,-0.1386,-0.1524,-0.1686,-0.1862,-0.2015,-0.2154,-0.2277,-0.2316,-0.2308,-0.2178,-0.218,-0.2899,-0.4424,-0.6062,-0.7621,-0.9147,-1.0743,-1.1548,-1.1619,-1.1619,-1.1619,-1.1619,-1.1619,-1.1619,-1.1619,-1.1619,-1.1619,-1.1619,-1.1619,-1.1619,-1.1619,-1.1619,-1.1619,-1.1619,-1.1619,-1.2115,-1.2753,0.7406,0.7497,0.7611,0.7905,0.8035,0.81,0.81,0.8432,0.8785,0.9084,0.9226,0.9476,0.9921,0.9764,0.9715,0.9954,0.9786,0.9731,0.9873,0.972,0.965,0.9709,0.928,0.8987,0.9014,0.8491,0.76,0.6217,0.5617,0.4145,0.1934,0.1534,0.0886,0.0,0.0,0.0,0.0,0.0,0.0,0.0,0.0,-0.0302,-0.0677,0.0,-0.1041,-0.1585,-0.1473,-0.1459,-0.1459,-0.1459,-0.1389,-0.1393,-0.1467,-0.1393,-0.1249,-0.1334,-0.1252,-0.1172,-0.1264,-0.1183,-0.1173,-0.1181,-0.1186,-0.1187,0.0,-0.131,-0.1212,-0.1314,-0.1462,-0.1601,-0.1566,-0.1688,-0.1868,-0.1853,-0.1688,-0.1546,-0.1461,-0.137,-0.1315,-0.1386,-0.1524,-0.166,-0.1829,-0.1922,-0.2069,-0.2213,-0.2312,-0.2331,-0.2179,-0.233,-0.2497,-0.2863,-0.4482,-0.6032,-0.7548,-0.9147,-1.0455,-1.1619,-1.1619,-1.1619,-1.1619,-1.1619,-1.1619,-1.1619,-1.1619,-1.1619,-1.1619,-1.1619,-1.1619,-1.1619,-1.1619,-1.1619,-1.1619,-1.1619,-1.1907,-1.2338,0.7845,0.7899,0.7981,0.8133,0.8416,0.8584,0.8465,0.872,0.9073,0.9481,0.9584,0.9764,1.0161,0.9927,0.9818,1.0003,0.9807,0.9742,0.9905,0.9742,0.9671,0.9742,0.9536,0.9405,0.9372,0.8981,0.8282,0.731,0.6425,0.5178,0.3525,0.2401,0.1472,0.0755,0.0235,0.0,0.0,0.0,0.0,0.0,0.0,-0.015,0.0,-0.0367,-0.0515,-0.0744,-0.066,-0.0876,-0.1168,-0.1168,-0.1095,-0.0949,-0.1168,-0.0949,-0.0731,-0.0883,-0.0807,-0.0659,-0.0742,-0.0667,-0.0664,-0.0668,-0.067,-0.0746,-0.0897,-0.0886,-0.0946,-0.1079,-0.1184,-0.1351,-0.1539,-0.1615,-0.1745,-0.189,-0.1801,-0.1678,-0.1648,-0.153,-0.1452,-0.1467,-0.1557,-0.1647,-0.1722,-0.1986,-0.211,-0.2248,-0.2309,-0.2318,-0.2267,-0.2304,-0.2309,-0.2273,-0.4665,-0.5956,-0.596,-0.9076,-1.0627,-1.0599,-1.1253,-1.1619,-1.1619,-1.1619,-1.1619,-1.1619,-1.1619,-1.1619,-1.1619,-1.1619,-1.1619,-1.1619,-1.1619,-1.1619,-1.1619,-1.1619,-1.1835,-1.2194,0.818,0.8198,0.8247,0.8204,0.8715,0.9046,0.8981,0.9133,0.9356,0.978,0.9932,1.0057,1.021,0.9992,0.9894,1.003,0.9813,0.9769,1.0003,0.9894,0.9824,0.9835,0.9927,0.9883,0.9699,0.9525,0.9193,0.8682,0.7345,0.6324,0.561,0.3535,0.235,0.1846,0.0775,0.0188,0.0,0.0,0.0,0.0,0.0,0.0,0.0,0.0,0.0,0.0,0.0,-0.0439,-0.1024,-0.1024,-0.0806,-0.0587,-0.0953,-0.0587,-0.0073,-0.044,-0.0293,0.0,0.0,0.0,0.0,0.0,0.0,-0.0074,-0.0457,-0.0524,-0.0589,-0.0978,-0.1021,-0.1135,-0.1508,-0.1518,-0.1653,-0.2003,-0.1952,-0.1862,-0.1839,-0.1707,-0.1614,-0.1618,-0.1641,0.0,-0.1723,-0.1969,-0.2173,-0.2289,-0.2297,-0.2294,-0.2292,-0.2248,-0.2232,-0.218,-0.5278,-0.6315,-0.5032,-0.9388,-1.0971,-0.9702,-1.0978,-1.1619,-1.1619,-1.1619,-1.1619,-1.1619,-1.1619,-1.1619,-1.1619,-1.1619,-1.1619,-1.1619,-1.1619,-1.1619,-1.1619,-1.1619,-1.1835,-1.2122,0.8454,0.8437,0.8503,0.8878,0.9052,0.9226,0.9503,0.9563,0.9639,0.9813,0.9856,0.9992,1.0318,1.0047,0.9927,1.015,0.9862,0.9769,1.0003,0.9818,0.9742,0.9835,0.9769,0.9753,0.9807,0.9405,0.9188,0.9177,0.8443,0.7473,0.64,0.5894,0.4422,0.222,0.1966,0.1183,0.0,0.0,0.0,0.0,0.0,0.0,0.0,0.0,0.0,0.0,0.0,-0.0075,-0.0222,-0.0222,-0.0149,-0.0151,-0.0151,-0.0151,0.0,-0.0075,-0.0075,0.0,0.0,0.0,0.0,0.0,0.0,0.0,-0.0074,-0.0074,-0.0148,-0.0224,-0.0445,-0.0737,-0.0813,-0.1298,-0.1768,-0.2204,-0.2135,-0.2031,-0.2052,-0.1925,-0.184,-0.1865,-0.1873,-0.187,-0.1855,-0.1925,-0.2009,-0.2104,-0.2244,-0.2315,-0.2292,-0.2327,-0.2327,-0.2285,-0.2878,-0.4436,0.0,0.0,-0.9155,-1.1602,-1.159,-1.1619,-1.1619,-1.1619,-1.1619,-1.1619,-1.1619,-1.1619,-1.1619,-1.1619,-1.1619,-1.1619,-1.1619,-1.1619,-1.1619,-1.1619,-1.1619,-1.1691,0.86,0.8796,0.9024,0.9193,0.9427,0.965,0.9824,0.9905,0.9987,1.0106,1.0123,1.021,1.0449,1.0264,1.0193,1.0373,1.0117,0.9992,1.0106,0.9889,0.9753,0.9753,0.9753,0.9813,0.9932,0.965,0.9497,0.9492,0.9019,0.8382,0.7722,0.6897,0.5374,0.3262,0.1758,0.0697,0.0,0.0,0.0,0.0,0.0,0.0,0.0,0.0,0.0,0.0,0.0,0.0,0.0,0.0,0.0,0.0,0.0,0.0,0.0,0.0,0.0,0.0,0.0,0.0,0.0,0.0,0.0,0.0,0.0,0.0,0.0,0.0,-0.0149,-0.0373,-0.0525,-0.127,-0.1857,-0.199,-0.2141,-0.221,-0.2163,-0.2053,-0.1989,-0.202,-0.1996,-0.1977,-0.1978,-0.1992,-0.2037,-0.2128,-0.2215,-0.2278,-0.2311,-0.2296,-0.2279,-0.2267,-0.3226,0.0,-0.4727,0.0,-0.8067,-0.9459,-1.0076,-1.0815,-1.1619,-1.1619,-1.1619,-1.1619,-1.1619,-1.1619,-1.1619,-1.1619,-1.1619,-1.1619,-1.1619,-1.1619,-1.1619,-1.1619,-1.1619,-1.1619,0.8861,0.9198,0.9508,0.9465,0.9813,1.009,1.0063,1.0182,1.0297,1.034,1.0367,1.0438,1.0579,1.0492,1.0481,1.0617,1.0438,1.0307,1.028,1.0074,0.9889,0.9753,0.9829,0.9921,1.0019,0.9927,0.9835,0.9742,0.9438,0.9079,0.8693,0.7733,0.6229,0.4327,0.1646,0.0293,0.0,0.0,0.0,0.0,0.0,0.0,0.0,0.0,0.0,0.0,0.0,0.0,0.0,0.0,0.0,0.0,0.0,0.0,0.0,0.0,0.0,0.0,0.0,0.0,0.0,0.0,0.0,0.0,0.0,0.0,0.0,0.0,0.0,-0.015,-0.0531,-0.1145,0.0,-0.1827,-0.2098,-0.2274,-0.2285,-0.2187,-0.2129,-0.2154,-0.2104,-0.2071,-0.2147,0.0,-0.2128,-0.2213,-0.2214,-0.2243,-0.232,-0.2258,-0.2236,-0.2273,-0.3743,-0.4061,-0.2909,0.0,-0.7207,-0.761,-0.8729,-1.0089,-1.1619,-1.1619,-1.1619,-1.1619,-1.1619,-1.1619,-1.1619,-1.1619,-1.1619,-1.1619,-1.1619,-1.1619,-1.1619,-1.1619,-1.1619,-1.1626,0.953,0.9612,0.9715,0.9916,1.0172,1.0313,1.0204,1.0378,1.0449,1.0248,1.0318,1.0471,1.0693,1.0612,1.0634,1.0867,1.0764,1.0639,1.053,1.0405,1.0231,0.9998,0.9998,1.0008,1.0019,1.0008,0.9998,0.9987,0.9845,0.9318,0.847,0.9132,0.7716,0.4711,0.0,0.0,0.0,0.0,0.0,0.0,0.0,0.0,0.0,0.0,0.0,0.0,0.0,0.0,0.0,0.0,0.0,0.0,0.0,0.0,0.0,0.0,0.0,0.0,0.0,0.0,0.0,0.0,0.0,0.0,0.0,0.0,0.0,0.0,0.0,-0.0152,-0.0615,-0.0681,-0.0991,-0.1866,-0.1923,-0.2008,-0.2508,-0.2399,-0.2308,-0.2311,-0.219,-0.2203,-0.2218,-0.2172,-0.2214,-0.2278,-0.2256,-0.2258,-0.2293,-0.2288,-0.2308,-0.2364,-0.2536,-0.3295,-0.4812,-0.4895,-0.6485,-0.9457,-0.9321,-1.0089,-1.1619,-1.1619,-1.1619,-1.1619,-1.1619,-1.1619,-1.1619,-1.1619,-1.1619,-1.1619,-1.1619,-1.1619,-1.1619,-1.1619,-1.1619,-1.166,0.9764,1.0003,1.0188,1.0139,1.0389,1.0558,1.0433,1.0492,1.0547,1.0525,1.0503,1.0552,1.0721,1.0759,1.0873,1.1112,1.1025,1.0873,1.0677,1.0552,1.0346,1.0036,0.9949,0.9981,1.0128,0.9987,1.0019,1.0242,1.0041,0.9254,0.8012,0.8156,0.6466,0.3222,0.0,0.0612,0.0,0.0,0.0,0.0,0.0,0.0,0.0,0.0,0.0,0.0,0.0,0.0,0.0,0.0,0.0,0.0,0.0,0.0,0.0,0.0,0.0,0.0,0.0,0.0,0.0,0.0,0.0,0.0,0.0,0.0,0.0,0.0,0.0,-0.0075,-0.0228,-0.0536,-0.0924,-0.1397,-0.178,-0.2074,-0.2352,-0.2387,-0.236,-0.236,-0.2308,-0.227,-0.2262,-0.2289,-0.2303,-0.2292,-0.2312,-0.2354,-0.2421,-0.2356,-0.2352,-0.2431,-0.2305,-0.2651,-0.3464,-0.3366,-0.4428,-0.6713,-0.7515,-0.8709,-1.0233,-1.1181,-1.1619,-1.1619,-1.1619,-1.1619,-1.1619,-1.1619,-1.1619,-1.1619,-1.1619,-1.1619,-1.1619,-1.1619,-1.1674,-1.1775,1.0052,1.0324,1.0503,1.0335,1.0547,1.071,1.0623,1.0639,1.0704,1.0829,1.077,1.0764,1.0878,1.0971,1.1107,1.1308,1.1253,1.1118,1.0905,1.0748,1.052,1.0193,1.003,1.0008,1.0144,1.0014,1.0052,1.028,1.0139,0.9366,0.8067,0.7309,0.5382,0.0,0.1164,0.0386,0.0,0.0,0.0,0.0,0.0,0.0,0.0,0.0,0.0,0.0,0.0,0.0,0.0,0.0,0.0,0.0,0.0,0.0,0.0,0.0,0.0,0.0,0.0,0.0,0.0,0.0,0.0,0.0,0.0,0.0,0.0,0.0,0.0,0.0,0.0,-0.0306,-0.0693,-0.0989,-0.1464,-0.1851,-0.2172,-0.2299,-0.2382,-0.2427,-0.2395,-0.2378,-0.2398,-0.2418,-0.2399,-0.2322,-0.2363,-0.2408,-0.2447,-0.2391,-0.2384,-0.244,-0.2303,-0.2279,-0.239,-0.2333,-0.3106,-0.4729,-0.6246,-0.7837,-0.9363,-1.0887,-1.1619,-1.1619,-1.1619,-1.1619,-1.1619,-1.1619,-1.1619,-1.1619,-1.1619,-1.1619,-1.1619,-1.1619,-1.1735,-1.1925,1.0503,1.0634,1.0634,1.0634,1.0655,1.0737,1.0737,1.084,1.096,1.1079,1.1096,1.1139,1.1253,1.1264,1.1319,1.1533,1.1543,1.14,1.1275,1.1047,1.0808,1.0558,1.0324,1.0144,1.0025,1.0139,1.0139,1.0025,1.0144,0.9775,0.8826,0.7144,0.4923,0.247,0.2335,0.1397,0.0,0.0,0.0,0.0,0.0,0.0,0.0,0.0,0.0,0.0,0.0,0.0,0.0,0.0,0.0,0.0,0.0,0.0,0.0,0.0,0.0,0.0,0.0,0.0,0.0,0.0,0.0,0.0,0.0,0.0,0.0,0.0,0.0,0.0,0.0,0.0,-0.0151,-0.0714,-0.1065,-0.1338,-0.1871,-0.2108,-0.2388,-0.254,-0.2637,-0.2556,-0.2557,-0.2557,-0.2507,-0.2386,-0.2406,-0.2386,-0.2298,-0.2375,-0.2409,-0.238,-0.232,0.0,-0.2423,-0.2363,-0.3132,-0.4729,-0.6246,-0.7837,-0.9363,-1.0887,-1.1619,-1.1619,-1.1619,-1.1619,-1.1619,-1.1619,-1.1619,-1.1619,-1.1619,-1.1619,-1.1619,-1.1619,-1.1803,-1.2101,1.0666,1.0748,1.0802,1.0802,1.0905,1.0987,1.0987,1.102,1.1085,1.1204,1.1221,1.1264,1.1384,1.1324,1.1319,1.1533,1.1543,1.1373,1.1166,1.1085,1.09,1.0568,1.0481,1.0351,1.015,1.0182,1.0182,1.0144,0.0,0.0,0.0,0.5046,0.3202,0.2286,0.1242,0.0464,0.0,0.0,0.0,0.0,0.0,0.0,0.0,0.0,0.0,0.0,0.0,0.0,0.0,0.0,0.0,0.0,0.0,0.0,0.0,0.0,0.0,0.0,0.0,0.0,0.0,0.0,0.0,0.0,0.0,0.0,0.0,0.0,0.0,0.0,0.0,0.0,-0.0149,-0.0601,-0.0968,-0.1333,-0.179,-0.2152,-0.2373,-0.2402,-0.2388,-0.2376,-0.2376,-0.2413,-0.2438,-0.244,-0.2544,-0.2549,-0.242,-0.238,-0.2395,-0.2469,-0.2334,0.0,-0.2423,-0.2363,-0.2551,-0.3059,-0.4657,-0.6757,-0.9363,-1.0887,-1.1619,-1.1619,-1.1619,-1.1619,-1.1619,-1.1619,-1.1619,-1.1619,-1.1619,-1.1619,-1.1633,-1.1728,-1.1959,-1.2257,1.0862,1.0933,1.0987,1.0987,1.1052,1.1118,1.1161,1.1166,1.121,1.1324,1.134,1.1373,1.1449,1.1384,0.0,1.1449,1.1543,1.1395,1.1243,1.115,1.0982,1.0704,1.0606,1.0465,1.0275,1.0226,0.0,1.0204,1.0204,0.9243,0.7489,0.5443,0.3697,0.2367,0.1403,0.0621,0.0,0.0,0.0,0.0,0.0,0.0,0.0,0.0,0.0,0.0,0.0,0.0,0.0,0.0,0.0,0.0,0.0,0.0,0.0,0.0,0.0,0.0,0.0,0.0,0.0,0.0,0.0,0.0,0.0,0.0,0.0,0.0,0.0,0.0,0.0,0.0,-0.0074,-0.0366,-0.0808,-0.1325,-0.1533,-0.2055,-0.2375,-0.2413,-0.2383,-0.2367,0.0,-0.2394,-0.2397,-0.2402,-0.2489,-0.25,-0.2408,-0.2412,-0.2412,-0.2397,-0.2309,-0.2298,-0.2373,-0.2346,-0.2333,-0.2333,-0.393,-0.6322,-0.9363,-1.0305,-1.1038,-1.1619,-1.1619,-1.1619,-1.1619,-1.1619,-1.1619,-1.1619,-1.1619,-1.1653,-1.1708,-1.1796,-1.2094,-1.2481,1.109,1.1112,1.1118,1.1123,1.1134,1.1177,1.1281,1.1302,1.1351,1.1465,1.1482,1.1482,1.1482,1.1482,1.1482,1.1482,0.0,0.0,1.1543,1.1248,1.1069,1.0938,1.0715,1.053,1.04,1.0286,1.0226,1.0215,1.0215,0.9332,0.7652,0.7738,0.5959,0.2869,0.276,0.1728,0.0157,0.0156,0.0078,0.0,0.0,0.0,0.0,0.0,0.0,0.0,0.0,0.0,0.0,0.0,0.0,0.0,0.0,0.0,0.0,0.0,0.0,0.0,0.0,0.0,0.0,0.0,0.0,0.0,0.0,0.0,0.0,0.0,0.0,0.0,0.0,0.0,0.0,0.0,-0.0657,-0.1168,-0.1168,-0.1824,-0.2386,-0.2527,-0.2493,0.0,-0.2536,-0.2463,-0.2383,0.0,-0.2301,-0.2301,-0.2303,-0.2462,-0.2447,-0.2217,-0.2262,-0.2292,-0.2293,-0.232,-0.2333,-0.2333,-0.393,-0.6177,-0.8997,-0.9219,-1.0089,-1.1476,-1.1548,-1.1619,-1.1619,-1.1619,-1.1619,-1.1619,-1.1619,-1.1708,-1.183,-1.1857,-1.223,-1.2732,0.0,1.1232,1.1264,1.1357,1.1449,1.152,1.1547,1.1629,1.1699,1.1732,1.1732,1.1732,1.1732,1.1732,1.1732,1.1732,1.1563,1.1543,1.1543,1.14,1.1281,1.1069,1.1003,1.0829,1.052,1.0487,1.0433,1.034,1.034,1.0051,0.9565,0.8393,0.7354,0.6453,0.5243,0.3749,0.2095,0.2088,0.1286,0.0,0.0,0.0,0.0,0.0,0.0,0.0,0.0,0.0,0.0,0.0,0.0,0.0,0.0,0.0,0.0,0.0,0.0,0.0,0.0,0.0,0.0,0.0,0.0,0.0,0.0,0.0,0.0,0.0,0.0,0.0,0.0,0.0,0.0,0.0,-0.0661,-0.1168,-0.1168,-0.1824,-0.2346,-0.2382,-0.2373,-0.2363,-0.2356,-0.2335,-0.2352,0.0,-0.2405,-0.2402,-0.2425,-0.2467,-0.2432,-0.2305,-0.2294,-0.2301,-0.2323,-0.233,-0.2333,-0.2333,-0.393,-0.5093,-0.5887,-0.8203,-0.9507,-0.9945,-1.1109,-1.1619,-1.1619,-1.1619,-1.1619,-1.1619,-1.1619,-1.1708,-1.1857,-1.2094,-1.2413,-1.2759,1.1417,1.1438,1.1476,1.1601,1.1677,1.1721,1.1721,1.1775,1.1819,1.1819,1.1819,1.1819,1.1819,1.1819,1.1819,1.1819,1.1699,1.1623,1.1623,1.1569,1.1482,1.1351,1.1291,1.1145,1.0889,1.0775,1.0612,1.0384,1.0384,1.0351,1.0286,0.9402,0.8598,0.7789,0.6905,0.5078,0.268,0.268,0.1625,0.0,0.0,0.0,0.0,0.0,0.0,0.0,0.0,0.0,0.0,0.0,0.0,0.0,0.0,0.0,0.0,0.0,0.0,0.0,0.0,0.0,0.0,0.0,0.0,0.0,0.0,0.0,0.0,0.0,0.0,0.0,0.0,0.0,0.0,0.0,-0.0515,-0.1022,-0.1168,-0.1678,-0.2114,-0.226,-0.2333,-0.2327,-0.2311,-0.2309,-0.2337,-0.2402,-0.2391,0.0,-0.2406,-0.2406,-0.2372,-0.2224,-0.2304,-0.2311,-0.2313,-0.2326,-0.2333,-0.2333,-0.3205,-0.4005,-0.4729,-0.6467,-0.7986,-0.9363,-1.0161,-1.0966,-1.1619,-1.1619,-1.1619,-1.1626,-1.1687,-1.1809,-1.1972,-1.2277,-1.2576,-1.2868,1.1645,1.1667,1.1699,1.1803,1.1835,1.1846,1.1846,1.1862,1.1873,1.1873,1.1873,1.1873,1.1873,1.1873,1.1873,1.1873,1.1873,1.1857,1.1824,1.1721,1.1656,1.1639,1.152,1.1395,1.1275,1.1058,1.0797,1.0492,1.0476,1.0465,1.0465,1.0449,0.9698,0.8306,0.8063,0.611,0.31,0.2857,0.1634,0.0,0.0,0.0,0.0,0.0,0.0,0.0,0.0,0.0,0.0,0.0,0.0,0.0,0.0,0.0,0.0,0.0,0.0,0.0,0.0,0.0,0.0,0.0,0.0,0.0,0.0,0.0,0.0,0.0,0.0,0.0,0.0,0.0,0.0,-0.0152,-0.0371,-0.0733,-0.126,-0.1616,-0.1895,-0.226,-0.2333,-0.2333,-0.2333,-0.2333,-0.2333,-0.2333,-0.2333,-0.2333,-0.2333,-0.2333,-0.2309,-0.219,-0.2235,-0.2322,-0.2297,-0.232,-0.2333,-0.2333,-0.2333,-0.2986,-0.4366,-0.4584,-0.625,-0.8997,-0.9219,-1.0161,-1.1548,-1.1325,-1.1253,-1.1266,-1.1411,-1.1549,-1.1795,-1.2343,-1.2718,-1.2983,1.1786,1.1792,1.1797,1.1819,1.19,1.196,1.196,1.2053,1.2118,1.2118,1.2118,1.2118,1.2118,1.2118,1.2118,1.2118,1.2118,1.2031,1.183,1.1803,1.1743,1.1639,1.152,1.1395,1.1275,1.1145,1.1047,1.0992,1.0889,1.0835,1.0835,1.0732,1.0517,1.018,0.8759,0.6926,0.4843,0.3343,0.1673,0.0,0.0,0.0,0.0,0.0,0.0,0.0,0.0,0.0,0.0,0.0,0.0,0.0,0.0,0.0,0.0,0.0,0.0,0.0,0.0,0.0,0.0,0.0,0.0,0.0,0.0,0.0,0.0,0.0,0.0,0.0,0.0,0.0,-0.0155,-0.0656,-0.0695,-0.0896,-0.1747,-0.1822,-0.1895,-0.226,-0.2333,-0.2333,-0.2333,-0.2333,-0.2333,-0.2333,-0.2333,-0.2333,-0.2333,-0.2333,-0.2328,-0.2319,-0.2328,-0.2331,-0.2326,-0.2331,-0.2333,-0.2333,-0.2333,-0.2405,-0.2697,-0.4075,-0.567,-0.7404,-0.8709,-1.0161,-1.1476,-1.0161,-0.9651,-0.9663,-0.9792,-0.9917,-1.0289,-1.2063,-1.2807,-1.3003,1.19,1.1911,1.1933,1.1998,1.2053,1.2085,1.2085,1.2134,1.2172,1.2172,1.2172,1.2172,1.2172,1.2172,1.2172,1.2172,1.2172,1.2123,1.2015,1.2009,1.1982,1.1928,1.1868,1.1694,1.1378,1.1253,1.1128,1.1003,1.0949,1.0922,1.0916,1.0797,1.0737,1.0654,0.9898,0.8553,0.671,0.4952,0.3108,0.1346,0.0421,0.0,0.0,0.0,0.0,0.0,0.0,0.0,0.0,0.0,0.0,0.0,0.0,0.0,0.0,0.0,0.0,0.0,0.0,0.0,0.0,0.0,0.0,0.0,0.0,0.0,0.0,0.0,0.0,0.0,0.0,0.0,-0.0077,-0.0396,-0.0304,-0.0591,-0.1453,-0.1492,-0.1678,-0.226,-0.2333,-0.2333,-0.2333,-0.2333,-0.2333,-0.2333,-0.2333,-0.2333,-0.2333,-0.2333,-0.2333,-0.2333,-0.2333,-0.2333,-0.2333,-0.2333,-0.2333,-0.2333,-0.2333,-0.2333,-0.2333,-0.3059,-0.4293,-0.5815,-0.7404,-0.8492,-0.9141,-0.9219,-0.8817,-0.8148,-0.9218,-0.9639,-1.0013,-1.205,-1.2901,-1.3003,1.2015,1.2031,1.2058,1.2156,1.2172,1.2172,1.2172,1.2172,1.2172,1.2172,1.2172,1.2172,1.2172,1.2172,1.2172,1.2172,1.2172,1.2172,1.2172,1.2172,1.2172,1.2172,1.2118,1.1906,1.1504,1.1351,1.1183,1.1003,1.0949,1.0922,1.0916,1.0797,1.0737,1.0654,1.0315,0.9392,0.7968,0.5706,0.3948,0.2522,0.0757,0.0,0.0,0.0,0.0,0.0,0.0,0.0,0.0,0.0,0.0,0.0,0.0,0.0,0.0,0.0,0.0,0.0,0.0,0.0,0.0,0.0,0.0,0.0,0.0,0.0,0.0,0.0,0.0,0.0,0.0,0.0,-0.0076,-0.0155,-0.0075,-0.0294,-0.127,-0.1255,-0.146,-0.2187,-0.2333,-0.2333,-0.2333,-0.2333,-0.2333,-0.2333,-0.2333,-0.2333,-0.2333,-0.2333,-0.2333,-0.2333,-0.2333,-0.2333,-0.2333,-0.2333,-0.2333,-0.2333,-0.2333,-0.2333,-0.2333,-0.2333,-0.3205,-0.4802,-0.596,-0.668,-0.7042,-0.7865,-0.7555,-0.66,-0.8052,-0.892,-0.9598,-1.1684,-1.2655,-1.3051,1.2156,1.2156,1.2161,1.2172,1.2172,1.2172,1.2172,1.2172,1.2172,1.2172,1.2172,1.2172,1.2172,1.2172,1.2172,1.2172,1.2172,1.2172,1.2172,1.2172,1.2172,1.2172,1.196,1.1775,1.1629,1.1395,1.1264,1.1248,1.1025,1.0922,1.0916,1.0797,1.0737,1.0654,0.8975,0.8219,0.7885,0.4365,0.2856,0.2522,0.0757,0.0,0.0,0.0,0.0,0.0,0.0,0.0,0.0,0.0,0.0,0.0,0.0,0.0,0.0,0.0,0.0,0.0,0.0,0.0,0.0,0.0,0.0,0.0,0.0,0.0,0.0,0.0,0.0,0.0,0.0,0.0,-0.0155,-0.0745,-0.0388,-0.0449,-0.1761,-0.1525,-0.146,-0.2187,-0.2333,-0.2333,-0.2333,-0.2333,-0.2333,-0.2333,-0.2333,-0.2333,-0.2333,-0.2333,-0.2333,-0.2333,-0.2333,-0.2333,-0.2333,-0.2333,-0.2333,-0.2333,-0.2333,-0.2333,-0.2333,-0.2333,-0.3205,-0.4729,-0.4802,-0.567,-0.6902,-0.5596,-0.4966,-0.4906,-0.5252,-0.634,-0.8067,-0.9945,-1.1733,-1.318,1.2172,1.2172,1.2172,1.2172,1.2172,1.2172,1.2172,1.2172,1.2172,1.2172,1.2172,1.2172,1.2172,1.2172,1.2172,1.2172,1.2172,1.2172,1.2172,1.2102,1.2091,1.2167,1.1944,1.1726,1.1525,1.1357,1.1199,1.1052,1.0965,1.0922,1.0916,1.0797,1.0737,1.0654,0.9981,0.9731,0.9476,0.5873,0.4365,0.4113,0.1178,0.0,0.0,0.0,0.0,0.0,0.0,0.0,0.0,0.0,0.0,0.0,0.0,0.0,0.0,0.0,0.0,0.0,0.0,0.0,0.0,0.0,0.0,0.0,0.0,0.0,0.0,0.0,0.0,0.0,0.0,0.0,-0.0076,-0.0311,-0.015,-0.0369,-0.1366,-0.1338,-0.146,-0.2187,-0.2333,-0.2333,-0.2333,-0.2333,-0.2333,-0.2333,-0.2333,-0.2333,-0.2333,-0.2333,-0.2333,-0.2333,-0.2333,-0.2333,-0.2333,-0.2333,-0.2333,-0.2333,-0.2333,-0.2333,-0.2333,-0.2333,-0.2624,-0.3278,-0.4293,-0.4439,-0.4151,-0.4501,-0.4101,-0.3387,-0.4512,-0.545,-0.6422,-0.9417,-1.0924,-1.171,1.2172,1.2172,1.2172,1.2172,1.2172,1.2172,1.2172,1.2172,1.2172,1.2172,1.2172,1.2172,1.2172,1.214,1.2112,1.2112,1.2112,1.2096,1.2063,1.1982,1.1971,1.2058,1.1868,1.1683,1.1514,1.1319,1.1139,1.0976,1.09,1.0862,1.0862,1.0775,1.0737,1.0737,1.0737,1.0737,1.0487,0.6906,0.5387,0.5122,0.1436,0.0,0.0,0.0,0.0,0.0,0.0,0.0,0.0,0.0,0.0,0.0,0.0,0.0,0.0,0.0,0.0,0.0,0.0,0.0,0.0,0.0,0.0,0.0,0.0,0.0,0.0,0.0,0.0,0.0,0.0,0.0,0.0,0.0,0.0,-0.0292,-0.1095,-0.1168,-0.146,-0.2187,-0.2333,-0.2333,-0.2333,-0.2333,-0.2333,-0.2333,-0.2333,-0.2333,-0.2333,-0.2333,-0.2333,-0.2333,-0.2333,-0.2333,-0.2333,-0.2333,-0.2333,-0.2333,-0.2333,-0.2333,-0.2333,-0.2333,-0.2333,-0.2333,-0.3496,-0.3358,-0.2422,-0.3491,-0.3387,-0.2516,-0.3777,-0.4625,-0.5431,-0.7906,-0.9622,-1.0721,1.2172,1.2172,1.2172,1.2172,1.2172,1.2172,1.2172,1.2172,1.2172,1.2172,1.2172,1.2172,1.2172,1.2063,1.1987,1.1987,1.1987,1.1938,1.1824,1.1819,1.1819,1.1819,1.1699,1.1634,1.1634,1.1286,1.1101,1.1101,1.0857,1.0737,1.0737,1.0737,1.0737,1.0737,1.0737,1.0737,1.0492,0.6961,0.5425,0.5125,0.1447,0.0,0.0,0.0,0.0,0.0,0.0,0.0,0.0,0.0,0.0,0.0,0.0,0.0,0.0,0.0,0.0,0.0,0.0,0.0,0.0,0.0,0.0,0.0,0.0,0.0,0.0,0.0,0.0,0.0,0.0,0.0,0.0,0.0,0.0,-0.0292,-0.1095,-0.1168,-0.146,-0.2187,-0.2333,-0.2333,-0.2333,-0.2333,-0.2333,-0.2333,-0.2333,-0.2333,-0.2333,-0.2333,-0.2333,-0.2333,-0.2333,-0.2333,-0.2333,-0.2333,-0.2333,-0.2333,-0.2333,-0.2333,-0.2333,-0.2333,-0.2333,-0.2333,-0.2333,-0.235,-0.238,-0.2412,-0.2442,-0.2472,-0.2503,-0.3636,-0.5194,-0.5255,-0.7595,-1.0645,1.2042,1.2042,1.2042,1.2042,1.2112,1.2172,1.2172,1.2172,1.2172,1.2172,1.2096,1.2074,1.2161,1.1993,1.1938,1.2102,1.1966,1.1819,1.1699,1.1688,1.165,1.1569,1.1531,1.1471,1.1384,1.1112,1.0933,1.0846,1.077,1.0737,1.0737,1.0737,1.0737,1.0737,1.0737,1.0737,1.057,0.8248,0.6593,0.5179,0.2877,0.1102,0.0,0.0,0.0,0.0,0.0,0.0,0.0,0.0,0.0,0.0,0.0,0.0,0.0,0.0,0.0,0.0,0.0,0.0,0.0,0.0,0.0,0.0,0.0,0.0,0.0,0.0,0.0,0.0,0.0,0.0,0.0,0.0,0.0,-0.0146,-0.073,-0.1022,-0.1386,-0.1895,-0.2187,-0.2333,-0.2333,-0.2333,-0.2333,-0.2333,-0.2333,-0.2333,-0.2333,-0.2333,-0.2333,-0.2333,-0.2333,-0.2333,-0.2333,-0.2333,-0.2333,-0.2333,-0.2333,-0.2333,-0.2333,-0.2333,-0.2333,-0.2334,-0.2356,-0.2369,-0.2383,-0.2433,-0.2461,-0.2472,-0.2503,-0.2862,-0.3557,-0.4786,-0.5994,-0.7346,1.1933,1.1998,1.2047,1.1998,1.2053,1.2112,1.2167,1.2091,1.2047,1.2091,1.1993,1.1966,1.2085,1.1889,1.1841,1.208,1.1928,1.1764,1.1645,1.1634,1.158,1.146,1.1411,1.1346,1.1275,1.1041,1.0884,1.0808,1.0759,1.0737,1.0737,1.0737,1.0737,1.0737,1.0737,1.0737,1.057,0.8848,0.7458,0.6312,0.3748,0.2473,0.2136,0.1358,0.1098,0.1093,0.1093,0.0589,0.0,0.0,0.0,0.0,0.0,0.0,0.0,0.0,0.0,0.0,0.0,0.0,0.0,0.0,0.0,0.0,0.0,0.0,0.0,0.0,0.0,0.0,0.0,0.0,0.0,0.0,0.0,-0.0147,-0.0511,-0.0949,-0.1313,-0.175,-0.2114,-0.2333,-0.2333,-0.2333,-0.2333,-0.2333,-0.2333,-0.2333,-0.2333,-0.2333,-0.2333,-0.2333,-0.2333,-0.2333,-0.2333,-0.2333,-0.2333,-0.2333,-0.2333,-0.2333,-0.2333,-0.2333,-0.2339,-0.2352,-0.2371,-0.2391,-0.2417,-0.2454,-0.2476,-0.2489,-0.2521,-0.2553,-0.2749,-0.3831,-0.4702,-0.576,1.1857,1.2009,1.2118,1.2009,1.1987,1.2025,1.214,1.1966,1.1857,1.196,1.1873,1.1846,1.196,1.1759,1.1721,1.1966,1.1895,1.1775,1.1629,1.1629,1.158,1.146,1.134,1.127,1.1259,1.1036,1.0916,1.09,1.0791,1.0737,1.0737,1.0737,1.0737,1.0737,1.0737,1.0737,1.0576,0.8986,0.8268,0.7866,0.4575,0.4138,0.5298,0.3589,0.297,0.294,0.294,0.1766,0.0253,0.0084,0.0,0.0,0.0,0.0,0.0,0.0,0.0,0.0,0.0,0.0,0.0,0.0,0.0,0.0,0.0,0.0,0.0,0.0,0.0,0.0,0.0,0.0,0.0,0.0,0.0,-0.0148,-0.0513,-0.0949,-0.1313,-0.1677,-0.2041,-0.2333,-0.2333,-0.2333,-0.2333,-0.2333,-0.2333,-0.2333,-0.2333,-0.2333,-0.2333,-0.2333,-0.2333,-0.2333,-0.2333,-0.2333,-0.2333,-0.2333,-0.2333,-0.2333,-0.2333,-0.2335,-0.2352,-0.2379,-0.2384,-0.2417,-0.2469,-0.2472,-0.2489,-0.2517,-0.2545,-0.2559,-0.257,-0.2627,-0.3641,-0.5319,1.1955,1.1993,1.202,1.1993,1.1987,1.1998,1.2025,1.1911,1.183,1.1851,1.1748,1.1721,1.1841,1.1639,1.1629,1.196,1.1966,1.1819,1.1514,1.1585,1.158,1.146,1.134,1.1232,1.1139,1.0998,1.0873,1.0775,1.0748,1.0737,1.0737,1.0737,1.0737,1.0737,1.0737,1.0737,1.0654,1.0257,0.9352,0.8117,0.7295,0.6359,0.544,0.5052,0.483,0.4784,0.4784,0.3612,0.1933,0.0505,0.0,0.0,0.0,0.0,0.0,0.0,0.0,0.0,0.0,0.0,0.0,0.0,0.0,0.0,0.0,0.0,0.0,0.0,0.0,0.0,0.0,0.0,0.0,0.0,0.0,0.0,-0.0148,-0.0735,-0.1241,-0.1313,-0.1896,-0.2333,-0.2333,-0.2333,-0.2333,-0.2333,-0.2333,-0.2333,-0.2333,-0.2333,-0.2333,-0.2333,-0.2333,-0.2333,-0.2333,-0.2333,-0.2333,-0.2333,-0.2333,-0.2333,-0.2334,-0.2357,-0.2372,-0.238,-0.2428,-0.2457,-0.247,-0.2495,-0.2508,-0.2515,-0.2522,-0.2552,-0.2597,-0.2634,-0.2845,-0.3576,1.1906,1.1998,1.2058,1.1998,1.1987,1.2009,1.2069,1.1928,1.1841,1.1895,1.1748,1.1683,1.1803,1.1601,1.1531,1.1716,1.1841,1.1781,1.1565,1.1569,1.158,1.146,1.1395,1.1302,1.1188,1.1069,1.0916,1.0737,1.0737,1.0737,1.0737,1.0737,1.0737,1.0737,1.0737,1.0737,1.0737,1.0737,1.0251,0.9378,0.8513,0.8195,0.8058,0.7152,0.6744,0.6761,0.6724,0.4952,0.2438,0.0589,0.0,0.0,0.0,0.0,0.0,0.0,0.0,0.0,0.0,0.0,0.0,0.0,0.0,0.0,0.0,0.0,0.0,0.0,0.0,0.0,0.0,0.0,0.0,0.0,0.0,0.0,0.0,-0.0518,-0.0956,-0.1168,-0.1678,-0.2114,-0.226,-0.2333,-0.2333,-0.2333,-0.2333,-0.2333,-0.2333,-0.2333,-0.2333,-0.2333,-0.2333,-0.2333,-0.2333,-0.2333,-0.2333,-0.2333,-0.2333,-0.2333,-0.2334,-0.2364,-0.2386,-0.2402,-0.2448,-0.2477,-0.2492,-0.2507,-0.2514,-0.2517,-0.2545,-0.2583,-0.2628,-0.2673,-0.3239,-0.4259,1.1911,1.2069,1.2167,1.2042,1.2004,1.202,1.2123,1.1955,1.1851,1.1949,1.1786,1.1705,1.1808,1.1639,1.1509,1.1487,1.1688,1.1716,1.1471,1.1569,1.158,1.146,1.1543,1.1395,1.1275,1.1161,1.0992,1.077,1.0748,1.0737,1.0737,1.0737,1.0737,1.0737,1.0737,1.0737,1.0737,1.0737,1.0808,1.0758,0.932,0.9625,1.0929,0.9298,0.871,0.8688,0.861,0.6469,0.3276,0.0842,0.0168,0.0421,0.0084,0.0,0.0,0.0,0.0,0.0,0.0,0.0,0.0,0.0,0.0,0.0,0.0,0.0,0.0,0.0,0.0,0.0,0.0,0.0,0.0,0.0,0.0,0.0,0.0,-0.0373,-0.0741,-0.1027,-0.1534,-0.1968,-0.226,-0.2333,-0.2333,-0.2333,-0.2333,-0.2333,-0.2333,-0.2333,-0.2333,-0.2333,-0.2333,-0.2333,-0.2333,-0.2333,-0.2333,-0.2333,-0.2338,-0.2341,-0.2342,-0.2372,-0.2402,-0.2433,-0.2463,-0.2491,-0.2514,-0.2514,-0.2518,-0.2527,-0.2581,-0.2623,-0.2662,-0.2729,-0.3744,-0.5218,1.2281,1.2308,1.2292,1.2167,1.2058,1.1993,1.2009,1.19,1.1824,1.1841,1.1813,1.1803,1.1819,1.1792,1.1726,1.1623,1.1737,1.1716,1.1471,1.1569,1.158,1.146,1.1543,1.1395,1.1275,1.1161,1.1036,1.0895,1.0791,1.0737,1.0737,1.0737,1.0737,1.0737,1.0737,1.0737,1.0737,1.0737,1.0808,1.0933,1.0795,1.0843,1.1112,1.0949,1.0762,1.0493,1.0556,0.9132,0.6627,0.1682,0.1009,0.2102,0.0505,0.0,0.0,0.0,0.0,0.0,0.0,0.0,0.0,0.0,0.0,0.0,0.0,0.0,0.0,0.0,0.0,0.0,0.0,0.0,0.0,0.0,0.0,0.0,0.0,-0.0377,-0.0595,-0.0668,-0.1321,-0.1968,-0.226,-0.2333,-0.2333,-0.2333,-0.2333,-0.2333,-0.2333,-0.2333,-0.2333,-0.2333,-0.2333,-0.2333,-0.2333,-0.2333,-0.2333,-0.2333,-0.236,-0.2372,-0.2373,-0.2403,-0.2433,-0.2465,-0.2495,-0.251,-0.2514,-0.2514,-0.253,-0.2557,-0.2589,-0.2637,-0.2697,-0.2784,-0.3016,-0.3315,1.233,1.2297,1.2259,1.227,1.2172,1.2091,1.2091,1.2047,1.2015,1.2015,1.1955,1.1911,1.1911,1.1857,1.1797,1.1743,1.1786,1.1775,1.1667,1.1645,1.1612,1.1558,1.1493,1.1395,1.1275,1.1161,1.1041,1.0922,1.0797,1.0737,1.0737,1.0737,1.0737,1.0737,1.0737,1.0737,1.0737,1.0737,1.077,1.0835,1.1025,1.1101,1.1118,1.1226,1.1204,1.101,0.9853,0.884,0.7443,0.303,0.2017,0.2354,0.0589,0.0,0.0,0.0,0.0,0.0,0.0,0.0,0.0,0.0,0.0,0.0,0.0,0.0,0.0,0.0,0.0,0.0,0.0,0.0,0.0,0.0,0.0,0.0,0.0,-0.0153,-0.0453,-0.0894,-0.1479,-0.191,-0.2261,-0.2333,-0.2333,-0.2333,-0.2333,-0.2333,-0.2333,-0.2333,-0.2333,-0.2333,-0.2333,-0.2333,-0.2333,-0.2333,-0.2333,-0.2333,-0.2364,-0.2378,-0.238,-0.2428,-0.2457,-0.247,-0.2502,-0.2514,-0.2514,-0.2514,-0.2522,-0.2541,-0.2602,-0.2686,-0.2776,-0.2833,-0.2863,-0.2874]}]]